GFSGL_925_thetae_000.txt.gz
Theta_e
291 290 289 288 288 287 287 286 286 285 284 284 283 282 280 279 279 278 277 277 276 276 276 275 275 275 275 275 275 276 277 278 279 279 279 279 279 279 280 281 281 282 282
291 289 288 287 287 286 285 285 284 283 283 283 281 280 279 278 277 277 276 275 274 274 273 273 273 273 273 272 272 273 273 274 275 275 275 275 276 276 277 278 279 279 280
290 288 287 285 284 284 284 283 282 282 281 280 280 279 278 277 276 276 274 273 273 272 272 272 272 272 272 272 272 272 272 272 272 273 273 273 274 274 275 276 277 277 279
289 287 285 283 282 282 282 281 281 280 280 279 278 277 276 275 275 274 272 272 271 271 272 272 272 272 272 272 272 272 272 272 272 272 273 273 274 274 275 276 277 278 280
287 285 283 281 281 281 280 280 279 279 278 278 276 275 275 275 275 273 272 271 272 272 272 272 272 272 272 274 274 274 274 274 274 274 274 274 274 275 276 277 278 279 279
286 283 281 280 280 280 279 278 278 277 277 276 275 275 275 274 273 274 274 273 273 273 272 272 272 272 272 273 274 275 275 275 275 276 276 276 276 276 276 277 277 279 281
284 281 279 278 279 278 278 277 276 276 275 274 274 274 274 273 272 273 274 274 273 272 272 272 272 273 273 273 273 274 275 274 275 275 276 276 277 277 278 279 279 280 280
281 280 278 277 277 276 275 275 274 274 274 274 274 273 272 272 272 273 273 273 272 272 272 273 274 274 274 275 275 275 275 275 275 275 275 275 276 276 277 278 278 279 279
280 278 276 276 275 274 273 274 274 274 273 273 273 272 272 272 271 272 273 274 273 273 273 274 274 274 273 275 275 275 275 275 274 275 275 276 277 279 279 279 279 279 280
279 277 276 275 275 274 274 273 274 273 273 273 272 272 271 271 271 272 274 274 274 274 274 274 273 273 274 275 276 275 274 275 275 274 275 275 276 277 277 279 281 281 283
278 276 275 274 274 274 273 273 272 272 272 271 271 271 270 271 271 272 274 274 274 275 274 273 272 273 275 274 275 273 273 275 275 274 275 278 277 277 278 278 279 280 281
276 274 273 273 272 272 272 271 271 271 270 270 270 270 271 271 271 272 273 274 275 274 274 273 272 274 273 272 272 272 273 273 271 272 273 275 278 279 279 280 280 281 281
273 272 270 271 271 271 270 270 269 269 270 270 270 271 271 270 270 271 272 274 274 274 273 273 272 271 270 269 269 271 270 269 270 271 271 272 274 276 279 281 281 282 282
271 269 268 268 267 268 269 269 269 269 270 270 271 271 270 270 270 271 272 273 273 272 272 270 268 268 268 268 267 268 269 269 270 270 271 271 272 274 275 277 281 285 284
270 268 268 267 267 267 268 269 270 270 271 270 270 270 269 269 270 273 274 273 273 272 270 267 265 265 266 267 267 267 268 268 270 270 270 271 271 273 274 275 278 284 286
270 268 267 267 267 268 268 269 270 270 271 271 270 269 269 270 272 273 273 273 271 270 266 264 264 265 265 266 266 267 268 268 269 270 270 270 271 272 272 273 274 278 286
271 269 268 267 268 268 267 268 269 270 270 270 269 269 270 270 271 271 271 270 268 267 264 264 263 264 264 265 266 266 267 267 268 270 270 270 271 271 271 271 272 275 279
271 269 269 268 268 268 267 267 267 267 267 267 268 268 268 269 270 270 269 266 264 264 263 263 263 263 264 265 265 266 267 266 269 269 269 271 270 269 269 270 271 273 275
270 269 269 268 268 268 268 268 267 267 266 265 265 267 266 267 268 267 265 263 262 262 262 262 262 262 262 263 264 265 266 266 269 269 271 270 269 268 269 269 269 271 273
270 269 269 268 267 266 266 266 266 266 265 264 264 265 265 264 264 264 263 262 262 262 262 261 262 262 262 263 263 265 266 266 269 270 270 269 268 268 268 269 269 270 271
269 268 267 266 266 265 265 265 265 264 264 263 263 265 265 264 262 262 262 261 261 262 261 261 262 262 262 262 263 264 265 266 269 271 270 269 268 268 268 269 269 270 271
266 265 265 265 265 265 264 264 264 263 262 262 262 263 264 262 262 262 262 262 262 263 262 261 263 263 262 262 262 263 265 266 269 271 270 268 268 268 268 269 269 270 271
265 265 264 264 264 263 263 262 262 262 262 262 261 261 261 261 262 262 262 262 262 262 262 263 263 264 265 265 265 263 265 266 269 270 269 268 268 268 268 268 269 270 272
264 264 263 262 262 261 261 261 261 261 260 260 260 260 260 261 261 261 261 261 261 262 262 263 264 264 265 265 267 266 266 266 271 269 268 268 268 268 268 268 268 269 270
263 262 262 261 261 261 260 259 259 260 260 259 259 259 260 260 261 261 261 260 261 261 261 262 264 265 265 266 267 267 268 268 271 269 267 267 267 267 268 268 268 269 270
262 262 261 261 260 260 259 259 259 259 259 259 259 259 260 260 260 260 260 260 260 261 261 261 263 265 265 266 266 268 268 270 271 269 267 267 267 267 267 267 267 268 268

GFSGL_925_thetae_003.txt.gz
Theta_e
293 292 291 291 290 290 290 289 289 289 287 286 285 284 283 283 283 282 281 280 279 278 278 277 277 276 276 275 275 275 275 276 277 277 278 277 276 275 275 275 276 276 278
292 291 291 290 289 289 289 288 289 288 286 285 284 283 283 283 282 281 279 278 278 277 276 275 275 274 273 273 272 272 272 273 274 274 274 274 274 273 273 274 274 275 276
292 291 289 289 289 288 287 287 287 287 285 283 283 282 282 282 280 279 278 277 277 276 274 273 273 272 272 271 271 271 271 272 272 272 272 272 272 273 273 273 274 275 276
291 290 288 288 288 287 286 286 286 285 284 282 282 282 281 280 279 278 278 277 275 274 273 273 272 272 271 271 271 271 271 271 271 272 272 272 273 273 274 274 274 275 276
290 288 288 286 286 285 284 285 285 284 282 282 281 280 280 279 278 278 277 275 274 273 273 272 272 272 272 273 273 273 273 273 273 274 274 274 275 276 276 276 276 276 277
289 287 286 285 284 283 283 284 283 282 281 280 279 279 278 278 278 277 275 275 274 273 273 273 272 272 272 273 274 275 275 276 276 276 276 277 276 276 276 276 277 277 278
288 286 285 282 281 280 282 282 280 279 279 278 277 277 277 277 277 276 276 275 274 273 273 272 272 273 273 273 274 274 275 274 275 276 276 276 276 276 276 276 276 277 277
287 285 282 281 279 279 280 279 278 277 277 277 276 276 276 276 276 275 276 275 274 273 273 273 273 273 274 274 274 275 275 275 275 275 275 275 275 276 276 276 276 276 277
285 283 281 280 278 277 277 276 276 275 275 275 276 275 275 275 275 275 275 274 274 273 273 273 273 273 274 275 276 276 275 275 275 275 275 276 277 277 278 278 279 278 278
285 283 280 279 278 276 276 275 275 275 274 274 274 275 275 274 274 274 275 274 274 274 273 274 274 274 274 275 277 276 274 273 273 275 274 273 273 273 274 275 277 279 279
284 282 279 278 277 276 275 274 273 273 273 273 273 273 273 274 272 274 275 274 274 274 274 274 273 273 275 276 276 275 272 274 274 270 269 271 271 272 273 275 278 278 278
282 279 277 276 275 274 273 272 272 272 271 271 271 270 272 272 272 274 274 275 275 276 274 273 273 274 274 274 273 272 273 272 269 269 269 270 271 271 272 273 274 276 278
279 276 275 274 274 273 272 271 270 270 270 270 270 271 271 271 272 273 274 274 275 274 274 273 272 271 271 270 269 270 270 268 268 269 269 270 271 271 271 272 272 274 275
276 274 272 272 271 271 270 270 270 270 270 271 271 272 271 271 271 272 273 273 273 273 272 271 269 269 268 268 267 267 267 267 268 268 269 269 270 271 271 271 272 274 275
275 272 271 270 270 269 270 270 270 271 272 272 272 272 271 270 271 273 273 273 273 272 271 269 268 266 265 266 266 266 266 267 267 268 268 268 270 270 271 271 271 273 273
274 271 271 270 269 269 269 270 271 271 273 273 272 273 271 272 273 274 274 274 272 270 267 265 264 264 264 264 265 265 266 266 267 267 268 269 270 270 271 271 270 271 271
275 272 270 269 269 270 270 271 272 274 274 274 273 272 271 273 273 273 273 270 269 267 265 264 263 263 263 263 264 264 265 265 266 266 267 268 270 271 270 270 269 270 270
274 271 270 270 270 270 271 272 272 273 273 273 273 273 272 273 273 272 270 267 265 264 264 264 263 263 262 262 262 263 264 264 265 266 266 268 271 271 270 269 269 269 269
274 271 270 270 270 270 271 271 272 271 271 270 271 271 271 272 272 271 265 265 264 264 264 264 263 263 262 262 262 262 263 263 264 265 267 268 271 270 269 269 269 269 269
273 271 270 270 270 269 270 269 269 269 268 268 269 266 268 270 267 264 263 263 263 263 264 264 264 263 263 262 262 262 262 263 264 265 267 269 270 269 269 269 269 269 269
272 270 270 270 269 270 269 269 268 267 267 266 266 266 266 266 264 263 263 263 263 264 264 263 263 264 263 262 262 262 262 263 264 266 266 270 269 269 268 268 268 269 269
270 270 269 269 268 268 268 268 267 266 266 265 265 267 266 264 263 263 262 262 262 262 263 263 264 264 263 263 263 262 262 262 264 266 266 269 268 268 268 268 268 268 269
268 268 268 267 267 266 266 266 265 265 264 264 265 265 262 262 262 262 261 261 261 262 263 263 264 265 265 265 265 265 264 264 264 265 269 268 268 268 268 268 268 268 268
267 267 266 266 266 265 265 264 263 263 262 262 263 262 261 261 261 261 261 261 261 262 262 262 263 265 265 265 265 266 267 268 268 267 269 268 267 267 267 267 268 268 268
265 265 265 264 264 263 263 262 261 261 261 262 261 261 261 261 261 261 260 260 261 261 262 262 263 265 265 265 266 266 268 268 268 270 269 268 267 267 267 267 267 267 267
263 263 263 262 262 262 261 260 260 260 260 260 261 261 261 261 261 260 260 261 261 262 262 262 263 264 265 265 266 267 268 268 270 269 269 267 267 266 266 267 267 267 267

GFSGL_925_thetae_006.txt.gz
Theta_e
295 294 293 292 292 291 291 290 290 290 290 289 288 286 285 285 284 283 283 282 282 282 281 281 280 279 278 277 276 275 275 275 275 277 277 275 275 274 274 274 274 274 274
295 293 293 292 291 291 290 290 290 289 289 289 287 286 285 284 283 283 282 281 282 281 280 279 278 277 276 275 274 274 273 273 273 273 274 274 274 273 273 273 273 274 274
294 293 292 291 290 290 289 290 289 288 288 287 287 286 284 283 283 282 281 281 281 280 280 278 277 275 275 274 273 273 272 272 272 272 273 273 273 273 273 274 274 275 275
294 293 291 290 290 289 289 288 288 288 288 287 286 285 284 283 282 280 280 280 280 279 278 277 276 275 274 274 273 272 272 272 272 272 272 273 273 274 275 275 276 277 277
293 291 290 290 289 288 287 287 287 287 287 286 285 284 283 282 281 280 279 279 279 277 276 276 275 274 274 273 273 273 273 273 272 273 273 274 276 276 277 276 276 276 276
291 290 290 289 288 287 286 285 285 285 284 284 283 283 281 280 280 279 279 278 277 277 276 275 274 274 274 274 275 276 276 276 275 275 276 277 276 276 277 277 276 276 276
291 290 289 288 286 285 284 283 283 283 283 281 280 280 279 279 278 278 277 278 277 276 275 274 273 273 273 273 274 275 276 276 276 276 277 277 276 276 276 276 276 276 276
290 288 287 286 284 282 282 282 281 281 281 279 278 278 279 279 278 279 278 277 277 276 275 274 273 273 274 274 274 274 274 275 275 275 276 276 276 276 276 277 278 278 278
288 288 286 285 283 281 280 280 280 279 278 277 277 277 277 277 279 280 279 277 275 274 274 274 274 274 274 275 275 276 276 276 276 276 275 275 276 276 275 274 274 274 274
288 287 285 283 282 280 280 279 278 278 277 276 275 276 276 277 278 279 278 276 275 274 274 274 274 274 275 276 276 276 276 275 274 274 274 273 271 270 271 272 272 272 273
287 286 284 283 281 280 279 278 277 276 275 275 275 274 275 276 277 279 279 275 274 274 274 274 274 275 275 276 277 276 275 275 275 272 271 269 269 269 270 271 271 272 272
287 285 282 281 280 279 278 276 275 275 274 273 273 272 273 274 276 277 278 276 275 274 274 274 274 274 275 275 275 273 274 274 271 269 267 268 269 269 270 270 271 271 271
284 281 279 278 277 277 275 274 273 273 274 272 272 272 271 272 273 276 277 278 276 275 275 274 274 273 273 272 271 271 271 269 268 267 267 268 269 269 269 269 270 271 271
282 279 278 276 275 275 274 273 273 273 273 273 273 273 272 271 272 275 276 277 276 275 274 273 272 271 270 269 269 269 268 267 267 267 267 268 268 268 269 269 271 271 271
280 278 276 275 274 273 274 273 274 273 274 274 274 273 273 272 272 273 274 275 275 274 272 271 269 268 268 267 267 267 267 267 266 267 267 267 267 268 268 269 270 272 271
279 276 275 274 273 273 273 272 274 274 275 275 275 274 273 273 273 274 274 274 274 273 270 269 267 266 265 265 265 266 266 266 266 266 266 266 267 267 268 268 271 271 271
280 278 275 274 272 272 272 272 272 275 274 276 276 275 273 274 275 276 276 276 274 270 269 267 266 265 264 264 264 264 264 265 265 264 265 266 266 266 267 269 271 270 270
280 279 275 274 272 272 272 272 273 273 275 276 276 275 275 276 277 277 275 274 270 266 267 266 265 265 264 263 263 264 264 264 263 263 264 264 265 267 267 270 270 270 269
279 278 275 273 272 272 272 272 273 274 275 275 275 275 276 277 277 275 271 269 267 265 266 265 265 264 264 263 263 264 263 264 263 262 263 264 266 266 268 269 269 269 269
279 277 273 272 271 271 272 273 274 274 274 274 274 275 275 275 272 269 267 266 266 265 265 265 264 265 264 264 264 264 264 265 263 262 263 264 266 266 269 269 269 269 269
277 275 272 271 271 271 272 273 273 273 273 273 272 271 272 270 265 266 264 265 265 264 264 265 265 265 264 264 264 264 264 264 264 262 263 264 265 268 268 268 268 268 269
274 271 271 271 271 271 271 272 271 271 271 268 269 272 271 269 267 265 264 264 264 264 265 265 265 265 264 264 264 264 263 265 264 263 263 264 265 268 268 267 267 268 268
271 270 270 270 270 270 270 269 269 269 268 267 269 270 265 265 264 263 263 263 264 264 264 264 264 265 264 264 265 264 264 266 266 265 263 264 267 268 267 267 267 267 268
269 268 268 269 269 269 269 268 267 267 267 267 266 264 263 263 263 263 263 263 263 263 263 263 263 263 264 265 265 266 266 267 267 268 267 266 267 267 267 266 266 267 267
266 266 267 267 267 266 266 265 265 266 265 264 262 261 262 262 262 262 262 262 262 263 263 262 262 263 263 264 265 266 266 267 268 268 268 268 268 267 266 266 266 266 267
264 264 264 264 264 264 264 263 263 263 262 261 261 261 261 261 262 261 261 262 262 262 262 262 262 262 262 264 265 266 267 268 268 268 269 268 267 266 265 265 265 266 266

GFSGL_925_thetae_009.txt.gz
Theta_e
296 294 294 294 294 293 293 292 292 292 291 290 290 289 288 287 286 286 286 285 283 283 282 282 282 281 281 280 279 278 277 276 276 276 277 277 276 276 276 275 275 275 276
296 294 295 293 292 291 292 292 292 291 291 291 290 289 288 287 286 286 285 284 283 282 282 281 281 280 280 279 278 277 276 275 274 274 275 275 275 274 275 275 275 276 276
294 294 293 292 292 292 291 291 290 290 290 289 289 288 287 287 286 285 285 284 283 282 282 281 281 280 279 278 277 275 275 275 274 273 273 274 274 275 275 276 276 277 277
295 293 292 291 292 292 290 290 289 289 289 288 288 288 287 286 286 285 284 283 282 281 281 280 280 279 279 277 276 275 274 273 274 273 273 274 275 276 277 277 276 277 277
295 293 292 292 291 290 290 289 288 288 287 288 287 285 284 285 285 284 283 282 281 280 279 279 278 278 277 277 276 275 274 274 274 273 274 275 277 277 276 277 277 276 276
294 293 293 291 290 290 289 287 287 286 285 285 284 284 283 283 283 283 282 281 280 279 278 277 277 276 276 276 276 276 276 276 275 274 275 277 276 277 276 276 276 276 277
292 293 292 291 290 288 288 286 285 284 283 283 283 282 281 281 281 281 280 281 280 278 278 277 276 276 276 275 276 277 277 277 278 277 277 277 276 276 276 276 276 277 277
291 291 291 290 288 287 286 285 284 283 283 282 282 281 280 280 281 282 279 279 278 278 277 277 276 275 275 274 274 274 275 275 275 275 276 276 276 277 277 277 276 274 273
289 288 289 288 287 285 284 283 283 282 281 281 280 280 279 278 281 282 280 277 276 276 276 276 275 275 275 275 275 275 275 275 276 277 277 277 277 277 276 274 272 271 272
287 289 288 287 286 284 283 282 282 281 281 280 279 279 279 278 281 282 280 277 276 275 275 275 275 275 275 276 276 276 276 276 276 275 275 275 274 273 272 272 271 270 270
290 286 287 286 285 283 282 281 281 280 279 279 278 277 277 277 280 282 281 277 276 275 275 274 274 276 276 277 277 277 276 276 276 275 274 273 272 271 271 270 270 270 271
289 288 283 283 283 282 281 280 279 278 277 276 276 275 275 276 279 282 282 278 277 275 275 274 274 276 277 276 277 276 276 275 274 273 270 270 269 269 269 270 270 270 270
288 286 285 281 281 280 279 277 276 276 276 275 274 275 273 274 277 282 282 279 277 274 275 275 275 276 276 276 275 273 273 272 270 269 268 268 268 269 269 269 269 269 269
282 285 283 281 279 278 278 277 276 275 276 275 275 275 274 273 274 279 281 281 277 275 275 276 275 274 273 271 271 270 270 269 268 268 267 267 268 268 268 268 268 269 269
277 282 282 279 278 277 276 276 276 276 277 276 276 275 274 273 273 277 279 279 278 276 275 273 272 271 270 269 269 269 269 268 267 267 266 266 266 267 267 267 268 268 268
274 276 281 279 277 276 276 275 277 277 276 278 277 276 275 276 275 277 278 279 276 274 273 271 269 269 269 268 268 267 267 267 267 266 266 266 266 266 266 266 266 268 268
271 273 277 279 278 275 275 275 275 276 278 278 278 278 276 276 276 278 279 278 277 273 271 270 268 267 267 267 267 266 266 266 265 265 265 266 265 265 265 265 266 267 268
270 272 274 279 277 276 275 275 275 275 277 276 278 278 278 277 277 278 278 278 277 270 271 269 267 268 267 266 266 266 266 265 265 264 265 265 264 263 264 265 266 266 268
270 272 274 277 278 276 275 274 274 275 276 276 277 279 277 277 278 278 278 276 270 268 269 268 268 267 266 266 266 265 265 265 265 263 265 265 264 263 264 265 266 267 268
269 271 273 275 276 274 273 273 273 274 275 276 277 277 276 278 279 279 273 270 268 269 268 267 266 266 266 266 265 265 265 265 265 263 264 264 264 263 264 265 266 267 267
267 271 274 277 274 273 273 273 273 274 275 276 276 276 277 278 277 268 269 269 270 268 267 266 266 266 265 265 265 264 265 265 264 264 264 264 264 263 264 264 267 267 267
270 272 275 273 272 272 272 273 274 274 275 275 275 277 278 270 269 267 267 268 269 267 267 266 266 265 265 265 265 265 265 265 265 264 264 264 264 264 264 266 267 267 266
271 271 271 271 271 271 272 273 273 274 273 273 274 275 269 267 265 266 266 266 265 265 265 266 265 265 265 264 264 264 265 265 265 264 264 265 265 265 265 267 267 266 265
269 269 270 270 270 271 270 270 271 269 270 272 269 266 265 265 265 265 265 264 264 264 265 264 264 264 264 264 264 264 265 265 265 266 266 266 267 265 266 266 266 265 265
267 267 268 268 268 268 268 268 268 268 268 265 264 264 264 264 265 264 264 263 263 263 263 263 263 263 263 264 264 265 265 266 266 267 267 267 267 267 266 266 265 264 264
264 265 265 265 265 266 266 266 266 265 264 263 263 263 263 264 264 263 263 262 262 262 263 263 263 263 263 264 264 265 266 266 267 267 267 268 267 267 266 265 264 264 264

GFSGL_925_thetae_015.txt.gz
Theta_e
292 293 293 293 293 293 294 294 294 294 294 293 293 292 290 290 290 289 288 288 288 288 288 288 287 287 286 286 285 285 285 284 285 280 281 280 279 279 279 279 280 280 281
291 292 292 292 292 292 292 293 293 293 293 292 292 291 290 289 289 289 287 287 287 287 287 286 286 286 285 285 284 284 284 283 283 282 279 278 279 280 280 280 280 280 282
289 290 291 292 291 290 290 291 291 291 291 292 291 290 289 289 287 287 287 287 286 286 286 286 285 285 284 283 283 283 282 282 281 280 279 278 279 280 280 281 281 281 283
288 289 289 290 291 291 291 290 290 290 289 289 290 290 289 289 288 286 286 285 286 286 286 286 285 285 284 283 282 282 281 279 279 277 276 276 277 278 278 278 278 278 279
288 288 288 288 288 288 291 289 289 289 289 288 288 288 288 288 287 286 285 285 284 284 284 284 284 284 285 285 283 281 280 278 276 276 276 276 277 277 278 278 278 278 278
286 287 287 287 286 286 287 290 289 288 288 288 287 287 286 286 286 286 286 284 284 283 282 282 282 283 283 284 283 283 283 279 276 276 276 277 278 278 278 277 277 278 279
284 285 286 286 284 284 285 286 289 287 287 286 286 286 286 285 285 285 285 284 283 283 282 281 280 281 282 281 281 281 280 279 280 279 277 278 278 278 277 277 278 278 278
282 282 282 281 281 283 284 284 285 285 285 285 285 285 285 285 285 286 285 284 283 283 282 281 281 280 281 281 280 279 279 278 277 277 278 279 279 277 277 278 277 276 274
281 280 279 279 279 283 283 283 283 284 284 284 284 284 284 284 285 285 286 285 282 282 281 280 280 280 280 280 280 279 278 277 277 278 279 278 277 278 278 277 276 273 273
279 278 277 277 278 279 279 281 281 282 283 283 283 283 284 284 284 285 286 286 283 282 280 279 279 279 279 280 279 279 279 279 278 279 278 278 279 278 277 275 274 272 272
277 276 275 275 275 276 276 278 280 281 281 282 282 282 282 283 283 284 285 286 283 281 280 278 278 279 279 281 279 278 278 278 277 277 277 278 277 275 274 273 273 272 271
275 273 273 273 272 273 274 275 278 280 280 281 281 281 280 281 282 282 284 286 283 281 279 278 278 280 280 281 280 277 277 276 276 276 276 275 273 273 272 272 271 271 271
272 271 271 270 270 271 272 273 276 279 279 280 280 279 280 279 279 281 283 285 284 280 279 279 278 280 280 282 281 277 277 277 276 275 274 273 272 272 271 270 270 270 270
270 269 269 269 269 269 270 272 274 278 279 279 280 280 279 278 277 278 281 283 286 282 279 278 278 280 281 281 281 280 278 278 276 275 273 272 270 270 269 269 269 269 268
268 267 267 267 267 268 269 271 273 275 278 279 279 279 279 278 278 278 279 281 284 280 278 278 278 280 280 279 279 275 276 275 275 274 271 270 269 269 269 269 268 268 267
265 265 265 265 266 266 267 269 270 273 276 280 280 281 279 279 280 279 280 282 283 279 277 278 279 280 277 277 275 273 274 275 272 271 270 269 269 268 268 268 267 267 267
263 263 263 264 264 265 266 268 269 270 273 278 280 281 282 282 280 280 280 281 284 280 277 278 278 278 276 275 274 272 271 270 271 269 268 268 267 267 266 267 266 266 266
262 262 262 263 263 265 266 267 268 270 272 276 277 279 281 282 282 280 280 282 284 281 278 278 277 276 273 272 272 271 270 269 268 268 267 267 267 267 266 266 265 265 265
262 262 262 263 263 264 265 266 267 268 271 273 276 277 278 282 282 281 281 282 283 280 277 276 274 273 272 272 271 269 269 268 267 267 267 267 266 266 266 266 265 265 264
262 263 263 264 264 265 265 266 267 269 271 274 276 276 277 279 281 281 281 280 282 280 274 274 273 272 271 270 269 268 267 267 266 266 266 266 266 266 266 266 265 264 264
263 263 264 264 264 264 265 266 268 270 273 275 275 275 277 279 280 279 280 280 276 273 273 271 271 269 268 268 268 268 267 266 266 266 266 266 266 266 266 265 265 265 264
263 264 265 266 267 267 268 269 270 272 274 274 274 275 277 279 279 278 275 272 271 270 272 272 269 268 269 269 269 268 267 266 266 266 266 266 266 266 266 266 265 264 264
264 264 265 267 268 270 271 272 272 273 273 273 274 274 274 270 269 268 267 268 269 269 270 270 270 268 268 269 268 267 267 267 266 266 266 266 266 266 266 265 265 264 264
263 264 265 266 267 268 269 269 269 270 269 268 267 267 266 265 265 265 265 266 268 268 269 269 268 268 267 266 266 266 266 266 266 266 266 266 266 266 266 265 265 265 264
262 263 264 264 265 266 266 266 265 265 265 265 264 264 263 263 263 263 264 265 266 267 267 267 267 266 266 266 265 265 265 265 265 265 265 266 266 266 266 266 266 265 264
261 261 262 262 263 263 263 264 263 263 263 263 263 262 262 262 262 262 263 265 265 265 266 265 264 265 264 264 264 264 264 265 265 265 265 266 266 266 266 266 266 265 265

GFSGL_925_thetae_018.txt.gz
Theta_e
290 291 292 292 292 292 292 292 292 292 292 292 292 292 292 291 290 290 290 290 290 290 289 289 289 289 289 289 289 289 288 290 294 286 286 285 284 282 281 281 282 282 282
289 290 290 290 290 290 291 291 291 291 291 290 290 291 291 290 290 289 290 289 289 289 289 288 289 288 288 288 288 288 287 287 289 286 283 282 282 281 280 281 282 282 281
287 288 289 288 288 288 287 289 290 289 290 290 290 289 289 289 289 289 289 289 288 288 288 288 288 287 287 287 287 286 286 286 286 287 283 281 280 280 279 280 280 281 280
286 287 287 287 287 286 285 286 287 288 288 288 288 289 289 288 288 288 288 288 288 287 288 287 287 287 287 286 286 286 286 285 284 284 284 280 280 279 280 281 281 281 281
284 285 286 286 285 284 284 284 284 285 287 287 287 287 287 287 287 287 287 287 287 286 286 286 286 286 286 287 286 285 285 284 283 283 282 281 280 280 280 281 282 282 282
283 283 283 284 283 281 281 283 283 284 284 286 287 286 286 286 286 287 286 286 286 286 286 286 285 285 285 285 285 285 285 284 283 283 282 281 281 281 281 281 281 281 284
282 282 281 281 280 280 280 283 282 283 283 284 284 286 286 286 286 287 286 286 286 286 286 285 284 284 284 284 285 285 284 284 284 283 283 281 281 281 281 281 280 281 282
281 281 281 280 279 278 279 281 280 281 282 283 283 284 286 286 286 286 287 287 286 286 286 285 284 284 282 283 284 284 283 282 282 282 282 282 281 281 280 281 280 280 280
281 281 280 279 277 277 277 278 278 279 280 281 282 283 284 285 286 286 286 286 287 286 285 285 285 284 282 283 283 283 282 281 281 280 279 280 280 280 279 279 279 279 278
280 279 279 277 276 275 275 275 276 276 278 279 281 282 283 284 285 285 286 286 287 287 286 284 284 283 283 283 283 283 283 281 280 279 278 280 280 279 279 279 278 278 277
279 278 277 276 275 274 274 274 274 274 275 277 279 280 281 282 283 284 285 285 286 287 287 285 283 283 283 282 283 283 283 281 280 279 279 279 279 279 280 279 277 276 276
276 275 275 274 273 272 272 272 272 273 274 276 277 280 281 282 283 283 284 285 285 286 287 285 283 282 282 282 283 282 282 281 280 280 280 279 278 277 277 276 274 274 274
273 272 272 271 271 270 270 270 271 272 273 275 277 280 281 281 282 282 283 284 285 286 286 285 283 281 282 283 283 283 282 280 280 280 280 278 277 276 275 273 273 272 272
270 269 269 269 269 268 268 269 270 271 272 274 276 279 280 281 281 281 280 281 283 284 285 284 283 281 281 282 282 284 282 279 279 278 278 276 275 274 273 272 272 271 271
266 266 266 266 266 266 266 267 268 269 270 272 273 275 278 279 280 281 280 280 281 283 284 282 281 281 281 282 282 282 280 277 277 277 276 274 273 272 272 271 271 271 271
263 263 264 264 264 264 265 265 266 267 269 271 272 274 276 277 280 281 281 282 281 282 282 281 281 280 281 282 283 280 278 276 276 275 274 273 272 271 271 270 270 270 270
262 263 263 263 263 264 264 264 265 265 267 269 271 273 275 276 279 282 283 282 282 283 282 281 281 281 282 282 282 277 276 276 274 274 273 272 271 271 271 270 270 270 269
262 262 263 263 263 263 263 264 264 265 266 267 268 270 273 277 280 282 283 283 282 282 283 281 281 281 281 280 278 276 275 273 273 272 271 271 270 270 269 269 269 269 269
262 263 263 263 263 263 264 264 265 265 266 267 267 269 271 275 278 280 281 283 282 282 283 280 280 280 279 278 275 274 273 272 272 271 270 269 269 268 268 268 268 267 267
263 264 264 264 264 264 265 265 266 266 267 267 269 270 272 276 277 278 282 283 282 282 282 280 279 276 276 275 274 272 271 270 269 268 267 267 267 267 267 267 267 267 267
263 264 264 264 265 265 266 266 266 267 267 268 270 271 275 277 277 278 281 282 282 282 278 276 275 275 273 272 270 270 269 268 267 267 267 267 267 266 266 266 266 266 266
264 264 264 265 266 267 268 269 270 270 269 270 271 275 275 276 277 278 277 275 275 275 274 273 273 272 271 270 269 268 267 266 267 267 266 267 266 266 265 265 265 266 266
263 263 264 265 266 267 269 269 270 271 273 273 272 272 271 270 270 269 269 269 270 271 271 271 270 268 268 268 268 268 267 267 268 268 267 267 266 265 265 265 265 264 265
262 263 264 265 265 265 266 266 267 267 267 267 266 266 266 265 265 265 265 266 267 267 267 267 268 269 267 267 268 269 270 269 269 268 268 267 266 265 265 265 265 265 265
261 262 263 263 263 264 264 265 265 265 265 265 265 264 264 263 263 263 263 264 264 265 265 266 266 267 268 268 268 268 267 267 267 267 266 266 266 266 266 265 265 265 265
260 260 261 262 262 263 263 263 263 263 263 263 263 263 263 263 262 262 262 263 263 264 266 266 266 267 267 266 266 266 267 267 266 266 266 266 266 266 265 266 266 265 265

GFSGL_925_thetae_021.txt.gz
Theta_e
289 290 290 290 290 289 288 290 290 291 291 292 292 292 293 293 294 294 293 294 293 293 293 293 293 293 293 293 293 293 293 295 298 290 290 288 288 286 285 285 283 284 284
287 288 288 288 287 287 287 286 286 287 290 291 290 290 291 291 292 292 292 292 292 292 292 292 292 292 292 292 291 291 291 292 295 288 288 287 287 286 284 284 283 282 283
286 287 287 287 286 284 283 284 285 285 285 286 290 290 290 290 290 291 291 291 291 291 291 291 291 291 291 291 290 290 290 290 291 289 286 286 285 285 283 282 281 281 281
285 285 286 285 285 284 283 283 283 283 284 284 285 285 288 289 289 289 289 290 290 290 290 290 290 290 290 290 290 290 289 289 288 289 285 284 283 282 282 281 281 281 282
285 284 284 284 283 282 282 282 282 283 283 283 283 284 285 287 288 288 288 288 288 288 289 289 289 289 289 289 290 289 288 288 287 287 286 283 282 281 281 281 282 282 282
284 284 283 282 282 282 281 280 281 282 282 282 283 283 284 285 286 287 287 287 287 287 287 288 287 288 288 288 288 289 288 288 287 287 286 285 283 282 281 282 282 284 283
284 283 283 282 282 281 280 280 280 280 281 281 282 283 283 284 285 286 287 287 287 287 287 287 287 287 286 286 287 288 288 288 289 288 287 286 284 282 282 282 282 283 284
284 283 283 282 281 281 279 278 278 279 279 279 280 281 282 283 284 285 286 287 287 287 287 287 286 286 286 285 285 287 287 287 288 288 287 287 285 283 283 283 282 283 282
283 282 282 281 281 280 278 277 277 277 277 278 278 279 280 281 282 284 285 286 287 287 287 287 287 286 286 285 284 285 286 286 286 287 286 286 285 284 284 282 282 282 282
281 280 280 280 279 278 277 277 276 276 276 276 276 277 278 279 280 282 283 285 286 286 287 287 287 286 286 286 285 285 285 286 285 285 284 284 283 283 283 282 282 282 281
278 278 277 277 277 276 276 275 275 274 274 274 274 275 276 277 279 281 282 284 285 286 286 287 287 287 286 286 286 284 285 285 285 283 283 282 282 282 282 281 281 281 280
274 273 273 273 273 273 272 272 272 272 272 272 273 274 275 276 278 280 282 283 284 285 286 286 287 287 287 286 286 285 285 285 284 283 281 281 281 281 280 280 280 280 279
269 268 268 268 268 268 269 269 270 270 271 271 272 273 274 275 277 279 281 282 283 284 285 286 286 287 287 286 285 285 285 285 283 282 280 281 281 280 280 279 278 278 277
265 265 265 265 265 265 266 266 267 268 268 269 270 271 272 274 275 278 281 282 282 282 282 284 285 286 287 285 284 285 285 285 283 282 281 281 281 279 277 276 275 274 274
264 264 264 264 264 264 264 265 265 265 266 267 268 269 270 271 272 274 276 280 281 281 281 282 284 285 286 284 283 283 284 284 283 281 282 281 278 276 275 275 274 273 273
263 263 264 264 264 264 264 264 265 266 267 267 268 269 270 271 272 274 275 277 278 280 283 282 283 284 284 282 283 283 283 284 282 281 281 278 276 276 274 274 273 273 273
262 262 263 263 263 264 264 264 265 265 265 266 267 268 269 270 272 273 275 276 278 280 283 283 283 283 283 282 283 283 283 281 280 279 277 276 275 274 273 273 273 272 272
262 262 263 263 264 264 264 265 265 265 265 265 266 267 268 269 271 272 274 276 279 280 284 283 283 282 282 282 282 283 281 278 277 276 275 275 274 273 273 272 272 272 271
262 262 263 264 265 265 265 265 265 266 266 266 267 267 268 269 271 273 275 276 280 282 283 283 282 282 282 282 281 279 278 277 276 275 275 274 273 273 272 272 271 271 271
262 263 263 264 265 265 266 266 266 267 267 267 267 268 268 269 271 274 277 278 278 279 282 282 282 282 281 279 278 277 275 275 274 274 273 272 271 271 270 270 269 269 269
263 264 264 264 265 265 266 267 268 269 270 270 269 269 271 273 275 276 277 278 279 283 282 282 280 279 278 278 275 274 274 273 272 270 270 269 270 269 269 269 269 268 268
262 263 263 264 265 266 266 267 268 268 269 269 270 271 272 272 273 273 274 274 277 279 279 278 277 277 276 275 273 272 271 270 269 268 268 268 268 268 268 268 267 267 267
262 262 263 264 265 265 266 266 266 267 267 267 267 267 267 267 267 267 267 268 270 272 273 273 272 271 272 271 271 270 269 268 268 269 268 267 267 267 267 267 267 267 267
261 261 262 263 263 264 265 265 265 265 265 265 265 265 265 265 265 265 265 266 266 267 268 268 269 269 269 270 270 269 269 269 269 269 269 268 267 267 267 266 266 266 266
260 261 261 262 262 263 263 264 264 264 264 264 264 264 264 264 263 263 263 264 264 265 265 266 266 267 267 267 268 267 267 268 268 269 269 268 267 267 266 266 266 266 266
260 261 260 260 261 261 262 262 263 263 263 263 263 263 263 263 263 262 262 263 263 263 263 264 265 266 266 267 267 268 269 269 269 269 268 268 267 266 266 266 266 266 266

GFSGL_925_thetae_024.txt.gz
Theta_e
286 287 287 286 285 284 284 284 284 285 285 286 289 291 291 291 292 293 294 294 295 295 295 294 294 295 295 295 295 296 296 296 292 290 291 290 290 289 289 289 287 285 285
285 286 286 285 285 285 284 283 284 284 284 284 284 285 287 290 290 290 291 292 293 293 293 293 293 293 294 294 294 294 294 295 296 288 290 289 290 289 289 288 286 285 284
286 285 285 284 284 284 283 283 283 283 284 284 284 284 284 284 286 289 289 290 291 291 292 292 292 292 292 292 293 293 293 293 293 292 288 289 288 288 287 286 286 284 283
286 285 285 284 283 283 282 282 282 282 282 283 283 283 283 283 284 284 285 288 289 289 290 290 291 291 291 291 291 291 291 291 291 291 289 288 288 286 286 283 282 283 282
286 285 284 284 284 283 283 282 282 281 281 281 281 282 282 282 283 284 285 286 287 288 288 288 289 289 290 290 290 290 289 289 290 289 288 285 285 284 284 283 282 282 282
286 285 285 284 284 283 282 282 281 281 280 280 280 280 280 281 282 284 285 286 286 287 287 287 287 287 288 289 290 290 290 289 290 289 289 286 285 284 284 283 283 282 282
286 285 284 283 283 282 282 281 281 279 279 279 279 279 279 280 281 283 284 285 285 286 286 286 287 287 287 287 287 288 289 290 289 289 289 288 286 284 283 282 283 284 285
284 283 283 283 282 282 281 281 280 279 278 278 278 278 278 278 280 281 282 283 284 285 285 286 286 287 287 286 286 286 287 288 289 290 289 289 288 285 285 286 285 284 284
282 281 281 280 280 279 279 279 279 278 277 277 276 276 276 277 277 278 280 281 282 283 284 285 285 286 286 287 287 286 286 286 287 288 289 289 288 287 284 284 283 282 280
279 278 277 277 276 276 276 276 276 276 276 275 275 275 274 274 275 276 277 278 280 282 283 283 285 285 286 287 287 287 286 286 286 286 287 288 289 287 285 284 284 284 283
275 273 272 271 271 271 271 271 271 271 272 272 272 272 272 272 272 273 275 277 278 280 281 282 283 285 286 287 287 287 287 286 285 286 286 286 287 287 284 284 285 285 284
270 269 268 267 266 266 267 267 267 267 268 268 269 269 270 271 271 272 274 275 277 279 281 282 283 284 285 286 287 288 288 287 285 285 285 285 285 285 284 284 283 283 284
267 266 265 264 264 264 264 264 265 265 265 266 267 267 268 268 269 270 272 273 275 277 279 282 283 284 285 285 286 287 288 288 286 285 285 285 284 284 283 282 282 282 282
265 264 264 264 263 264 264 264 264 264 264 265 265 265 265 266 266 267 268 269 270 274 278 281 282 283 283 284 285 287 288 287 286 285 285 284 283 282 282 281 280 279 278
263 263 263 263 263 263 263 264 264 265 265 266 267 268 268 269 269 269 270 271 271 272 274 278 280 280 281 282 284 286 287 286 286 285 284 283 282 281 281 280 279 278 278
263 263 263 262 262 262 263 263 264 265 266 267 268 269 269 270 270 271 271 272 273 273 275 276 277 279 280 282 283 285 284 285 285 285 283 282 281 281 279 278 277 277 277
263 263 262 262 262 262 263 263 264 264 265 266 267 268 269 270 270 271 271 272 273 274 275 276 277 278 280 281 283 283 283 283 284 284 282 282 280 278 277 276 275 276 275
262 262 262 262 262 262 263 264 264 265 265 265 266 267 269 270 271 271 272 273 273 273 274 275 276 277 279 282 282 282 282 283 283 283 282 279 278 277 276 275 275 275 275
262 262 262 262 263 263 264 265 265 266 266 266 267 268 269 269 271 271 273 273 274 274 274 275 276 278 279 282 282 282 282 281 281 280 278 277 277 276 275 275 274 274 274
261 261 263 263 263 263 264 265 265 266 267 268 268 268 269 271 270 270 272 273 275 276 277 277 278 282 282 282 281 281 280 279 278 278 277 276 275 275 274 273 273 272 272
262 262 261 262 262 263 264 265 265 266 266 266 267 267 269 268 268 268 269 269 269 270 277 278 279 282 282 281 280 279 278 277 276 275 274 274 273 273 272 272 272 271 270
261 261 261 261 262 263 263 264 264 265 265 265 265 265 266 265 265 266 266 267 267 268 270 276 277 278 278 278 277 276 275 274 273 272 272 272 271 271 270 270 270 269 270
261 261 260 261 261 261 262 263 263 264 263 264 264 264 264 264 264 264 264 265 265 267 269 271 271 272 273 274 274 273 272 271 271 271 270 270 270 269 269 269 269 268 268
261 261 260 260 260 261 261 262 262 263 263 263 263 263 263 263 263 263 263 263 263 264 266 267 269 270 271 271 272 272 271 271 270 270 270 269 269 268 268 268 268 267 267
260 260 260 260 260 260 260 260 261 262 262 263 263 263 263 263 262 262 262 262 262 262 263 264 265 266 267 268 269 269 268 269 269 268 268 268 268 267 267 267 267 267 267
260 260 259 259 259 260 260 260 260 260 261 261 261 261 261 261 261 262 262 263 263 263 263 264 264 264 265 265 266 266 267 267 268 268 268 268 268 267 267 267 267 267 267

GFSGL_925_thetae_027.txt.gz
Theta_e
285 286 285 285 285 284 284 284 284 284 284 284 284 284 284 284 285 288 291 291 291 292 293 294 295 295 295 295 295 295 295 295 294 296 293 293 292 291 290 290 290 290 290
286 285 285 285 284 284 284 284 284 284 284 284 284 284 283 284 284 284 284 286 289 290 291 291 292 293 293 293 293 293 293 294 294 293 293 292 290 291 291 290 290 290 290
286 286 285 284 284 284 284 283 283 283 283 283 283 283 284 284 283 283 284 284 284 286 288 289 290 290 291 291 291 291 291 292 293 293 292 291 290 290 289 289 289 289 289
287 286 286 285 284 284 283 283 282 282 281 281 281 281 281 282 283 283 283 283 284 284 285 286 287 288 289 289 290 290 290 291 291 290 291 289 289 288 288 286 284 287 288
287 287 286 285 284 283 283 282 282 281 281 281 280 280 280 280 281 281 282 283 283 284 284 284 285 285 286 288 288 289 289 289 290 289 290 287 287 287 286 285 285 284 284
287 287 286 284 283 282 282 282 281 281 280 279 279 279 278 279 279 280 282 282 283 283 284 284 284 284 285 285 287 288 289 289 289 290 290 289 288 287 286 285 284 283 282
285 284 283 282 282 281 281 281 280 279 279 278 278 278 277 277 278 279 280 280 281 282 283 283 284 284 284 285 285 286 287 289 290 289 289 290 289 287 286 285 284 285 286
282 281 280 280 280 279 278 277 277 276 277 277 277 277 277 276 277 277 278 278 279 279 280 281 283 283 284 284 285 285 286 286 288 289 290 289 290 289 287 287 286 286 286
278 278 278 277 275 273 273 272 272 273 273 274 274 274 275 275 275 275 276 276 276 276 277 278 279 281 282 284 285 286 285 285 286 287 288 289 290 289 288 285 285 284 284
276 275 273 271 270 270 269 268 268 268 269 269 270 270 270 270 271 272 273 273 274 274 275 276 277 279 281 282 284 285 286 286 285 286 286 287 288 289 289 286 285 284 285
272 270 269 268 267 266 266 266 266 265 266 266 266 266 267 267 268 269 271 272 273 274 274 275 276 277 279 281 283 285 285 285 286 286 285 286 287 287 288 289 285 286 286
268 267 266 266 265 265 264 264 264 264 264 264 264 265 265 266 266 267 269 270 271 272 272 274 275 276 278 280 282 283 285 287 287 286 285 286 286 286 287 287 286 285 285
266 265 265 265 264 264 263 263 263 263 264 264 264 264 265 265 265 266 268 268 269 269 270 270 272 274 277 278 281 283 285 285 286 287 287 285 286 286 286 287 286 285 284
265 265 264 264 263 263 263 263 263 263 263 264 264 265 265 266 267 267 267 267 268 269 269 270 270 272 274 276 279 282 285 285 285 286 287 286 285 285 285 285 285 284 282
264 264 263 263 263 263 262 262 263 264 264 266 267 268 269 269 269 270 272 273 273 273 272 270 270 273 274 275 278 281 282 283 283 284 287 286 285 284 284 283 283 280 282
263 263 263 263 263 262 262 262 263 265 266 267 268 269 270 270 271 272 272 273 274 274 274 273 273 273 273 274 276 279 280 281 282 284 285 286 285 283 283 282 282 281 281
263 262 262 262 262 262 262 262 263 263 265 266 267 268 269 270 271 272 273 274 274 275 274 273 273 273 273 274 276 277 280 281 283 284 285 285 284 283 282 282 281 280 280
263 263 262 262 262 262 262 263 263 264 264 265 266 267 269 269 270 272 273 274 274 273 273 273 272 272 273 274 275 277 278 281 282 283 284 285 283 282 282 280 279 279 279
262 262 262 261 262 262 262 262 263 264 265 265 265 266 266 267 269 269 269 269 270 271 272 273 273 272 273 273 275 276 277 281 281 282 283 283 282 281 280 279 278 278 278
262 262 261 261 261 261 261 262 263 263 264 264 264 264 264 268 265 265 265 266 267 267 268 268 269 274 274 276 276 277 278 280 281 282 282 281 280 279 278 278 277 277 276
262 261 261 260 260 260 261 261 262 263 263 263 263 263 267 265 264 264 264 264 265 265 266 267 270 275 276 277 280 280 280 280 280 280 279 278 278 277 277 276 275 275 274
261 261 261 260 260 260 260 261 261 262 263 263 263 263 265 263 263 263 263 263 263 264 264 265 267 269 271 274 276 278 279 278 277 277 276 275 275 274 274 273 273 273 272
261 261 261 261 260 260 260 261 261 261 262 262 262 262 263 262 262 262 262 262 262 262 264 265 265 267 269 271 273 274 273 273 273 274 273 273 272 272 272 271 271 271 271
261 260 260 260 260 260 260 260 260 260 260 261 261 261 261 261 262 262 262 262 262 262 263 264 265 266 267 269 270 270 271 271 272 272 272 271 271 270 270 270 270 270 269
260 260 260 260 259 259 259 260 260 260 260 260 260 260 260 260 261 261 262 262 262 263 263 264 265 265 266 267 267 268 269 270 270 270 270 270 269 269 269 268 268 268 268
260 260 260 259 259 259 259 259 259 259 259 259 259 259 260 260 260 261 261 262 262 263 264 264 265 266 267 267 267 267 267 268 268 268 268 268 268 267 267 267 267 267 267

GFSGL_925_thetae_030.txt.gz
Theta_e
286 286 286 286 286 286 285 285 285 285 284 284 284 283 284 284 284 284 284 284 284 284 285 287 290 291 292 293 293 293 293 293 292 294 294 295 294 293 293 293 291 291 290
286 286 286 286 285 285 285 285 285 284 284 283 283 283 283 283 283 283 283 283 284 284 284 284 285 286 289 290 291 291 291 291 291 292 293 294 294 294 293 293 292 291 290
286 286 286 286 285 285 284 284 283 283 282 282 282 282 282 282 282 282 282 281 281 282 283 284 284 284 285 286 288 289 289 290 290 290 291 292 293 291 290 290 290 290 290
287 287 287 286 285 284 283 282 282 281 281 281 280 280 280 280 280 280 280 280 281 282 282 283 283 283 284 284 285 286 288 288 289 289 289 290 291 290 289 288 287 288 289
287 287 286 285 284 283 282 281 280 280 279 279 279 279 278 278 278 278 279 280 280 281 281 282 282 283 283 284 285 285 286 287 288 288 289 289 287 287 287 287 287 287 287
287 286 285 285 284 282 280 279 279 278 277 277 277 277 277 277 278 278 279 279 279 279 279 280 281 281 282 283 284 286 287 287 287 288 289 289 289 287 288 288 286 286 286
285 284 284 282 279 278 278 277 275 274 274 274 274 274 275 275 276 277 278 278 278 278 278 278 279 280 280 281 282 284 285 286 287 288 288 288 289 289 287 286 286 287 288
282 281 279 278 276 275 274 273 272 271 271 271 271 271 271 272 273 273 274 274 275 275 276 276 276 277 277 279 280 282 283 283 284 285 287 288 289 289 289 288 287 287 287
278 276 275 274 273 272 271 270 269 268 268 268 268 268 268 268 268 270 271 271 271 272 272 273 273 274 275 276 278 279 280 282 283 284 285 285 286 288 290 288 286 286 286
275 273 272 271 270 269 268 267 267 266 266 266 266 266 265 265 266 268 269 270 270 271 271 272 272 274 275 276 277 278 279 280 282 283 284 285 286 287 288 290 287 286 286
271 271 271 270 269 268 267 266 265 264 264 264 264 264 264 264 265 267 269 270 270 270 270 271 271 272 273 274 276 277 278 280 281 283 284 284 284 284 286 287 289 286 286
270 269 269 268 268 267 265 265 264 263 263 263 263 264 264 264 265 266 268 269 270 271 270 270 270 270 271 273 273 274 276 278 281 282 284 284 284 284 285 286 287 287 287
268 268 268 267 266 265 264 264 263 263 263 263 263 264 264 265 265 266 268 269 270 270 270 270 272 273 273 273 273 273 273 275 276 279 283 285 285 285 285 285 285 286 287
267 267 267 266 265 265 264 264 262 262 262 263 263 264 265 267 268 269 269 269 270 270 271 271 271 272 273 274 273 273 273 274 275 276 281 285 286 285 285 285 285 286 286
266 266 266 264 264 264 263 263 263 264 264 266 268 268 269 269 269 271 272 273 273 274 275 275 275 271 269 269 270 272 273 273 274 277 279 284 285 285 285 285 285 285 285
265 265 264 263 263 263 262 262 264 265 266 267 269 269 269 270 271 272 273 273 274 274 276 276 275 275 274 274 273 272 273 273 275 279 281 282 283 284 285 284 284 284 283
264 264 263 263 262 262 262 261 262 264 264 265 267 268 268 270 270 270 271 272 272 272 272 271 272 273 273 273 273 272 273 274 275 276 280 281 282 282 284 284 283 283 282
264 263 263 262 262 262 261 261 261 262 262 263 264 266 266 267 268 270 269 268 265 266 267 268 269 270 271 272 273 273 273 274 275 277 279 281 282 283 284 284 283 282 282
263 263 263 262 262 261 261 261 261 262 262 262 263 263 264 265 267 265 265 263 264 264 265 265 266 267 268 268 272 272 272 272 274 275 277 280 281 283 283 283 283 281 281
263 263 262 262 261 261 261 260 261 261 261 262 262 263 263 266 263 263 262 262 263 263 263 264 264 265 268 270 273 273 274 274 274 275 277 279 281 282 283 282 281 280 280
263 262 261 261 261 261 260 260 260 260 261 261 262 262 267 263 262 262 262 262 262 262 262 262 263 264 266 267 269 272 276 277 276 277 279 280 281 281 281 280 280 279 279
262 262 261 261 261 261 260 260 260 260 260 260 261 261 263 262 261 261 262 262 262 262 262 262 263 264 265 266 267 269 271 273 275 277 278 278 278 278 278 277 277 277 275
261 261 261 261 261 261 261 261 261 260 260 260 260 261 261 260 260 261 261 261 262 263 263 263 263 264 265 267 268 268 269 270 272 274 275 275 274 274 274 274 273 273 273
261 261 261 261 261 260 260 260 260 260 259 260 260 260 260 260 261 261 261 262 262 263 264 264 265 265 266 267 267 268 269 270 271 271 272 272 272 272 272 272 272 272 272
260 260 260 260 260 260 260 260 260 259 259 259 259 260 260 260 261 261 261 262 262 263 264 265 266 266 267 267 268 268 268 269 269 270 270 271 270 270 270 270 270 270 270
260 260 260 260 260 259 259 260 260 259 259 260 259 259 259 260 260 260 260 261 261 262 263 264 265 266 266 267 268 269 269 268 268 269 269 269 269 268 268 268 268 268 268

GFSGL_925_thetae_036.txt.gz
Theta_e
286 286 286 286 286 286 285 285 284 283 283 282 282 282 281 281 280 280 280 280 280 280 280 280 280 281 281 281 282 282 283 285 287 287 287 287 288 289 290 291 292 294 294
287 287 286 286 286 286 286 285 284 283 282 281 281 280 280 279 279 279 279 279 278 279 279 279 279 279 280 280 280 281 282 283 285 285 285 286 286 286 286 287 290 291 292
287 287 286 286 286 285 285 284 283 282 281 280 279 278 278 277 277 277 277 277 278 278 278 278 278 279 279 279 280 280 281 282 283 284 284 285 285 286 286 286 286 288 291
287 286 286 286 285 285 284 284 283 281 281 280 278 278 277 276 276 275 276 276 276 277 277 278 278 278 278 278 279 279 280 281 282 282 283 284 284 285 286 287 287 287 287
286 286 286 285 285 284 284 283 281 280 279 278 278 277 276 275 274 274 274 274 275 275 275 276 276 277 278 279 279 279 279 280 281 282 283 283 284 284 285 286 286 286 287
286 286 285 285 284 284 283 282 280 279 278 277 276 275 273 272 271 273 273 273 273 272 272 272 272 273 274 275 277 278 279 280 280 280 281 282 283 284 284 285 286 286 286
285 285 285 283 283 283 282 280 278 277 277 276 274 273 272 271 270 271 272 271 271 271 271 271 271 271 271 272 272 274 275 275 277 277 278 278 279 281 282 284 285 285 286
285 285 283 283 283 282 280 278 277 276 275 274 272 271 270 270 269 269 270 270 270 269 269 270 270 270 270 271 272 273 273 274 274 274 275 276 277 277 278 280 281 282 285
284 283 282 283 282 279 278 277 276 275 273 272 270 270 269 269 268 269 270 270 269 269 269 269 270 270 270 272 273 274 274 274 273 274 275 276 277 278 279 279 280 283 284
283 282 281 281 279 278 276 275 273 272 271 270 269 268 268 268 268 267 269 270 270 270 270 270 270 271 272 273 273 273 273 273 273 273 273 274 274 274 275 277 279 280 281
281 280 279 278 277 276 274 273 271 271 269 268 267 268 268 268 268 267 269 270 270 271 271 272 271 271 272 273 274 274 274 274 275 275 275 275 275 274 275 275 276 278 280
279 278 276 275 274 273 272 272 270 269 267 266 266 267 267 267 267 268 270 271 272 272 272 272 272 272 273 275 276 276 277 278 276 274 274 273 273 273 273 273 274 275 276
277 276 275 274 273 272 271 270 269 268 266 265 265 265 266 267 268 268 270 271 272 272 273 273 274 275 275 275 275 275 275 275 274 274 274 274 273 273 273 273 273 273 273
275 274 272 272 271 270 269 269 268 267 265 264 265 265 267 268 269 269 270 272 272 272 273 273 271 271 270 271 271 272 272 273 273 273 273 273 273 273 273 273 273 273 273
273 272 271 270 269 269 268 268 267 267 266 266 268 269 269 269 269 272 272 273 273 272 271 268 266 265 266 267 268 268 269 270 270 271 271 272 272 272 272 272 273 273 273
271 270 269 268 268 267 267 267 267 266 267 269 270 270 269 269 270 271 272 272 271 269 266 263 263 263 264 265 265 266 266 267 268 269 270 272 272 272 272 272 273 274 274
269 269 268 267 267 266 265 264 263 267 266 266 267 267 268 269 269 271 270 270 266 266 262 261 261 262 262 263 263 264 265 266 267 268 269 270 272 272 273 273 274 275 277
268 267 266 266 265 265 264 263 262 262 262 265 265 264 266 267 268 269 268 266 265 263 261 261 261 261 262 262 263 263 264 265 266 267 269 271 272 272 273 274 274 275 280
266 266 265 265 264 264 263 262 262 262 261 262 264 265 265 265 265 265 264 263 262 261 261 261 261 262 262 262 263 263 264 265 266 267 269 270 273 272 272 273 274 275 278
266 265 264 264 263 263 262 262 262 261 261 261 262 263 264 264 264 264 263 263 261 261 261 261 262 262 262 263 263 264 264 266 266 267 268 269 272 273 272 273 274 276 278
264 264 263 262 262 263 262 262 262 261 261 261 262 262 263 265 263 262 262 262 261 261 262 262 262 262 263 263 263 264 265 266 266 267 268 268 270 271 274 275 276 278 279
263 263 262 262 262 262 262 262 261 261 261 261 262 262 261 262 262 262 262 262 262 262 261 261 262 262 263 263 264 264 265 267 267 267 267 267 269 270 271 274 276 278 279
262 262 261 261 261 261 261 261 261 261 261 261 261 261 261 262 261 261 262 262 261 262 262 262 262 262 264 264 266 266 265 267 268 267 267 268 268 269 271 272 273 274 275
261 261 261 261 260 260 260 260 260 260 260 261 261 261 261 261 261 261 261 261 261 262 262 262 262 263 263 265 266 267 268 268 268 268 268 268 268 269 270 271 271 272 272
261 260 260 260 260 260 259 259 259 260 260 260 261 261 261 260 260 261 261 261 261 262 262 262 263 263 264 265 266 267 268 269 269 268 268 268 268 268 269 269 269 270 270
260 260 260 259 259 259 259 259 259 260 260 260 260 260 260 260 260 260 261 261 261 262 262 263 263 264 264 265 267 268 267 269 269 268 268 268 268 268 268 268 268 268 268

GFSGL_925_thetae_039.txt.gz
Theta_e
285 286 286 286 286 285 285 285 284 283 283 282 282 281 281 280 280 280 280 280 280 279 279 278 279 279 279 280 280 280 281 282 284 284 284 284 284 285 284 284 285 285 285
286 286 286 286 286 286 285 285 285 284 282 282 281 280 280 280 280 279 279 278 278 277 277 277 278 278 278 278 279 279 280 280 281 282 282 283 283 284 284 284 284 284 285
286 286 286 286 286 286 286 285 284 283 281 280 280 279 279 279 278 278 277 276 276 276 276 276 277 277 277 278 278 278 279 279 280 280 281 282 282 283 283 284 285 284 284
286 286 286 286 286 286 285 284 283 282 281 280 279 278 278 278 277 276 275 275 275 275 274 274 274 275 275 276 276 277 278 279 279 279 280 280 281 282 283 284 284 285 285
286 286 286 286 285 285 284 284 283 282 280 279 278 278 277 277 275 275 274 274 273 273 273 272 272 272 273 273 274 275 276 277 278 279 279 280 281 281 282 283 284 284 285
286 286 286 285 285 284 284 283 282 280 279 278 278 277 276 275 274 273 274 273 272 272 272 271 271 271 271 272 272 273 274 275 276 277 278 279 279 279 279 280 281 282 284
286 286 285 285 284 283 282 280 280 279 278 277 277 276 275 274 272 272 272 272 272 271 270 270 270 270 270 270 271 271 272 272 274 275 275 276 276 276 276 277 278 279 281
286 285 285 284 283 282 280 279 279 278 277 277 276 275 273 273 271 271 272 271 270 270 270 270 270 270 270 271 271 272 272 273 273 274 274 274 275 275 276 276 277 277 278
286 285 285 283 282 280 278 279 278 277 276 276 274 273 272 272 272 270 271 270 270 270 270 270 270 270 271 272 274 274 274 273 273 274 274 275 275 276 276 276 277 277 277
286 286 284 282 280 279 278 277 277 276 275 274 273 272 272 271 271 270 270 271 271 271 271 271 271 272 273 274 274 274 274 274 274 274 274 274 275 275 275 275 276 276 276
285 283 282 280 279 277 276 276 276 275 274 273 272 271 271 271 271 269 270 272 272 272 273 272 272 273 274 275 275 276 275 275 276 276 276 275 275 275 275 275 275 275 275
284 282 280 279 277 276 275 275 274 273 273 272 271 270 270 270 270 268 270 272 273 273 273 273 273 274 275 275 274 274 274 275 275 275 275 275 274 274 274 274 274 274 274
282 280 278 277 275 275 274 274 273 272 271 270 268 267 269 269 269 269 270 271 272 273 273 273 273 271 271 270 270 271 271 270 271 272 273 274 274 274 274 274 274 274 273
280 278 276 275 274 273 272 272 271 271 270 268 267 267 268 269 269 269 271 272 273 273 271 270 268 267 267 267 266 267 267 268 268 269 270 270 271 271 272 272 272 273 273
277 276 274 273 272 271 271 271 270 270 269 268 268 269 269 269 269 271 273 273 273 271 270 267 266 265 263 264 264 264 265 265 266 266 267 268 269 270 271 271 272 272 272
275 273 273 272 271 270 270 270 269 268 268 269 270 271 271 270 270 272 272 273 272 269 267 264 263 262 262 262 263 263 264 264 265 265 266 267 268 269 270 271 272 272 273
274 273 271 270 270 269 268 267 267 269 268 267 268 269 269 269 270 270 271 271 268 266 264 263 262 262 262 262 262 262 263 264 264 265 266 267 268 269 270 271 272 272 273
271 270 270 269 268 267 267 266 265 264 264 266 267 265 265 268 268 269 268 267 265 265 264 263 262 262 262 261 262 262 263 263 264 265 266 266 267 269 270 272 272 272 273
269 268 268 267 267 266 265 264 264 263 263 263 264 265 264 264 265 266 264 264 263 263 262 262 262 262 261 262 262 262 263 263 264 265 266 266 267 268 269 271 272 272 272
267 267 266 266 265 264 264 263 263 263 262 262 262 264 264 263 264 264 264 263 263 263 262 261 262 262 261 262 262 262 263 263 264 266 267 267 267 268 269 270 271 273 274
264 264 264 263 263 263 262 262 262 262 261 261 262 263 262 265 263 263 263 263 262 262 261 261 261 262 262 262 262 262 262 263 264 265 267 267 266 267 268 269 270 272 274
263 262 262 262 262 262 262 262 261 261 261 261 262 263 262 262 262 262 263 263 262 261 261 261 261 262 262 262 262 263 263 264 265 265 267 266 266 267 268 269 270 271 272
262 262 261 261 261 261 261 261 260 260 260 261 261 261 261 261 262 262 262 262 262 262 262 262 262 262 263 263 263 264 264 266 266 266 266 266 266 266 267 268 269 270 271
260 260 260 260 260 260 260 260 260 260 260 260 260 260 260 260 261 261 261 261 261 261 262 262 262 262 263 263 264 265 267 268 267 267 267 267 267 267 267 267 268 269 270
261 261 260 260 259 259 259 259 259 259 259 259 259 260 260 260 260 260 261 261 261 261 262 262 262 263 263 264 264 266 267 268 268 268 268 268 267 267 267 267 268 268 268
261 261 260 260 259 259 259 259 259 259 259 260 260 260 260 260 259 260 260 261 261 261 261 262 263 263 264 264 265 266 267 268 269 268 268 268 267 267 267 267 267 267 267

GFSGL_925_thetae_042.txt.gz
Theta_e
286 286 285 285 285 285 285 284 284 283 282 282 282 281 281 280 280 280 280 280 280 280 280 280 280 280 280 281 281 281 281 282 284 284 284 284 284 284 284 285 285 285 286
285 285 285 286 285 285 284 284 284 283 283 282 281 281 280 280 280 279 278 278 278 279 278 278 279 279 279 279 280 280 280 280 281 282 282 282 282 283 283 283 284 285 285
285 285 285 285 285 285 285 285 284 283 283 282 281 280 279 279 279 278 278 277 277 277 277 277 277 276 276 277 277 277 278 278 279 280 281 281 281 281 282 283 284 284 285
285 285 285 285 285 285 285 285 284 283 282 281 280 279 279 279 278 277 276 277 277 276 276 275 275 275 275 275 275 275 276 277 277 278 279 280 280 280 281 282 283 284 285
285 285 285 285 285 285 285 284 284 283 281 280 279 279 278 278 276 276 276 276 276 275 275 275 274 273 273 273 274 274 274 275 275 276 276 277 278 279 280 280 281 281 281
285 285 285 285 285 285 284 283 282 281 280 279 279 278 277 277 276 276 275 275 275 274 274 273 273 273 273 272 272 273 273 274 274 275 275 275 276 277 277 278 278 278 280
285 286 285 285 285 284 283 282 281 281 279 278 278 277 277 276 276 274 274 274 274 273 273 273 272 272 272 272 272 273 273 273 274 275 275 275 275 275 276 276 276 277 278
285 285 285 285 284 284 283 281 281 280 278 276 276 276 275 275 274 273 273 273 273 273 272 272 272 272 272 272 273 273 274 274 274 274 275 275 275 275 275 276 276 277 278
286 285 285 285 284 283 282 281 280 278 276 275 276 275 275 275 274 272 272 273 273 273 273 272 272 272 273 274 275 275 275 275 275 275 275 276 276 277 277 277 278 278 278
287 287 286 285 284 283 281 280 279 277 275 274 274 274 274 274 273 272 272 273 273 274 273 274 274 274 274 275 276 276 277 277 276 276 276 276 276 276 276 276 276 277 277
288 287 286 285 284 282 280 278 277 275 274 273 274 273 273 273 272 272 271 273 273 274 274 274 274 274 275 276 275 274 274 275 274 274 275 275 276 276 276 276 276 276 276
287 286 285 283 282 280 278 277 275 274 273 272 272 272 272 272 272 271 271 273 274 274 274 274 274 274 272 272 272 271 272 272 271 272 272 273 274 274 275 275 275 275 275
285 284 283 281 279 278 276 275 273 273 272 271 270 271 270 270 270 271 271 272 273 273 274 273 272 270 269 269 269 269 269 269 269 270 270 271 272 272 272 273 273 273 274
284 282 280 278 277 275 274 273 273 272 271 270 270 270 270 270 270 271 271 272 273 274 273 271 269 268 267 267 267 267 267 267 267 268 269 269 269 270 270 271 272 272 273
281 280 277 275 274 273 273 272 272 272 272 271 270 269 270 271 271 271 273 274 274 274 272 270 267 266 266 267 267 266 266 267 267 267 267 267 268 269 270 270 271 271 272
278 276 274 274 273 272 271 271 272 271 270 270 272 272 272 272 272 272 272 273 273 271 269 266 266 266 266 266 266 266 266 266 267 266 266 267 268 268 269 269 270 271 272
277 276 274 272 271 270 269 269 270 269 268 269 269 270 271 272 272 271 272 272 270 268 266 265 265 265 265 265 265 265 266 266 265 266 266 267 267 268 268 269 270 271 273
274 273 272 271 269 269 268 268 267 267 267 267 267 267 267 268 269 270 270 270 267 266 264 263 263 263 264 264 264 264 265 265 265 265 266 266 267 268 268 269 270 271 272
271 270 269 268 267 267 266 265 265 265 265 264 264 265 265 265 266 267 268 266 264 263 263 262 262 262 262 262 263 263 263 263 264 264 265 267 267 268 268 268 269 270 271
268 267 267 266 265 264 264 264 264 264 264 264 263 263 263 263 263 264 264 264 263 263 262 262 262 261 261 261 262 262 263 263 264 264 265 266 267 268 268 268 269 270 271
266 265 265 263 263 263 263 263 263 263 263 263 263 262 263 263 263 264 263 263 263 263 262 262 262 261 262 261 261 261 262 263 263 264 265 265 267 267 267 268 269 270 271
264 264 263 262 261 261 261 261 261 261 261 261 261 261 263 264 264 263 262 262 263 262 262 261 261 262 262 261 261 260 261 263 264 264 264 265 266 267 267 268 268 269 270
262 262 262 261 261 260 259 259 259 259 260 260 260 260 260 261 261 261 261 262 262 261 261 261 261 262 262 262 262 262 262 264 265 265 265 265 266 266 267 267 268 268 269
261 261 260 259 259 259 259 259 259 259 258 259 259 259 259 260 260 260 261 261 261 261 261 261 261 262 262 262 263 263 264 266 266 267 267 266 266 266 266 266 267 267 268
261 261 260 259 259 259 258 258 258 258 258 258 258 259 259 260 260 261 261 261 261 261 261 261 262 262 262 263 264 264 265 266 267 267 267 267 267 267 267 266 266 267 267
261 261 260 259 258 258 258 258 259 259 259 259 259 259 259 259 260 261 260 260 260 261 261 261 262 262 262 263 264 264 265 266 267 268 268 268 267 267 267 267 267 267 267

GFSGL_925_thetae_045.txt.gz
Theta_e
288 287 287 287 287 286 286 285 285 284 283 283 282 282 281 281 281 281 281 280 280 280 281 280 280 280 280 280 280 281 281 282 282 282 282 282 282 282 282 283 283 283 283
288 287 287 287 286 286 286 285 285 284 283 283 282 282 281 281 280 280 280 279 279 279 279 279 279 279 278 278 278 278 278 278 279 280 279 279 280 280 281 281 281 282 283
287 287 287 287 286 286 286 285 284 284 283 283 282 281 281 280 280 279 279 279 279 279 278 278 278 277 277 277 276 276 276 277 277 278 278 278 278 278 279 280 281 281 282
287 287 287 286 286 286 285 285 284 283 283 282 282 281 280 280 279 279 279 278 278 278 278 277 277 276 276 275 275 275 275 275 275 276 276 276 276 277 277 278 279 279 279
287 287 287 287 286 286 285 284 284 283 282 282 281 281 280 280 279 279 278 278 277 277 277 276 276 275 274 274 274 274 274 274 274 275 275 275 275 276 276 277 277 277 277
287 287 287 287 286 285 285 284 283 283 282 281 281 280 280 279 278 278 277 277 276 276 276 275 275 274 274 274 274 274 274 275 275 275 275 275 276 276 276 276 276 276 277
286 286 286 286 286 285 285 284 283 282 281 280 280 280 279 278 277 277 276 276 275 276 275 275 274 274 274 273 274 274 274 274 275 276 276 276 276 275 275 276 276 276 276
286 286 286 286 285 285 284 284 282 281 280 280 279 279 277 277 276 275 275 275 275 275 274 274 274 274 274 274 274 275 276 276 276 276 276 276 276 276 276 276 276 277 277
286 286 286 285 285 284 284 283 282 280 279 279 279 278 277 276 275 275 274 274 275 275 275 274 274 274 274 276 276 276 276 276 275 276 276 276 277 277 278 278 278 277 277
287 288 286 285 285 285 284 283 281 280 279 278 277 277 276 276 275 274 273 273 274 274 275 275 275 276 276 276 276 275 274 274 273 274 274 274 274 274 276 276 277 277 276
290 288 287 286 285 284 283 282 281 279 278 277 276 275 275 275 275 274 273 273 274 274 275 275 275 275 275 275 274 273 272 273 273 271 271 272 273 273 274 275 275 276 277
290 288 287 286 285 283 282 281 279 278 276 275 274 274 274 274 274 273 273 274 274 274 274 274 274 275 274 273 272 272 272 271 269 269 269 270 271 271 272 272 272 273 273
287 287 285 284 283 282 281 279 277 276 274 274 274 273 274 273 273 272 273 273 274 274 274 274 276 273 272 270 270 270 269 268 268 268 268 269 269 269 269 270 270 271 272
286 285 283 282 280 279 278 277 276 275 274 273 274 274 274 273 272 272 272 272 273 274 274 274 273 271 270 269 268 268 268 268 267 268 268 268 268 268 268 269 270 271 271
284 283 281 280 278 277 276 276 275 275 275 274 274 274 273 273 273 273 273 273 274 274 274 272 271 269 268 268 268 267 267 267 267 268 267 267 267 268 268 268 269 269 270
282 280 279 277 275 274 274 274 274 273 273 273 273 272 272 272 273 273 274 274 274 274 272 270 269 268 267 267 267 267 267 267 267 266 266 267 267 267 268 268 268 269 270
279 278 276 275 274 273 273 272 273 273 273 273 274 274 274 274 274 274 274 274 274 271 270 268 267 266 266 266 266 266 266 266 266 265 266 266 266 267 267 268 269 269 270
275 275 274 273 273 272 272 272 271 271 271 271 270 270 270 271 271 272 273 273 271 269 268 266 266 265 265 265 265 265 265 264 264 264 265 265 266 267 267 268 269 269 269
272 272 271 271 270 270 269 269 269 268 268 268 267 267 267 267 269 270 271 271 270 268 266 265 264 264 264 264 263 263 263 263 263 264 264 265 266 266 267 268 268 268 268
270 269 269 268 267 267 267 267 266 266 266 266 266 266 266 265 265 265 266 267 266 266 265 264 264 264 263 263 263 262 262 263 263 263 264 264 265 266 266 267 268 268 268
267 266 267 266 265 265 265 265 265 265 265 265 265 265 265 265 263 264 265 265 264 264 263 263 263 263 263 262 262 262 261 262 262 263 264 264 264 264 265 267 267 268 268
265 265 264 264 263 263 263 263 263 263 263 263 263 263 264 265 265 266 266 264 264 263 263 263 262 262 262 262 262 261 261 262 263 263 263 264 265 265 266 267 267 267 268
264 264 263 262 261 261 260 261 261 261 261 261 261 261 261 261 262 262 263 263 262 262 262 262 262 262 262 262 262 261 262 263 263 263 263 264 265 265 266 266 266 266 267
262 262 261 261 261 261 260 260 260 260 260 260 259 260 260 260 261 261 261 261 261 262 262 261 261 262 262 262 262 262 262 263 263 264 264 265 266 266 266 266 266 266 266
261 261 261 261 261 260 260 260 260 260 260 259 259 259 259 260 260 260 260 260 261 261 261 261 261 261 262 262 262 262 263 263 264 264 266 266 266 267 267 267 266 267 267
261 261 261 260 260 260 260 260 260 260 260 260 260 260 260 260 260 260 260 260 260 260 260 261 261 261 261 261 262 262 263 264 264 265 265 266 267 267 267 266 266 266 266

GFSGL_925_thetae_048.txt.gz
Theta_e
289 289 289 288 288 287 287 286 286 285 285 284 284 284 283 283 282 282 282 281 281 281 280 280 280 279 279 279 278 278 278 278 278 278 278 278 277 278 278 277 278 278 280
289 288 288 288 287 287 286 286 285 285 285 285 284 283 283 283 282 281 281 281 281 280 280 279 279 278 278 277 277 276 276 276 276 276 276 276 276 276 276 276 276 277 278
288 288 287 287 287 287 286 286 285 285 285 285 284 284 283 282 281 281 281 280 280 280 279 279 278 278 277 276 276 275 275 275 275 275 275 275 275 275 275 275 275 276 276
288 288 287 287 287 286 286 286 286 285 285 284 284 283 282 282 281 280 280 280 279 279 279 278 277 277 276 275 275 275 275 274 274 274 274 274 275 275 275 275 276 276 275
288 288 287 287 287 286 286 286 285 285 284 284 283 282 282 281 280 280 279 279 279 279 279 278 277 276 275 276 275 275 275 275 274 274 275 275 275 275 276 276 276 275 275
288 287 287 287 287 286 286 286 285 284 284 283 283 282 281 280 280 280 279 279 278 278 277 277 276 275 275 275 275 275 276 276 276 275 275 276 276 276 276 276 276 276 276
288 287 287 287 287 286 286 286 285 284 284 283 282 281 281 280 279 280 279 278 278 277 276 276 275 275 274 274 274 275 276 275 276 277 276 276 276 276 276 276 276 276 277
288 287 287 287 287 286 286 286 285 284 284 283 282 282 280 280 279 279 278 277 277 277 276 275 275 275 274 274 275 276 276 276 276 275 275 275 275 276 277 277 277 277 277
288 287 287 287 287 286 286 285 285 284 283 283 282 281 281 280 279 278 277 277 276 276 275 275 275 275 275 276 277 277 276 274 274 273 274 275 275 274 274 274 274 275 276
288 288 287 286 286 286 286 285 285 284 283 282 281 281 280 280 278 278 277 276 275 275 275 275 275 276 276 277 277 276 274 273 273 273 272 271 270 270 272 272 274 275 275
290 288 288 287 286 286 286 285 284 283 282 281 280 280 279 279 278 277 276 275 275 274 274 274 275 275 276 276 276 275 273 273 273 272 269 268 268 269 269 270 271 271 271
290 289 288 288 287 286 285 284 283 282 281 280 279 278 278 278 277 276 275 275 275 274 274 274 274 275 276 276 275 273 273 273 271 268 268 267 268 269 269 269 269 269 270
289 288 288 286 286 285 284 283 281 280 279 278 277 276 277 277 276 276 275 275 275 276 275 274 275 276 275 273 272 271 271 269 268 268 267 267 268 268 268 268 268 268 269
288 287 287 286 284 283 282 282 280 279 277 276 275 275 275 275 275 275 274 274 274 274 274 274 274 274 273 272 270 269 268 268 267 267 267 267 267 267 267 267 268 268 268
286 285 284 283 282 281 280 280 279 278 278 277 276 276 275 275 275 274 274 273 273 273 274 274 274 273 272 270 269 268 267 267 267 267 267 266 266 266 267 267 267 267 268
284 282 282 281 279 278 277 276 275 275 275 275 276 275 274 274 273 274 275 276 276 276 276 274 273 272 270 269 267 267 267 266 266 266 266 265 265 265 265 266 267 267 268
281 281 280 279 277 276 274 274 274 274 275 275 276 276 276 276 276 276 276 276 276 277 275 273 272 270 269 268 267 266 266 266 265 265 265 265 264 264 265 266 266 267 268
278 277 277 276 275 274 273 273 272 272 272 272 272 272 272 272 273 274 274 274 274 275 272 271 271 269 268 267 266 265 265 264 264 264 264 264 264 264 264 265 266 267 267
275 275 274 273 273 272 272 271 271 270 269 269 268 268 268 269 269 270 271 272 272 272 271 270 270 269 267 266 265 264 263 263 263 263 263 263 264 263 264 265 265 266 267
272 271 271 270 270 270 269 268 268 267 267 266 266 266 266 266 265 265 266 266 266 267 268 267 268 267 265 265 264 263 263 263 262 262 262 263 264 263 263 264 264 266 267
270 269 269 268 267 267 266 266 265 265 265 264 264 264 265 267 266 265 265 265 265 265 265 265 265 265 264 264 263 262 262 262 262 262 262 263 263 263 264 264 265 266 266
267 266 266 265 265 264 264 263 263 263 263 262 262 262 263 263 263 263 263 264 265 265 265 264 263 263 263 263 262 262 261 262 262 262 262 262 263 264 264 265 265 265 265
265 264 264 263 263 263 263 262 262 261 261 261 261 261 260 260 261 261 261 261 262 263 263 263 262 262 263 262 261 261 261 262 262 261 261 262 264 264 265 265 265 265 265
263 263 263 262 262 261 261 261 261 260 260 260 260 260 260 260 260 260 260 260 261 261 261 262 262 262 262 262 261 261 261 261 261 262 261 262 263 265 265 265 266 266 266
263 262 262 262 261 261 261 260 260 260 260 260 260 260 260 260 260 260 260 260 260 260 261 261 261 261 261 261 261 261 261 261 262 262 262 263 264 265 266 266 266 266 266
262 262 261 261 261 260 260 260 260 260 260 260 260 260 259 260 260 260 260 260 260 260 260 260 261 260 260 261 261 261 261 261 262 263 263 263 263 265 266 266 266 266 266

GFSGL_925_thetae_051.txt.gz
Theta_e
291 291 290 290 290 290 289 287 286 285 285 286 286 285 284 284 283 283 282 282 282 281 281 281 280 280 279 279 278 278 277 277 277 277 277 276 276 275 275 275 276 275 275
290 290 290 289 289 288 287 286 286 286 286 286 285 285 284 284 283 283 282 282 281 281 281 281 280 279 279 278 277 277 276 276 275 275 275 275 275 275 275 275 275 275 275
289 289 289 288 288 287 287 286 286 286 285 285 285 285 284 284 283 283 282 281 281 281 281 280 280 279 278 277 277 276 276 275 275 274 274 274 274 275 275 275 275 275 275
289 289 288 288 288 287 287 286 286 286 286 285 285 285 284 284 283 282 281 281 282 281 280 280 279 278 278 277 276 276 276 275 275 274 274 275 275 275 275 276 276 276 276
288 288 288 288 287 287 286 286 286 285 285 285 285 284 284 283 283 282 281 282 281 280 280 279 279 278 277 276 276 276 276 276 275 275 275 275 276 276 276 276 276 276 276
288 288 288 287 287 287 286 286 285 285 285 285 284 284 284 284 282 282 282 281 280 280 280 279 278 277 277 276 276 276 276 276 277 276 276 277 276 276 276 275 275 276 277
288 288 288 287 287 286 286 286 285 285 285 285 284 284 284 283 283 282 282 281 280 280 279 278 277 277 276 276 275 275 276 276 277 277 276 275 275 274 275 275 275 275 275
288 288 288 287 287 286 286 286 286 285 285 284 284 284 283 284 283 281 280 280 280 279 278 277 277 277 276 275 275 275 276 276 276 275 274 274 274 275 273 273 273 273 273
288 287 287 287 287 287 286 286 286 285 284 285 285 284 284 284 282 281 279 279 279 278 277 277 276 276 276 276 276 276 277 276 275 274 274 274 273 272 272 272 271 271 272
288 288 288 288 287 287 287 286 286 285 285 285 284 284 284 283 282 280 279 278 278 277 277 276 276 275 276 277 277 277 277 275 274 273 273 273 271 270 270 269 270 270 270
289 288 288 288 288 287 287 286 286 285 285 284 284 284 283 282 281 279 278 278 277 277 276 276 276 275 276 277 277 277 276 275 274 273 272 270 270 269 269 269 269 269 269
290 289 288 288 287 287 286 286 285 285 284 284 283 282 282 281 279 278 277 277 277 276 276 276 276 275 276 276 277 277 275 274 273 272 269 269 268 268 268 268 268 268 268
290 290 289 288 287 287 286 285 284 283 283 282 281 280 279 279 278 278 277 276 277 277 277 276 275 276 277 277 276 274 273 272 270 268 268 267 267 267 267 267 267 267 267
290 289 288 287 287 286 285 285 284 282 281 279 278 277 277 277 277 277 276 276 276 277 277 277 276 276 275 275 274 273 272 270 268 267 267 267 267 267 267 267 266 266 266
289 288 287 286 285 284 283 283 282 282 281 280 279 278 277 276 276 276 275 275 275 275 274 274 273 273 273 274 274 272 270 269 267 267 267 266 266 266 266 266 265 265 266
286 285 285 284 283 282 281 280 278 277 277 276 276 276 276 276 275 275 276 276 277 276 274 273 273 273 273 273 272 270 269 268 267 266 265 265 265 264 264 265 265 265 265
284 283 282 281 280 279 278 277 276 276 276 277 277 277 277 277 277 276 277 277 278 278 278 277 274 272 273 272 271 270 268 267 266 265 264 264 264 263 264 263 264 264 265
281 281 281 280 279 278 276 275 274 274 274 274 275 274 274 273 273 274 274 274 274 274 274 274 273 272 272 271 270 269 267 266 265 264 263 263 263 263 262 263 263 264 264
278 278 277 276 275 275 274 273 272 272 271 271 270 270 269 268 269 269 270 269 268 267 267 268 268 269 270 270 268 267 266 265 264 263 263 262 262 262 262 263 262 263 263
274 274 274 273 272 272 271 270 269 269 268 267 266 266 265 265 265 266 266 266 266 266 265 265 265 266 266 266 266 265 264 264 263 262 262 262 262 262 262 262 262 262 263
272 271 271 270 270 269 269 267 266 266 265 265 264 264 265 266 264 263 263 262 262 263 264 264 265 264 264 264 264 263 263 263 262 262 261 261 262 261 262 262 263 264 264
269 269 268 268 267 266 266 265 265 264 263 263 263 263 263 262 262 261 261 261 261 261 262 263 264 264 263 263 262 262 262 262 262 261 261 261 262 262 262 262 263 264 264
267 267 266 265 265 264 264 263 263 262 262 262 262 261 261 261 260 260 260 260 260 260 261 261 261 261 262 262 262 262 261 261 261 260 260 261 262 262 262 262 263 264 265
265 265 264 264 263 263 262 262 262 262 261 261 261 261 260 260 260 260 260 260 260 260 260 260 260 260 261 261 261 261 261 261 261 260 260 260 261 262 262 263 264 265 265
263 263 263 262 262 262 262 262 261 261 261 260 260 260 260 260 260 260 260 260 260 260 260 260 260 260 260 261 261 261 261 261 261 260 260 260 261 262 262 263 264 265 266
262 262 262 262 262 261 261 261 261 260 260 260 260 260 260 260 260 260 260 260 259 259 259 259 260 260 260 260 260 260 260 260 260 260 260 260 261 262 262 263 264 264 265

GFSGL_925_thetae_054.txt.gz
Theta_e
294 294 292 290 289 289 288 288 288 287 286 286 285 285 285 286 285 285 284 283 283 282 282 282 281 280 280 279 279 278 278 277 276 277 277 277 277 278 278 276 276 276 276
293 293 291 290 289 289 288 288 287 287 286 285 285 285 285 286 285 284 284 283 283 282 282 281 281 280 280 279 278 278 277 276 275 275 276 276 277 276 276 275 275 275 275
292 291 290 290 289 289 289 288 287 287 286 284 284 285 286 286 285 284 283 283 283 282 282 281 281 280 280 279 278 277 277 276 275 275 275 275 276 276 276 275 276 276 275
291 290 290 289 289 289 288 287 287 286 285 284 285 285 286 285 284 284 283 283 282 282 282 281 281 280 279 278 278 277 277 276 275 275 275 275 275 276 276 276 275 275 275
290 289 289 289 289 288 287 287 286 285 284 285 285 285 285 284 285 284 284 283 282 282 281 281 281 280 279 278 278 277 277 276 276 276 275 276 276 276 275 275 274 275 275
288 288 288 288 288 288 287 286 285 285 284 284 284 285 285 285 285 284 284 283 282 281 281 282 281 279 279 278 277 278 277 277 277 277 276 277 276 275 274 274 275 273 273
287 288 288 288 287 287 287 286 285 285 284 284 284 284 284 285 284 284 284 283 282 281 282 281 280 280 279 278 277 276 276 276 277 277 277 276 275 274 274 274 273 272 272
287 287 287 287 287 287 286 286 285 285 284 284 284 284 284 285 284 284 283 283 282 282 281 280 279 279 279 277 276 276 276 276 276 276 275 275 274 275 274 272 272 271 270
287 287 288 287 287 287 286 286 285 285 285 285 284 284 284 285 283 283 282 281 281 281 280 279 279 278 278 277 276 276 276 276 277 276 276 275 274 273 272 271 270 269 269
287 287 287 288 287 286 287 286 286 286 286 284 284 284 284 284 283 283 281 281 281 280 279 279 278 278 277 277 276 277 277 277 277 276 275 274 273 272 270 269 269 269 268
288 288 289 288 287 287 287 287 287 285 284 284 284 285 284 284 283 282 280 280 280 279 279 278 279 278 277 277 278 278 277 277 277 275 274 273 272 270 270 269 268 268 268
291 289 288 288 287 287 287 286 285 285 284 284 284 284 284 283 282 281 279 280 280 279 278 279 278 277 277 277 278 278 278 278 277 275 273 271 270 269 269 268 268 268 267
288 288 288 288 287 287 286 286 285 284 284 283 283 282 282 282 281 279 279 279 279 279 279 278 278 276 277 277 278 278 277 275 275 273 271 269 269 268 267 267 267 267 267
288 288 288 287 287 286 286 285 285 284 283 281 281 280 280 279 279 279 279 278 278 278 278 278 278 278 278 277 277 276 276 275 273 271 270 268 267 267 267 266 266 266 265
290 289 288 287 287 286 285 285 284 284 283 282 282 280 279 278 279 278 277 277 276 276 275 275 275 275 275 274 274 274 274 273 272 271 268 267 266 266 265 265 265 265 264
289 288 288 287 285 284 284 282 281 281 280 279 279 279 278 277 276 276 276 277 277 277 276 275 275 275 274 274 274 274 273 273 272 270 267 266 266 265 264 264 264 264 263
286 286 286 285 284 283 281 281 280 277 277 277 277 278 278 277 276 277 277 278 278 278 277 276 275 273 272 272 272 271 271 272 270 268 267 266 264 264 263 263 263 263 263
284 283 283 282 281 280 279 278 277 277 276 276 276 276 276 274 274 273 274 274 274 273 272 270 268 268 267 267 268 269 270 269 267 266 265 265 264 262 262 262 262 262 262
281 281 280 279 278 277 276 275 274 274 273 273 273 273 273 273 271 269 269 269 268 267 266 266 265 265 265 265 266 266 266 266 266 265 264 264 263 262 261 262 262 262 262
278 277 277 276 275 274 273 273 272 271 271 270 270 268 267 266 267 266 266 265 265 264 264 263 263 263 264 264 264 264 264 264 264 263 263 263 262 261 261 261 261 261 262
275 274 274 273 273 272 272 271 270 269 268 267 266 265 265 265 264 264 263 262 262 262 261 261 261 262 263 263 263 263 262 262 262 262 262 262 261 261 261 260 261 262 262
272 272 271 271 270 269 268 267 266 266 265 264 263 263 263 263 262 262 262 262 261 261 261 260 261 261 261 261 261 261 261 261 262 262 262 261 261 260 260 261 261 262 262
270 269 268 267 266 266 265 265 264 264 263 263 262 262 262 262 262 262 261 261 261 261 261 261 260 261 261 261 261 261 260 261 261 261 261 260 260 260 260 260 261 262 262
266 266 266 265 264 264 263 263 263 262 262 262 262 262 261 261 261 261 261 261 261 261 260 260 260 260 260 260 260 261 260 260 260 261 260 260 260 260 260 260 261 262 262
264 264 264 264 263 263 262 262 262 262 262 261 261 261 261 261 261 261 261 260 260 260 260 260 260 260 260 260 260 260 260 260 260 260 260 260 260 260 260 260 261 262 262
263 263 263 262 262 262 262 262 262 261 261 261 261 261 260 260 260 260 260 260 260 260 260 260 259 259 259 259 259 259 259 260 260 260 259 259 260 260 260 261 261 261 262

GFSGL_925_thetae_057.txt.gz
Theta_e
299 299 298 296 294 292 290 289 288 287 287 287 287 286 286 285 285 285 285 285 284 283 282 282 282 281 281 280 279 279 278 277 276 277 278 278 278 278 278 278 277 276 277
300 297 296 294 291 290 289 288 288 287 286 287 286 286 285 285 285 285 286 285 284 283 283 282 282 281 280 280 279 278 278 277 276 276 277 277 278 278 277 277 276 276 275
299 295 293 291 290 289 288 288 287 286 286 285 285 285 285 285 285 285 286 285 284 283 283 282 282 281 280 280 279 279 278 277 276 275 275 276 277 277 277 276 275 275 275
294 293 292 291 290 289 288 288 287 286 286 285 285 285 285 285 285 285 285 285 284 283 283 282 282 281 281 280 280 279 278 277 276 276 276 276 276 276 276 275 275 274 274
292 291 290 290 289 288 288 287 286 285 285 285 284 284 284 284 285 286 285 285 284 283 283 282 282 281 280 280 279 279 278 277 277 276 276 276 276 276 276 274 274 274 273
290 289 289 289 288 288 288 287 286 285 285 284 284 284 284 284 285 285 285 285 284 283 283 282 282 281 280 280 279 279 279 278 277 277 276 276 276 276 275 274 274 273 273
289 289 288 288 288 288 288 287 286 285 284 284 284 284 284 284 285 285 285 284 284 283 283 282 281 281 280 280 279 278 278 278 278 278 277 277 277 276 275 274 274 273 272
288 288 288 288 288 287 287 286 285 285 284 284 284 284 284 284 285 284 284 284 283 282 282 282 281 280 280 280 279 278 278 277 277 276 277 277 276 276 275 274 273 271 271
287 287 287 288 287 287 286 286 285 284 284 284 284 285 284 285 286 284 282 283 282 282 283 282 281 280 280 279 278 278 277 278 277 277 278 278 278 276 275 273 271 270 268
287 287 288 288 287 287 286 285 285 285 286 284 285 286 284 288 286 283 282 282 282 282 282 282 281 281 280 278 277 277 277 277 277 277 277 276 276 274 273 271 269 269 268
288 288 287 287 287 286 286 286 286 287 284 285 288 286 285 287 283 283 282 282 282 282 281 281 281 280 279 279 279 279 278 278 278 277 277 276 274 273 272 270 269 268 268
288 287 287 287 286 286 287 290 289 286 285 286 286 283 286 283 283 283 282 282 282 281 281 281 280 279 279 278 278 278 279 280 279 278 276 275 274 274 271 269 268 267 267
288 288 288 289 289 290 290 289 285 285 284 284 283 281 281 283 283 282 281 281 281 281 281 281 280 278 278 278 279 279 280 279 279 277 276 275 274 272 270 268 267 267 267
290 290 289 288 287 286 285 285 284 284 283 282 281 280 281 281 281 281 281 280 280 280 280 279 279 279 279 279 278 277 277 277 277 276 275 275 273 271 269 267 266 266 265
288 287 286 286 286 285 285 285 285 284 284 283 283 282 281 280 281 280 279 279 278 277 276 276 276 275 276 276 276 276 276 274 274 274 274 273 271 269 267 266 265 264 263
288 286 286 285 285 285 284 282 282 281 281 281 281 280 280 279 278 277 277 277 278 277 277 277 277 276 274 273 273 272 272 273 272 272 271 270 270 268 266 265 264 263 263
289 288 287 286 285 284 283 281 279 278 277 278 278 278 278 278 277 277 278 278 277 278 276 274 272 271 270 268 268 269 270 270 270 269 268 269 268 266 265 264 263 262 263
284 284 284 284 283 282 281 281 280 279 277 276 276 276 274 274 275 275 275 275 275 274 273 271 269 268 266 265 265 265 265 266 266 266 267 267 266 264 264 263 262 262 262
283 282 282 281 280 279 279 278 277 277 276 276 274 273 273 272 272 272 273 271 269 268 267 267 266 265 265 264 264 264 264 264 264 264 265 265 264 263 263 262 261 261 261
280 280 279 279 278 277 276 276 274 274 273 273 272 272 271 270 269 268 267 267 266 265 264 264 263 263 262 263 263 263 263 263 263 263 263 262 262 262 261 261 261 261 262
278 277 277 276 275 275 274 273 272 272 271 270 269 268 266 267 267 266 265 265 264 263 263 262 262 262 262 262 262 262 262 262 262 261 262 262 261 261 261 260 260 261 261
274 274 273 273 272 271 271 270 269 269 268 267 266 265 265 265 264 264 263 263 262 262 262 261 262 262 261 261 261 261 261 261 261 261 261 261 261 260 260 260 260 260 260
271 271 270 270 269 269 268 267 266 265 265 264 264 263 263 263 263 262 262 262 262 262 262 261 261 261 261 261 261 261 260 261 261 260 260 260 260 260 260 259 259 260 260
267 267 267 266 266 265 265 264 264 263 263 262 262 262 262 262 262 262 262 262 262 262 262 261 261 261 261 261 261 260 261 261 260 260 260 260 260 260 259 259 259 259 260
265 265 265 265 264 264 263 263 262 262 262 262 262 261 261 261 261 262 261 261 261 261 262 261 261 261 260 260 260 260 260 260 260 260 260 260 260 260 259 259 259 259 259
263 263 263 263 262 262 262 262 262 262 261 261 261 261 261 261 261 261 261 261 261 261 261 261 261 260 260 260 260 260 260 259 259 259 259 259 259 259 259 259 259 259 260

GFSGL_925_thetae_060.txt.gz
Theta_e
303 301 300 299 299 299 299 295 293 289 288 288 287 287 287 286 286 286 286 285 285 284 284 284 283 283 282 281 281 280 279 279 278 278 278 279 279 279 278 278 279 279 278
302 299 298 300 299 297 294 293 290 288 287 287 287 286 286 286 286 286 285 285 285 285 284 283 283 282 282 281 280 280 279 278 277 276 277 278 278 278 278 278 278 277 276
299 297 295 297 297 295 292 291 288 287 287 286 286 286 286 286 285 285 285 285 285 285 284 284 283 283 282 281 281 280 279 278 277 276 276 277 277 278 278 278 277 276 275
298 296 295 295 295 293 293 290 288 287 287 286 286 285 285 285 285 285 285 285 284 284 284 283 283 283 282 282 281 280 279 278 277 277 277 277 277 277 277 277 277 275 275
295 294 293 296 294 292 290 289 287 286 286 286 285 285 285 285 285 284 285 285 285 284 284 283 283 283 282 282 281 280 279 278 278 277 277 277 277 277 276 276 275 275 275
293 293 292 292 290 289 288 287 286 285 285 285 284 284 284 284 284 284 284 284 286 284 284 283 283 283 283 282 281 280 280 280 279 278 277 276 277 277 277 276 275 274 274
292 292 292 291 289 288 287 286 286 286 285 284 284 284 284 284 284 284 285 285 285 284 284 283 283 283 282 281 280 280 281 281 280 280 279 278 277 277 277 276 275 274 273
290 290 290 289 288 287 286 285 285 284 285 284 284 283 283 284 284 285 284 288 285 283 283 283 283 282 282 281 280 280 279 279 279 279 278 278 277 277 277 276 275 274 273
289 288 288 288 287 286 285 284 284 284 284 284 284 284 283 283 284 290 284 289 284 283 282 282 282 282 281 280 280 279 279 279 279 278 278 278 278 279 279 276 275 272 270
288 287 288 288 287 286 285 285 284 284 284 284 283 283 284 284 289 290 284 288 283 283 283 282 282 282 281 281 279 279 278 279 278 278 278 278 278 277 277 276 273 271 269
288 288 287 287 287 286 285 285 285 284 284 283 283 284 288 284 291 288 284 288 284 282 282 283 283 282 281 280 280 280 280 279 279 278 278 278 277 276 275 274 272 270 269
288 287 287 287 286 286 286 285 285 285 284 284 285 288 286 284 290 288 284 287 283 282 282 283 282 282 281 280 280 280 280 280 280 280 279 278 277 276 275 273 271 270 269
287 287 287 286 286 286 286 286 285 285 284 286 286 285 284 285 287 287 287 284 283 283 283 283 282 281 280 279 280 280 280 280 279 279 278 278 277 276 274 272 270 269 268
287 287 287 287 286 286 286 286 286 287 287 286 284 284 283 285 286 285 282 281 281 281 281 281 281 280 280 279 279 278 278 278 277 276 275 275 274 273 272 271 270 268 266
288 288 287 288 287 287 287 287 287 287 287 286 284 283 283 284 284 282 281 281 280 280 279 279 278 278 277 276 275 275 274 273 273 273 272 272 271 270 270 269 268 266 264
288 287 287 287 286 287 286 283 283 284 283 282 282 282 282 281 280 280 279 279 278 277 277 276 276 275 274 273 272 271 271 270 270 270 270 269 268 268 267 267 266 265 263
287 285 285 284 284 283 283 282 280 279 280 279 279 280 279 279 278 277 278 278 277 279 278 275 273 272 271 271 270 269 267 266 266 266 266 266 266 266 266 265 264 263 262
285 285 285 284 283 283 282 281 281 279 278 278 278 278 278 277 277 276 276 276 276 276 275 274 272 270 268 267 266 265 265 265 265 264 264 264 264 264 264 264 263 262 261
283 283 283 283 282 282 281 280 280 279 278 277 275 275 274 274 273 272 275 275 274 273 272 269 268 267 266 265 264 264 264 264 264 263 263 263 263 263 263 262 262 261 261
281 280 280 280 279 278 278 278 277 276 276 275 274 273 272 271 271 271 271 270 269 268 267 266 265 265 264 263 263 263 263 263 263 262 262 262 262 261 261 261 261 260 260
278 278 277 277 277 276 276 276 275 274 274 272 271 270 268 269 268 267 267 266 265 265 264 264 264 264 263 262 262 262 262 262 262 262 262 261 261 261 261 260 260 260 260
275 275 275 275 274 273 273 272 272 272 271 270 269 268 267 267 266 266 265 264 264 264 263 263 263 263 262 262 261 261 261 262 262 261 261 261 260 260 260 260 260 260 259
272 272 271 271 271 270 270 269 269 269 268 267 266 265 265 264 264 264 263 263 263 263 262 262 262 262 262 261 261 261 261 261 261 261 261 260 260 259 259 259 259 259 259
268 268 268 267 267 266 266 266 265 264 264 264 264 263 263 263 263 263 263 263 263 262 262 262 261 261 262 261 261 261 261 261 261 261 260 260 259 259 259 259 259 259 258
266 266 265 265 265 264 264 264 263 263 263 263 263 263 263 262 262 262 262 262 262 262 262 261 261 261 261 261 261 261 260 260 260 260 260 260 259 259 258 258 259 259 258
264 264 264 263 263 263 263 263 263 263 263 262 262 262 262 262 262 262 262 261 261 262 262 262 262 261 261 262 261 261 261 261 261 260 260 259 259 259 259 258 258 258 258

GFSGL_925_thetae_063.txt.gz
Theta_e
303 303 305 305 303 302 302 302 302 300 296 291 290 289 289 288 287 287 287 287 286 285 285 284 284 284 283 283 283 283 282 281 281 280 281 281 281 281 281 280 280 280 280
303 303 303 305 301 299 299 299 299 298 293 289 288 288 288 287 287 287 287 286 286 285 284 284 284 283 283 283 283 282 282 281 280 279 280 280 280 280 280 280 280 280 279
301 302 302 304 300 298 297 297 296 295 291 288 287 287 287 287 287 286 287 286 285 285 285 284 284 284 283 283 282 282 281 280 279 279 278 279 279 279 279 279 279 279 278
300 299 299 299 298 298 297 297 296 294 290 287 287 287 287 286 286 286 286 285 284 285 285 284 284 284 284 284 283 283 282 280 279 278 277 277 277 279 278 279 278 278 277
298 297 298 299 298 296 295 295 293 291 288 287 286 286 286 285 285 285 285 285 284 284 284 285 284 284 283 283 283 283 282 280 279 277 276 277 277 277 278 278 277 277 276
296 296 296 297 295 294 292 291 291 289 287 286 285 285 285 285 285 285 285 285 284 284 289 285 283 283 283 283 283 283 282 281 281 278 278 277 278 278 278 278 277 276 277
294 294 294 293 292 291 291 290 288 287 286 285 284 284 285 285 284 285 285 284 283 284 291 285 283 283 283 282 282 281 281 281 281 281 280 279 279 279 278 277 277 276 276
292 292 292 292 291 289 288 288 286 285 284 283 284 284 284 284 285 284 284 284 283 286 290 287 282 282 283 282 281 281 280 280 281 281 281 281 280 278 277 277 277 276 275
290 290 290 290 289 288 286 285 284 283 283 283 283 283 284 285 284 283 283 283 290 286 288 290 283 282 282 281 281 280 280 280 280 279 279 279 279 279 280 280 276 275 275
289 289 289 289 289 288 287 285 284 283 282 282 283 284 284 284 283 283 284 288 290 286 287 289 288 282 281 281 280 280 280 281 280 279 279 279 279 278 278 278 278 276 274
289 289 289 288 288 288 286 284 283 283 283 283 282 283 283 283 283 283 284 288 290 285 286 287 288 286 283 282 281 281 281 281 280 280 280 279 279 279 278 278 277 275 272
288 288 288 287 287 286 285 284 283 283 283 282 282 282 282 283 283 283 285 289 287 285 285 285 286 285 282 282 282 282 282 282 281 280 280 279 278 278 277 276 275 274 273
287 287 286 286 286 285 285 284 283 284 283 283 282 282 282 283 289 291 288 286 286 286 285 285 284 283 282 281 282 282 281 280 280 279 278 277 276 275 274 273 273 272 271
286 286 285 285 285 285 285 285 285 285 284 283 283 284 285 286 289 289 283 284 285 284 284 284 283 281 281 280 280 279 279 279 277 276 275 274 273 272 271 270 269 268 267
286 286 286 286 286 285 285 285 285 286 287 286 286 286 286 285 288 288 286 285 285 282 281 282 281 280 280 279 278 276 275 274 274 273 272 271 270 269 268 267 266 266 265
287 286 287 286 286 286 286 285 286 286 286 286 287 287 286 285 284 284 283 282 280 280 278 278 278 277 276 275 274 274 273 271 270 269 268 267 267 267 267 266 265 264 264
288 287 287 286 286 285 284 284 282 282 282 282 282 282 282 282 281 280 280 280 279 278 277 276 276 275 274 273 272 270 269 268 267 266 265 265 265 264 264 264 264 263 263
285 285 285 285 285 284 284 283 282 280 280 280 280 279 279 279 279 279 279 278 277 278 277 275 274 273 272 271 269 267 266 266 265 264 264 264 264 263 263 262 262 261 261
284 283 283 283 282 282 282 281 281 280 279 278 278 278 278 278 276 277 276 276 276 275 274 273 272 271 269 267 266 265 265 264 264 264 263 263 263 262 262 262 261 261 260
281 280 281 281 281 280 280 279 278 278 277 276 276 276 275 274 274 274 274 273 273 273 272 270 268 267 266 265 264 264 263 263 263 263 262 262 262 261 261 261 261 260 260
278 278 278 278 278 277 278 277 277 277 276 275 274 273 273 272 272 271 270 270 269 268 267 266 266 265 264 264 263 263 263 263 262 262 262 261 261 261 261 261 260 260 259
277 276 276 276 275 275 275 274 274 274 273 272 271 270 270 269 268 267 267 266 266 265 265 265 265 264 263 263 263 262 263 263 262 261 261 261 261 260 260 260 260 259 259
273 273 273 272 272 271 271 271 271 270 270 269 269 268 268 267 266 265 265 264 264 264 264 264 263 263 263 263 262 262 262 262 261 261 261 261 260 260 260 260 259 259 258
270 270 270 269 269 269 269 268 268 267 267 266 266 265 265 264 264 264 264 263 263 263 263 263 263 263 263 262 262 262 262 261 261 261 260 260 260 260 260 259 259 259 258
267 267 266 266 266 266 265 265 265 264 264 264 264 264 263 263 263 263 262 262 262 262 262 262 262 262 262 262 261 261 261 260 260 260 260 260 259 259 259 259 258 258 258
265 264 264 264 264 263 263 263 263 263 263 263 263 262 262 262 262 262 262 261 262 262 262 262 262 262 262 262 261 261 261 261 261 261 260 259 259 259 259 259 259 259 258

GFSGL_925_thetae_066.txt.gz
Theta_e
304 305 304 303 303 305 307 308 307 307 308 306 306 301 295 292 290 290 289 288 288 287 286 286 286 285 285 285 285 285 284 284 286 283 282 281 281 282 282 282 282 282 282
303 304 303 302 301 303 303 304 303 303 304 303 302 295 290 289 289 289 289 288 287 287 286 285 285 284 284 285 285 283 283 283 283 284 281 281 282 283 283 283 282 282 281
302 302 302 301 299 299 300 302 301 300 300 298 297 291 288 288 288 288 288 288 287 286 286 285 284 284 286 288 283 283 282 283 282 281 282 281 281 282 282 281 281 280 280
301 301 300 300 298 297 301 300 299 298 298 296 295 291 288 288 287 287 287 287 286 285 285 284 285 288 290 284 283 283 283 282 281 281 280 280 281 281 280 280 281 281 281
300 300 300 298 298 297 299 298 296 295 294 294 290 287 287 287 286 286 286 285 285 284 284 285 286 291 286 283 284 284 283 282 281 280 281 281 281 281 280 281 280 280 280
299 299 299 297 297 297 296 295 294 293 292 290 288 287 285 285 285 286 286 285 285 284 284 283 290 290 283 283 283 282 283 282 282 282 282 281 281 281 280 280 280 280 280
297 297 297 296 295 294 294 294 292 290 290 289 287 285 285 285 285 285 285 285 284 284 284 287 291 289 286 283 282 282 281 282 282 281 280 280 281 281 281 280 280 279 279
295 295 295 294 293 293 291 291 289 288 288 287 285 284 283 283 284 284 284 284 284 284 285 290 291 289 286 282 281 281 281 281 282 282 282 282 282 281 280 279 278 278 278
293 294 293 293 292 291 289 288 287 286 285 285 284 283 283 283 283 284 284 284 284 283 284 288 290 290 287 283 281 283 280 280 281 280 280 280 280 280 280 280 281 279 278
292 292 292 291 291 290 289 288 287 286 284 283 282 282 282 283 283 284 283 283 283 282 283 289 290 289 289 286 283 282 281 280 280 280 281 280 280 280 280 279 279 279 279
291 291 290 290 290 289 288 286 285 284 283 282 282 282 283 284 284 283 284 284 283 283 288 290 290 288 288 287 283 283 282 281 281 280 280 280 279 279 279 278 278 277 277
289 289 288 288 287 287 286 285 284 283 282 282 282 282 282 282 283 284 284 284 284 286 290 290 288 288 287 287 285 284 282 283 283 282 282 281 280 278 276 276 275 274 274
287 287 286 286 286 285 285 284 283 283 282 282 282 283 283 283 282 282 284 285 285 287 288 288 287 286 286 285 283 283 283 282 282 282 281 280 277 275 274 273 272 271 270
286 285 285 285 285 284 284 284 284 283 284 283 283 283 282 282 282 282 283 285 286 286 286 286 286 285 284 283 282 282 282 281 279 279 278 276 274 273 273 272 271 270 270
286 285 285 285 285 285 284 284 284 284 285 284 284 284 284 283 283 283 283 287 288 286 285 284 284 283 282 281 280 279 279 278 276 275 274 273 273 272 271 270 269 268 268
286 286 286 285 285 284 284 284 285 286 286 286 286 286 285 286 287 287 287 287 285 283 281 280 280 280 279 278 277 275 274 273 272 272 271 270 269 269 268 268 267 267 266
286 286 286 285 285 284 284 284 283 284 285 285 285 286 286 286 286 284 283 282 281 280 278 277 279 278 277 275 274 273 272 270 271 268 267 267 267 267 266 266 266 265 265
287 287 286 285 285 284 284 283 283 283 282 281 280 281 281 281 280 281 281 280 279 279 277 276 275 273 273 272 271 271 269 267 266 266 265 265 264 264 264 265 265 264 264
283 283 283 283 283 283 283 281 281 282 280 278 279 280 280 279 279 280 279 278 277 276 276 275 274 273 272 272 271 269 267 265 265 264 264 263 263 263 263 263 263 262 261
281 282 282 281 281 281 280 280 279 278 277 277 278 277 278 277 277 277 276 276 275 274 274 272 272 272 270 268 267 266 265 264 264 263 263 262 262 261 262 261 261 262 262
279 279 279 279 279 278 278 277 277 276 275 274 274 275 275 274 273 273 272 272 272 271 271 270 269 267 266 265 265 264 264 263 263 263 262 262 262 261 260 260 260 260 260
276 276 276 275 275 275 274 274 274 273 273 272 272 272 271 272 272 271 270 270 269 268 267 266 266 265 265 264 264 263 263 263 262 262 262 262 261 261 260 259 259 260 260
274 273 273 272 272 272 272 272 271 271 271 270 270 269 270 269 269 268 267 266 266 265 265 265 264 264 264 264 263 263 263 263 262 262 261 261 261 260 259 259 259 258 259
271 271 270 269 269 269 269 268 268 268 268 267 267 267 266 266 265 265 264 264 264 264 264 264 264 264 263 263 263 263 262 262 262 261 261 261 260 260 260 258 258 258 258
267 267 267 266 266 265 265 265 265 265 265 264 264 264 264 264 263 263 263 263 263 263 263 263 263 263 262 262 262 262 261 261 261 260 260 260 260 259 259 259 258 258 258
265 265 265 264 264 264 264 264 264 263 263 263 263 263 263 263 263 263 263 263 262 262 262 262 262 262 262 262 262 262 261 261 261 261 260 260 259 259 259 259 258 258 258

GFSGL_925_thetae_069.txt.gz
Theta_e
308 309 308 309 309 309 309 308 307 309 308 308 309 308 307 309 304 299 298 297 295 295 294 290 288 287 286 286 286 288 290 287 288 285 285 284 283 283 283 283 283 283 283
308 307 307 308 308 307 307 305 304 307 307 307 307 304 303 303 300 296 295 295 295 293 289 287 287 286 286 286 287 291 285 285 286 286 284 282 282 282 282 282 283 283 283
307 306 306 307 305 304 304 302 302 305 306 304 302 302 302 301 295 294 294 293 292 291 288 287 286 285 285 286 293 285 284 284 285 284 284 282 282 282 282 282 282 282 283
306 306 305 305 305 303 303 301 301 304 304 302 301 301 300 299 293 290 289 289 288 287 287 286 286 286 286 294 289 284 284 284 283 283 282 282 282 282 282 282 282 282 282
305 305 304 304 304 303 302 300 298 300 302 302 299 295 294 293 292 289 287 287 287 286 285 285 285 285 294 292 286 285 285 283 283 282 282 282 282 282 282 282 281 281 281
305 304 303 303 302 301 299 297 297 298 298 296 294 294 292 290 288 287 287 286 286 285 284 284 285 291 292 287 287 286 283 284 283 283 283 282 283 283 282 281 281 281 281
303 302 302 301 300 298 297 295 295 295 295 293 291 290 289 287 286 286 286 285 285 284 284 284 285 292 291 287 287 285 282 282 282 283 282 282 282 282 281 282 282 281 281
301 300 300 299 298 297 295 294 293 293 293 291 290 289 287 286 285 286 285 285 284 284 284 285 287 292 291 291 287 285 282 282 282 283 282 282 282 282 282 282 281 280 279
298 297 297 297 296 294 293 292 291 291 290 289 288 287 286 285 284 285 284 284 284 284 284 285 289 291 292 291 288 282 281 281 282 284 282 282 282 282 282 281 281 281 282
295 295 295 295 294 293 292 291 290 289 288 287 286 285 284 284 285 285 284 283 283 283 283 284 290 290 291 291 289 283 283 283 283 284 285 281 280 281 281 281 280 280 280
292 293 293 293 292 292 291 290 288 287 286 285 284 284 283 283 285 285 285 284 283 283 283 284 287 287 290 290 289 287 286 285 283 282 281 281 281 281 280 279 278 278 278
290 290 290 290 290 289 289 287 287 285 284 283 283 282 282 283 284 285 285 284 284 284 284 283 283 287 290 289 288 286 286 284 283 282 282 282 282 281 279 277 276 275 274
288 287 287 287 287 287 287 285 284 284 283 282 282 282 282 282 283 285 286 285 284 283 284 284 285 288 289 288 286 286 285 284 284 284 283 283 281 278 277 275 274 273 272
286 286 286 286 285 285 285 285 284 284 284 283 283 283 282 282 283 284 285 286 286 285 285 286 287 287 287 286 284 284 283 283 283 283 281 280 278 276 274 273 272 271 270
286 286 286 286 286 285 285 285 285 285 285 284 284 284 284 283 283 283 284 285 286 286 286 286 286 286 285 284 283 282 281 281 280 279 278 276 275 274 272 271 270 269 268
286 286 286 286 286 285 285 285 285 285 285 285 286 286 285 286 286 286 284 284 284 285 285 285 283 283 283 282 280 279 279 277 276 276 274 273 272 271 270 269 268 267 267
286 286 286 285 285 285 285 285 283 284 285 286 286 286 286 286 286 286 285 285 285 285 283 282 281 281 281 280 279 278 276 274 273 272 271 270 269 268 268 267 267 266 266
286 286 285 285 285 285 285 285 284 283 283 281 281 282 283 283 283 283 283 283 283 282 281 280 278 279 278 276 275 274 273 272 271 270 268 267 267 266 266 266 266 265 265
284 283 284 284 284 284 284 284 284 283 281 280 280 280 279 279 281 281 281 280 279 277 277 276 275 274 273 273 272 271 271 270 268 267 266 266 265 264 264 264 264 264 263
281 281 281 281 281 281 281 280 280 280 279 280 280 277 277 277 277 277 277 276 275 274 274 273 273 273 272 271 270 270 268 266 266 265 265 264 264 263 263 263 262 262 262
277 277 278 278 277 277 277 277 277 277 277 277 275 274 275 275 274 274 273 273 273 272 272 271 271 270 270 269 267 266 266 265 265 264 263 263 263 262 262 262 262 262 261
275 275 275 274 274 274 274 274 274 274 274 273 272 272 272 273 272 272 271 271 271 270 269 268 267 267 266 266 266 265 265 264 264 263 263 262 262 262 261 261 260 260 260
273 273 273 272 272 271 272 271 271 271 271 270 270 270 270 270 269 269 268 268 267 266 266 266 266 265 265 265 264 264 263 263 263 262 262 262 262 261 260 260 260 260 260
270 270 269 269 269 269 268 268 268 267 267 267 267 267 266 266 266 266 266 265 265 265 265 265 265 264 264 264 264 263 263 263 262 262 262 261 261 261 260 259 259 259 259
268 267 267 267 266 266 266 266 265 265 265 265 265 265 264 264 264 264 264 264 264 264 264 264 264 264 263 263 263 263 263 262 262 262 261 261 261 260 259 259 259 259 258
266 266 265 265 265 265 264 264 264 264 264 264 264 264 264 264 264 264 264 263 263 263 263 263 263 263 262 262 262 262 262 262 261 261 260 260 260 259 259 259 259 258 258

GFSGL_925_thetae_072.txt.gz
Theta_e
309 310 310 311 311 311 312 313 312 311 310 309 311 313 311 309 308 307 306 306 305 304 301 300 298 297 292 289 289 289 289 290 286 285 286 285 284 283 283 284 284 284 284
309 309 309 310 309 309 310 311 310 310 309 309 309 310 311 309 307 304 304 305 304 302 300 297 296 293 289 288 288 288 289 292 288 284 284 284 284 283 284 284 284 284 284
308 308 308 308 308 308 309 309 308 308 307 307 307 307 309 308 305 302 302 302 301 300 297 296 295 291 286 286 287 289 293 287 287 286 284 283 283 283 283 283 283 283 283
308 308 308 307 307 307 307 307 307 305 305 304 305 306 306 305 302 300 297 297 296 294 294 294 293 289 286 286 288 292 286 285 286 286 284 283 283 283 283 283 283 283 283
307 307 307 307 306 306 306 305 304 303 302 302 303 302 302 300 299 297 295 295 293 291 290 290 287 286 286 286 294 286 285 287 286 284 283 283 283 282 282 283 283 282 282
306 306 306 306 305 305 305 304 303 301 300 299 299 299 299 297 297 296 294 291 291 290 288 287 286 285 285 294 290 288 289 291 284 283 283 283 283 283 283 283 282 281 281
305 305 305 305 304 304 303 302 301 299 298 296 296 296 295 295 295 293 289 288 288 288 286 285 284 284 292 291 288 288 289 287 283 284 284 284 284 283 283 282 281 282 281
303 304 303 303 303 302 302 301 299 297 295 294 294 294 293 292 290 288 288 288 286 285 285 285 284 287 292 292 287 288 289 287 286 284 283 283 283 283 282 282 282 282 281
299 300 300 300 300 300 299 297 296 294 292 292 292 291 290 289 288 287 286 285 285 285 285 284 284 289 292 291 290 291 289 289 287 282 282 283 286 283 283 283 282 281 281
296 296 296 296 297 297 296 295 293 292 291 290 289 288 287 287 286 287 285 284 283 284 283 283 284 290 292 291 291 291 288 291 284 281 283 284 284 283 282 282 281 281 280
292 292 293 294 294 294 293 292 291 290 289 287 287 286 286 286 285 287 285 283 285 284 283 283 283 290 291 291 291 290 290 289 286 284 284 283 283 281 281 281 280 280 278
290 291 291 291 291 291 291 289 288 288 286 285 284 284 284 284 285 286 285 284 284 283 283 284 284 289 290 289 289 290 289 286 285 284 283 282 282 282 281 280 279 278 277
288 288 288 288 289 289 288 287 285 285 284 283 283 282 282 283 285 286 286 285 284 284 284 283 284 287 288 287 288 287 287 286 285 284 283 282 282 281 279 278 276 275 274
287 286 286 286 286 286 286 285 285 284 283 283 282 282 282 282 283 284 285 285 285 285 284 284 285 285 285 287 287 287 286 285 285 284 284 283 281 279 277 276 274 273 272
286 286 285 285 285 285 285 285 285 284 284 284 284 284 283 282 283 284 285 286 286 285 285 285 286 286 285 286 286 286 284 283 283 283 282 280 278 276 275 274 272 271 269
285 285 285 285 285 285 285 285 285 285 285 285 285 285 284 285 285 284 285 285 286 286 286 286 286 286 285 285 284 284 282 282 281 280 279 278 276 275 273 271 270 269 268
286 286 286 285 285 285 285 284 283 284 285 286 286 286 285 286 285 284 285 285 285 285 285 285 284 284 283 282 282 281 280 278 278 277 276 274 273 272 270 269 268 267 267
286 286 285 285 285 285 285 284 283 283 281 280 282 283 283 285 285 285 285 285 285 284 283 282 281 280 280 280 279 278 277 276 275 274 273 272 271 269 268 267 266 266 266
284 284 284 284 284 284 284 284 283 282 280 279 280 281 280 280 281 282 282 282 281 279 279 279 278 278 277 276 276 275 274 273 272 272 271 270 268 267 266 266 265 265 265
280 280 281 281 282 282 282 282 280 280 280 278 277 277 278 279 279 279 278 278 278 277 276 276 275 275 274 273 273 272 271 271 270 270 268 267 266 266 265 264 264 264 263
278 278 279 279 279 278 278 278 278 278 277 275 274 276 276 277 275 275 275 274 274 273 273 273 273 272 272 272 271 271 270 269 267 266 266 265 265 264 264 263 263 262 262
276 275 275 275 275 275 274 275 275 274 273 272 272 272 271 273 272 272 271 271 271 271 271 271 270 269 268 268 267 267 266 266 265 265 265 264 264 263 263 262 262 262 261
274 273 272 272 271 271 272 271 271 271 270 270 270 270 270 270 270 270 270 269 268 267 267 267 266 266 266 266 265 265 265 265 264 264 263 263 263 262 262 261 261 261 260
270 270 269 269 269 268 268 267 267 267 267 267 267 267 267 267 267 266 266 266 266 266 266 265 265 265 264 264 264 264 263 263 263 263 263 262 262 262 261 261 260 260 260
268 267 267 266 266 266 266 266 266 266 266 266 265 265 265 265 265 265 265 265 264 264 264 264 264 264 263 263 263 263 263 262 262 262 262 261 261 261 260 260 260 260 259
267 266 266 266 265 265 265 265 265 265 264 264 264 264 264 264 264 264 263 263 263 263 263 263 262 262 262 262 262 262 262 262 262 261 261 260 260 260 260 259 259 259 259

GFSGL_925_thetae_078.txt.gz
Theta_e
310 310 310 311 311 311 312 313 313 314 314 314 313 313 313 312 309 309 309 309 309 308 306 305 305 303 301 299 298 297 297 295 295 286 286 286 287 287 285 285 284 283 283
310 310 310 309 309 310 310 311 311 312 312 313 312 312 312 311 309 307 307 307 307 307 307 305 304 303 301 299 297 295 294 294 291 286 286 286 286 285 285 285 284 284 283
309 309 309 309 309 309 309 309 310 310 311 311 310 310 311 311 309 307 305 306 306 307 307 305 303 302 300 298 296 294 292 289 291 289 286 286 285 285 284 284 284 284 283
308 308 308 309 309 309 308 308 308 308 309 309 309 309 310 309 309 307 305 304 304 305 304 303 303 302 301 297 294 291 289 290 290 289 285 286 284 284 283 283 283 283 283
305 305 306 307 307 307 307 307 307 307 307 307 307 308 308 308 307 306 304 302 301 302 302 301 301 301 300 299 293 291 291 290 287 287 286 284 283 282 283 283 283 283 282
302 303 304 304 304 305 305 305 305 305 305 305 306 306 306 306 305 304 303 301 300 299 298 298 297 296 295 295 292 292 294 289 288 287 285 284 283 283 282 282 282 282 281
298 298 299 300 301 301 302 302 303 303 303 304 304 303 303 303 302 300 299 297 296 296 295 294 293 292 292 291 290 290 290 289 290 289 284 284 285 285 284 283 283 283 283
296 296 296 296 297 298 299 300 301 301 302 302 302 302 301 300 299 296 295 293 293 292 292 292 291 291 290 290 288 287 288 287 286 285 287 289 287 286 285 285 284 284 283
294 293 293 293 293 295 296 297 298 299 299 299 300 299 297 297 296 293 291 290 290 289 289 289 289 289 289 288 287 286 285 285 285 287 287 287 287 286 285 284 284 282 281
291 291 291 292 292 293 294 295 295 295 296 295 295 294 293 293 293 292 290 290 288 287 287 286 287 288 288 286 286 285 284 285 286 286 285 285 284 284 283 284 284 282 282
289 289 290 290 291 292 292 292 292 293 293 292 291 291 290 289 289 288 289 289 287 285 284 284 285 286 287 286 286 286 286 287 287 286 287 285 284 284 284 284 284 283 282
288 288 288 289 290 290 291 290 291 290 289 288 287 287 287 286 286 286 288 287 285 284 284 284 285 286 286 287 286 286 287 290 288 286 286 285 285 284 284 283 283 282 282
286 287 287 287 288 289 289 289 289 288 287 286 285 284 285 285 284 286 288 285 285 284 284 284 284 286 286 287 286 287 288 287 286 285 285 286 286 285 284 282 281 280 280
286 286 286 286 286 287 287 287 287 285 285 284 284 283 283 284 284 285 287 286 285 284 284 284 285 286 287 287 287 287 287 287 287 286 286 286 285 283 282 282 280 278 277
284 285 284 284 284 285 285 285 285 285 284 284 284 284 283 283 284 285 286 285 285 284 284 284 285 285 286 286 287 286 286 287 286 286 286 285 283 281 280 279 279 276 276
284 284 284 285 284 285 284 285 285 285 285 285 285 284 284 283 283 285 285 285 284 284 283 284 285 285 286 286 286 286 286 286 285 285 284 283 282 280 278 277 277 276 275
283 285 285 285 285 284 285 284 283 285 285 285 285 285 285 284 285 285 286 285 285 285 285 285 285 285 285 285 285 285 285 284 283 282 282 281 280 278 277 276 274 273 272
284 286 285 285 284 284 284 283 283 282 280 281 283 284 285 285 285 286 286 286 285 286 285 285 285 285 284 284 283 283 282 281 280 280 279 278 277 276 275 274 273 271 270
283 284 284 284 284 284 283 282 281 280 279 279 281 282 283 284 285 285 285 285 283 282 282 282 281 281 280 280 280 279 279 278 278 277 276 276 275 274 273 272 271 270 268
280 282 283 283 283 282 282 280 279 278 277 277 277 278 280 282 281 279 279 279 279 278 278 278 277 277 276 276 276 276 275 275 275 274 273 273 272 271 271 270 269 267 267
278 280 281 282 281 280 280 279 278 277 276 275 275 275 277 278 275 275 275 275 274 274 274 274 274 274 274 273 273 273 272 272 271 271 270 270 269 269 268 267 266 266 265
276 276 277 278 277 278 277 276 276 275 274 273 273 272 274 274 273 273 272 272 271 271 271 271 271 270 270 270 269 269 269 268 268 268 267 267 266 266 265 265 265 264 264
275 274 274 274 274 274 274 274 273 273 272 271 271 271 272 271 271 270 269 269 269 268 268 268 268 267 267 266 266 266 266 265 265 265 265 264 264 264 264 264 263 263 262
273 272 272 271 271 271 271 271 271 270 270 269 269 268 267 267 267 267 266 266 266 266 266 266 265 265 265 265 265 264 264 264 264 263 263 263 263 263 262 262 262 262 262
271 270 270 269 269 268 268 268 267 267 267 266 266 266 266 265 265 264 264 264 264 264 264 264 264 264 264 264 263 263 263 263 263 262 262 262 262 262 261 261 261 261 261
268 268 268 267 267 266 266 266 266 265 265 265 265 264 264 264 264 263 263 263 263 263 263 263 263 263 263 263 263 263 263 262 262 262 261 261 261 261 261 261 260 260 260

GFSGL_925_thetae_081.txt.gz
Theta_e
309 309 309 310 310 310 310 310 311 311 312 312 313 313 313 313 312 311 309 310 310 310 308 307 306 306 304 303 302 300 298 298 300 301 292 289 288 286 284 287 286 285 284
306 307 308 309 309 309 309 309 309 309 310 310 311 311 312 311 311 309 308 308 308 308 308 307 305 305 304 303 301 299 297 297 297 299 288 287 286 287 284 285 285 285 285
305 306 306 307 307 307 307 308 308 308 308 308 309 309 309 310 309 307 307 307 307 307 307 305 305 304 302 302 301 299 296 295 294 293 286 285 284 285 284 285 286 285 284
303 304 304 305 304 304 304 305 305 306 306 307 307 308 308 308 308 308 306 306 306 305 305 305 304 303 302 302 301 299 296 293 291 290 288 285 285 286 285 283 282 282 284
300 300 299 299 301 302 303 303 303 303 304 304 305 306 306 306 306 306 305 305 304 303 303 303 302 303 303 303 300 297 295 292 289 289 286 285 284 283 282 282 282 283 283
297 298 298 297 298 299 299 300 300 301 302 302 302 303 303 304 305 305 305 303 303 301 300 300 300 299 299 299 298 297 296 292 289 288 286 286 284 284 283 282 282 282 282
295 294 295 295 295 295 296 297 298 298 299 301 301 302 302 302 303 302 302 300 299 298 297 297 296 296 296 295 294 293 291 291 291 290 287 287 285 284 283 282 283 285 284
294 293 292 291 292 293 293 294 295 296 297 298 299 300 300 300 301 299 298 296 294 294 294 293 293 293 293 292 291 290 289 289 290 288 288 289 289 286 284 287 285 283 284
291 290 290 290 290 291 292 292 293 294 294 295 296 296 296 297 297 296 295 292 291 291 292 291 290 290 290 290 289 288 287 287 287 288 288 287 287 288 287 286 284 283 282
290 290 290 289 289 290 290 291 290 290 291 292 293 294 293 293 293 292 291 289 289 289 289 288 288 288 288 287 287 286 285 286 286 285 286 287 287 287 287 286 285 283 282
290 290 290 289 289 289 289 290 290 290 290 291 291 291 291 290 291 290 289 289 289 288 286 286 286 286 287 287 286 286 286 286 286 286 286 286 286 285 285 284 284 284 283
290 290 289 288 288 287 288 288 288 289 288 288 288 289 288 287 287 287 287 289 288 287 286 285 285 285 286 287 286 286 286 286 286 286 285 285 284 283 284 284 284 284 283
286 287 287 286 286 286 286 286 287 287 287 286 285 285 286 286 285 285 287 288 287 286 285 284 284 285 286 287 286 286 286 286 286 285 284 284 285 285 284 283 282 281 281
282 282 284 283 284 284 285 285 285 285 285 285 284 284 284 284 284 285 286 286 286 285 284 284 284 285 286 287 286 286 287 287 287 286 286 285 284 284 283 282 281 280 279
281 282 283 284 285 285 284 284 284 284 284 284 284 284 283 283 284 285 286 286 285 284 284 284 285 286 287 286 286 286 286 286 285 286 285 285 284 283 282 281 280 278 277
279 281 283 284 285 285 284 285 285 286 286 285 285 284 284 284 284 286 285 285 285 284 284 284 284 285 285 285 286 285 285 285 285 285 285 284 283 282 280 278 278 277 276
278 279 280 283 285 284 284 284 284 285 285 285 286 285 285 284 285 285 286 285 285 284 284 284 285 285 285 286 286 285 285 284 284 283 282 282 281 279 278 277 276 275 274
278 279 281 284 285 284 284 284 283 283 282 282 283 283 284 285 286 286 286 286 285 285 284 283 283 283 283 283 282 282 282 281 281 280 279 279 278 278 277 276 275 274 273
277 278 281 283 284 284 283 282 282 281 280 279 281 283 284 284 285 285 285 284 281 280 280 280 279 280 279 279 279 279 278 278 277 277 277 276 276 275 274 274 273 271 271
276 277 279 282 283 283 282 281 279 278 277 276 277 278 280 282 281 279 279 278 278 276 276 276 276 276 276 276 276 275 275 275 274 274 273 273 272 272 271 271 270 270 269
275 277 278 280 281 281 280 279 278 277 275 275 274 275 278 278 275 275 275 274 274 274 273 273 273 274 273 273 273 273 272 272 271 271 271 270 270 269 269 268 267 266 266
274 276 277 278 278 278 278 277 276 275 274 273 273 272 274 274 273 272 271 271 270 270 270 270 270 270 269 269 269 269 269 268 268 267 267 266 266 265 265 265 265 264 264
273 274 274 275 275 275 275 274 274 273 272 272 272 272 271 271 270 269 268 267 267 267 267 267 267 267 267 267 267 267 267 266 266 265 265 264 264 264 264 264 263 263 263
271 272 272 272 272 272 272 271 271 270 270 269 268 268 267 267 267 266 266 266 266 267 267 267 267 267 266 266 266 266 265 265 265 264 264 263 263 263 263 262 262 262 262
269 269 269 269 269 269 269 268 268 267 266 266 266 266 266 266 266 266 265 266 266 266 266 266 265 265 265 264 264 264 264 263 263 263 263 263 262 262 262 262 261 261 261
267 267 267 267 267 267 266 266 266 266 265 265 265 265 265 264 264 264 265 265 265 265 264 264 264 264 263 263 263 263 263 263 263 262 262 262 261 261 261 261 260 260 260

GFSGL_925_thetae_084.txt.gz
Theta_e
306 306 306 306 307 307 307 307 307 307 308 309 309 310 311 311 312 312 312 313 312 312 311 310 309 308 307 306 304 303 302 301 301 303 302 300 297 294 290 288 288 288 289
303 304 305 305 306 306 305 305 305 306 306 306 307 307 308 309 310 310 310 309 308 308 309 309 307 307 306 306 305 302 301 300 300 300 301 294 293 293 290 289 287 286 287
302 303 304 304 304 304 303 303 304 304 305 305 305 305 306 306 307 307 307 307 307 307 307 307 308 307 306 304 304 303 300 300 298 298 299 290 289 288 287 286 285 285 285
298 298 298 299 299 300 301 301 302 302 302 302 302 303 304 304 304 304 304 304 303 304 305 306 306 306 305 304 303 302 300 298 297 295 294 288 288 286 285 284 283 283 284
295 295 294 295 296 296 297 298 299 300 300 301 302 302 301 302 302 303 302 301 301 302 303 303 304 304 303 303 302 300 299 297 294 292 292 287 286 284 284 283 283 282 282
297 296 295 295 295 295 296 296 296 297 297 298 299 299 300 301 301 301 300 298 299 300 299 300 300 300 300 300 299 299 299 297 293 292 292 289 288 285 284 283 283 282 282
296 296 295 294 294 294 294 294 294 294 295 295 296 297 298 299 300 300 300 298 297 297 297 297 297 297 297 296 296 296 295 295 295 293 292 289 288 286 285 283 283 283 283
296 295 294 293 292 292 291 292 293 293 292 292 292 293 294 296 297 297 297 296 295 295 295 294 294 293 293 293 292 292 292 292 291 291 290 290 288 287 287 285 283 283 284
294 293 293 291 290 290 289 288 289 290 290 291 291 291 292 293 294 294 294 293 292 292 292 292 291 290 290 290 289 289 289 289 289 290 290 289 288 287 286 284 283 284 282
291 291 291 290 289 289 288 288 288 288 289 289 289 290 290 291 291 291 290 289 289 290 290 289 289 288 288 288 288 288 287 287 287 286 286 286 286 286 286 286 285 284 282
289 290 290 289 288 287 286 287 287 286 287 287 288 288 289 289 289 289 288 287 288 289 288 288 287 286 287 287 287 288 286 286 286 286 286 286 286 285 285 286 286 286 284
287 287 287 288 286 286 286 285 285 285 286 286 287 287 288 287 287 287 287 287 288 288 287 286 285 285 286 287 287 287 286 285 285 285 285 285 285 285 285 285 285 284 284
286 286 284 283 283 284 283 283 284 284 284 285 285 285 285 285 285 285 285 287 287 286 285 285 284 285 286 287 287 286 286 285 286 285 285 285 286 286 285 284 283 282 282
283 283 282 283 283 284 285 285 284 284 284 284 283 283 284 284 284 285 286 286 286 285 284 284 284 285 286 286 286 286 286 286 286 286 285 286 286 284 283 283 281 280 279
281 281 281 281 283 284 285 285 284 284 285 284 284 283 283 283 284 285 286 285 285 284 284 284 285 286 286 286 286 285 285 286 286 286 286 285 284 283 282 280 280 278 278
279 278 278 279 279 282 284 285 284 284 284 285 285 285 284 284 284 285 285 285 284 284 284 284 285 285 285 285 285 285 285 285 285 285 284 283 282 281 280 278 278 277 276
277 277 277 277 279 281 282 284 283 284 284 285 284 285 284 285 285 286 286 285 285 285 284 284 284 284 283 283 283 283 281 282 282 282 282 281 280 279 278 277 276 276 274
275 276 276 276 278 280 283 283 283 283 283 283 283 282 283 285 286 286 285 286 284 283 282 281 280 280 280 280 280 280 279 279 279 278 278 278 277 277 276 275 274 274 273
274 274 275 276 278 281 282 282 282 281 280 279 281 281 281 281 284 285 285 283 279 277 277 277 277 277 277 277 277 277 277 277 276 276 275 275 275 275 274 273 273 272 271
273 274 274 276 278 280 281 281 280 279 278 277 277 278 279 281 280 278 277 277 276 274 274 274 274 274 274 275 275 274 274 274 273 273 273 272 272 272 271 271 270 270 269
271 272 274 275 277 279 280 280 279 278 276 275 274 275 275 276 273 273 272 272 272 272 272 273 273 273 272 272 272 272 272 271 271 270 270 270 269 269 268 268 268 267 266
271 272 273 274 276 277 278 278 277 276 274 273 272 271 273 273 271 270 270 270 269 269 269 269 269 269 268 268 268 268 268 267 267 266 266 266 266 266 265 265 265 265 265
270 271 272 273 273 274 274 274 274 273 272 271 270 270 270 270 269 269 268 268 267 268 268 268 268 268 268 267 267 267 266 266 266 265 265 265 265 264 264 264 264 263 263
269 270 270 271 271 272 272 271 271 270 270 269 269 268 268 267 267 267 267 267 267 267 267 267 266 266 266 266 266 265 265 265 264 264 264 264 263 263 263 263 262 262 262
268 268 269 269 269 269 269 268 268 268 268 268 267 266 266 266 266 266 266 266 266 266 266 265 265 265 265 264 264 264 264 264 264 263 263 263 262 262 262 262 262 261 261
266 266 266 266 266 267 267 267 266 266 266 266 265 265 265 265 265 265 265 265 265 265 264 264 264 264 264 264 264 263 263 263 263 262 262 262 262 262 262 261 261 260 260

GFSGL_925_thetae_087.txt.gz
Theta_e
302 303 303 303 304 304 304 304 304 305 305 306 306 306 307 308 308 309 309 311 312 311 312 312 312 311 310 308 307 306 305 304 304 306 305 304 303 303 302 302 300 296 294
302 302 302 302 303 302 302 301 301 302 303 303 304 304 305 305 305 306 307 307 307 308 309 309 309 308 307 307 307 305 304 303 303 303 303 302 301 300 299 299 297 294 291
303 303 303 303 303 302 302 302 301 300 300 300 300 301 301 302 303 304 304 304 304 305 306 306 307 306 306 306 306 305 304 302 301 301 302 300 297 296 294 291 290 289 288
298 298 298 298 299 299 299 299 299 299 299 299 299 299 299 300 300 301 301 300 300 301 303 304 304 304 305 305 305 304 304 302 300 299 299 298 292 291 290 288 286 285 285
295 295 295 296 296 296 297 297 298 298 297 297 297 298 298 298 298 298 299 299 297 298 299 300 301 302 303 304 304 302 302 300 299 297 297 294 289 287 286 286 286 284 284
294 294 293 293 293 293 294 294 294 295 295 295 294 294 295 295 296 297 298 295 296 297 297 298 298 298 299 299 299 299 299 298 297 297 296 295 292 288 287 286 284 282 283
295 295 294 294 294 293 293 293 293 293 292 292 292 292 292 292 293 294 295 295 295 295 295 295 295 296 296 296 296 295 295 295 295 296 294 294 292 290 289 285 284 284 283
294 294 293 292 292 292 291 291 290 290 290 290 290 290 290 291 291 291 292 293 292 293 293 293 293 292 292 292 292 291 292 292 292 293 294 292 292 291 290 287 284 283 283
294 294 293 292 292 292 291 291 290 289 288 288 288 288 288 289 290 290 291 291 291 291 292 292 290 290 290 290 289 289 289 289 290 290 291 290 290 289 288 284 283 284 283
291 291 291 291 290 290 289 289 288 287 287 287 287 287 287 288 289 290 290 288 288 289 289 289 289 289 288 288 288 288 288 288 287 288 287 287 287 286 285 285 284 285 283
289 289 289 288 287 287 286 286 286 285 285 285 286 286 287 287 287 287 287 287 287 287 287 288 288 287 287 287 287 287 287 287 286 286 286 285 285 284 284 284 285 285 285
287 287 287 286 284 283 283 284 284 283 283 282 284 284 285 285 285 285 286 286 287 288 287 286 286 285 285 286 287 287 286 286 286 286 285 285 284 284 284 285 285 285 285
286 286 286 285 285 284 284 284 285 285 283 282 283 282 283 284 285 284 285 286 287 286 285 285 285 285 286 286 286 286 286 285 285 285 284 284 284 284 283 283 283 283 283
284 284 283 283 283 283 282 283 285 284 284 284 283 283 283 284 284 285 285 286 285 285 284 284 285 285 286 286 286 286 285 285 285 284 284 284 284 284 283 283 281 281 280
281 280 280 280 280 280 281 282 284 284 285 284 284 284 284 284 284 284 285 285 284 284 284 285 285 286 286 285 285 284 284 285 285 285 285 285 284 283 282 281 280 279 278
278 278 277 277 277 278 279 281 282 284 284 283 283 284 285 284 284 285 285 285 284 284 284 284 284 284 284 284 284 284 284 285 285 285 284 284 282 281 280 279 278 278 276
276 276 275 275 275 276 277 281 280 283 283 282 283 284 285 285 285 286 285 285 284 284 283 282 281 281 281 281 281 281 280 280 282 282 281 280 280 279 278 277 276 276 274
274 274 274 274 274 274 276 278 280 281 281 282 283 282 283 283 285 286 285 285 283 281 279 278 277 278 278 278 278 278 278 278 278 278 278 277 277 277 276 275 275 274 273
272 272 272 273 273 274 275 277 280 281 280 280 280 281 281 281 282 284 284 282 278 276 276 275 275 275 275 276 276 276 275 275 275 275 275 275 275 275 274 273 273 272 272
271 271 271 271 272 273 275 277 279 279 279 278 277 278 279 279 278 277 277 276 275 274 274 274 274 274 274 274 274 274 274 274 273 273 273 273 272 272 272 271 271 270 269
269 270 271 271 272 273 275 277 279 278 276 275 274 274 276 277 274 273 273 273 273 273 272 272 272 272 271 271 271 270 270 270 269 269 269 269 269 269 268 268 268 267 267
268 268 269 270 272 273 274 276 277 276 274 273 272 271 273 273 272 271 271 270 269 269 269 269 269 268 268 268 268 268 268 268 267 267 267 267 266 266 266 266 265 265 265
267 268 269 270 271 272 273 274 274 274 272 272 271 271 271 270 269 269 268 267 267 267 267 267 267 267 267 267 266 266 266 266 266 266 266 265 265 265 265 265 264 264 263
267 267 268 269 270 270 271 271 271 271 270 270 270 269 269 269 267 267 266 266 266 266 266 266 266 265 265 265 265 265 265 265 265 264 264 264 264 264 264 263 263 263 262
266 266 267 267 267 268 268 268 268 268 268 268 268 268 267 266 266 266 266 266 265 265 265 265 265 264 264 264 264 264 264 264 264 263 264 263 263 263 263 262 262 262 261
265 265 265 265 266 266 266 266 266 266 266 266 266 266 265 265 265 265 265 265 264 264 264 264 264 263 263 263 263 263 263 263 263 263 263 262 262 262 262 261 261 261 260

GFSGL_925_thetae_090.txt.gz
Theta_e
301 301 302 302 302 302 301 301 301 301 301 302 302 303 303 304 304 305 306 308 309 310 311 311 311 311 311 310 309 308 307 307 306 308 308 307 306 306 305 305 305 304 304
301 301 301 301 301 300 300 300 300 300 300 300 299 300 300 301 301 301 302 303 304 305 306 307 307 308 308 308 308 307 306 306 305 306 306 305 304 304 303 302 302 301 301
299 299 298 299 299 299 299 299 299 299 299 299 298 298 298 298 298 298 299 300 301 302 302 302 303 305 305 305 306 305 306 305 305 304 304 304 303 302 300 299 298 297 296
297 297 297 296 296 296 296 296 296 296 297 297 297 297 296 296 296 296 296 297 297 297 298 299 299 301 302 303 303 303 303 304 303 301 301 301 300 297 295 293 292 292 291
296 295 295 295 295 295 295 295 295 295 295 295 295 295 295 295 294 294 294 294 294 294 295 296 297 298 299 299 300 301 301 301 300 300 299 299 296 290 290 292 289 289 288
294 293 293 293 293 293 293 293 293 293 293 293 293 292 293 293 293 292 292 292 292 292 293 293 294 296 297 297 297 297 297 297 297 297 298 298 297 295 291 290 288 285 286
292 292 292 293 293 292 292 292 292 291 291 291 291 290 290 291 291 290 290 291 291 291 291 292 293 293 294 294 294 294 294 294 294 294 294 295 295 295 292 288 287 286 287
293 292 292 292 292 292 291 291 290 289 289 289 289 289 288 289 289 289 289 289 289 290 290 291 291 291 290 291 290 290 291 291 291 291 291 291 292 293 292 291 288 286 284
292 291 291 290 290 290 290 289 288 288 287 287 287 288 288 289 289 288 288 288 288 288 289 289 289 289 289 289 288 288 289 289 289 289 289 290 290 290 290 288 285 284 285
291 291 291 290 290 289 289 288 288 286 285 285 286 288 287 287 287 287 286 286 287 287 287 288 288 288 287 287 287 288 288 288 288 287 287 288 288 288 287 287 285 285 284
291 290 289 289 288 287 286 286 286 285 285 285 284 285 285 286 286 286 285 285 286 286 287 288 287 286 286 286 287 287 288 287 287 286 286 286 285 285 285 284 285 285 286
288 288 287 287 286 286 285 285 285 285 285 285 284 284 284 284 285 285 284 285 286 287 287 286 286 286 286 286 287 287 287 286 286 286 286 285 285 284 284 284 284 285 285
286 285 285 285 284 284 283 283 283 285 285 286 284 284 284 284 284 285 285 285 286 285 285 284 284 285 285 286 286 286 286 285 286 286 286 284 284 283 283 283 283 283 283
283 283 282 282 282 282 281 281 282 283 285 285 285 285 285 285 285 284 285 285 285 284 284 285 285 285 286 285 285 285 285 285 285 285 284 283 283 282 282 281 280 280 279
280 279 279 278 277 278 279 280 281 282 283 284 285 284 284 285 285 284 285 285 284 284 284 285 285 286 286 285 285 284 285 285 285 284 284 283 282 281 280 280 280 279 278
276 275 275 275 275 276 277 278 280 282 282 283 284 283 283 285 285 285 285 285 284 284 284 285 284 284 284 284 284 283 282 283 283 283 283 282 281 280 279 279 278 278 277
273 273 272 272 273 274 275 277 278 280 281 282 283 282 282 282 284 285 286 285 284 284 282 281 281 280 280 280 279 279 279 280 281 281 280 279 279 278 278 277 277 277 275
272 272 272 271 272 273 274 275 276 278 280 281 282 282 281 281 283 285 285 284 282 281 279 277 277 277 277 277 277 277 278 278 278 278 278 277 277 277 277 276 275 275 274
271 270 271 270 270 271 271 273 275 277 279 280 280 280 280 279 280 282 283 282 278 277 276 276 276 276 276 276 276 276 276 276 275 275 275 275 275 274 273 273 272 272 272
271 271 271 270 269 270 272 273 275 277 279 279 278 278 278 278 277 278 277 277 276 275 274 274 274 274 274 274 273 273 273 274 273 273 273 273 273 272 272 271 271 270 270
268 268 269 268 269 270 271 272 274 276 278 277 276 275 275 276 274 273 273 273 273 273 273 273 272 272 271 271 271 270 270 270 270 269 269 269 269 269 269 268 268 268 267
267 266 267 267 268 270 271 272 274 276 276 275 273 273 272 273 272 271 271 271 271 271 270 269 269 269 269 269 269 269 269 268 268 268 267 267 267 267 266 266 266 265 265
266 266 267 268 268 269 270 272 273 274 273 272 271 271 271 270 270 270 269 269 268 268 268 268 268 268 268 268 267 267 267 267 266 266 266 266 266 265 265 265 264 264 264
266 266 266 267 268 268 269 270 270 270 270 270 269 269 268 268 268 268 267 267 267 267 267 267 267 266 266 266 266 266 265 265 265 265 265 264 264 264 264 264 263 263 263
265 265 265 265 266 266 267 267 267 267 267 267 267 267 267 266 266 266 266 266 266 266 266 266 265 265 265 265 265 264 264 264 264 264 264 264 263 263 263 263 263 262 262
264 264 264 264 264 264 265 265 265 265 265 265 266 266 266 266 265 265 265 265 265 265 265 264 264 264 264 264 263 263 263 263 263 263 263 263 263 263 263 262 262 261 261

GFSGL_925_thetae_096.txt.gz
Theta_e
302 301 302 301 300 299 298 297 297 297 297 296 296 296 296 296 296 296 296 295 295 296 296 297 299 300 300 300 301 302 303 304 306 306 306 305 306 305 306 306 306 306 306
299 298 298 297 297 296 296 296 296 295 295 295 295 294 294 294 294 294 294 294 294 294 294 294 294 295 295 296 297 298 299 299 302 302 302 302 302 303 303 304 303 304 304
297 296 296 296 296 295 295 295 294 294 294 294 294 294 294 293 293 293 292 293 293 293 293 292 292 292 293 293 294 294 295 296 297 298 298 299 299 300 300 301 301 302 302
296 296 295 295 294 294 294 294 294 294 294 294 293 293 293 292 292 292 292 292 292 292 292 292 292 291 291 290 290 290 291 292 294 294 295 296 296 297 298 298 297 297 297
295 294 294 294 294 294 294 293 293 293 293 293 292 292 292 292 291 291 291 291 290 290 290 290 290 290 289 289 289 289 289 290 291 292 292 293 293 294 295 295 294 294 294
294 294 293 293 293 293 293 292 292 292 292 292 291 291 291 291 290 290 289 288 288 288 288 288 288 289 288 288 289 288 289 289 290 290 290 291 291 291 291 292 292 292 292
294 293 293 292 292 292 291 291 291 291 291 291 290 290 290 290 289 288 287 287 287 287 286 287 287 287 287 287 287 287 287 287 288 289 289 289 289 289 288 288 289 289 290
293 292 292 292 291 291 291 291 290 290 290 290 290 289 289 289 288 287 286 287 287 286 286 286 286 287 287 287 287 287 286 286 286 287 288 288 288 288 288 287 288 288 287
291 291 291 291 291 291 291 290 289 288 289 288 288 288 288 288 287 286 286 285 285 285 285 285 286 286 287 287 286 286 286 286 286 286 287 287 286 286 286 287 287 287 285
291 291 290 290 290 289 289 288 288 287 287 286 286 286 285 286 286 285 285 285 285 284 285 286 286 286 286 285 285 286 286 287 287 286 286 285 284 284 284 285 285 286 284
290 290 290 289 289 288 288 287 287 287 286 285 285 285 285 286 286 285 286 285 285 285 285 285 284 284 285 285 286 286 287 286 285 286 286 285 284 283 283 283 284 285 284
290 290 289 288 288 287 286 286 285 285 284 283 284 284 284 286 286 285 285 285 285 285 285 284 284 284 285 286 285 286 285 285 285 286 284 282 281 281 281 281 281 281 281
289 289 288 287 286 284 283 283 282 282 281 282 283 283 283 284 285 285 284 285 284 284 285 284 284 284 285 285 284 284 284 284 285 284 282 282 281 281 281 280 280 281 281
288 287 286 284 284 283 281 280 280 280 280 280 280 281 282 283 284 284 284 284 284 285 285 284 284 284 285 284 283 283 284 284 284 283 283 282 282 281 281 280 280 280 279
285 284 283 282 281 280 280 279 279 279 279 279 280 280 281 282 283 284 284 284 284 286 285 284 284 283 283 283 282 282 283 283 282 282 282 281 280 280 279 280 279 279 277
282 281 280 279 278 278 278 278 278 278 278 279 280 280 281 282 283 283 284 283 283 284 285 284 283 282 281 280 280 280 280 280 280 280 280 279 279 279 278 278 278 277 275
280 278 278 277 276 275 274 274 274 278 276 276 277 279 280 281 282 283 283 282 282 283 284 283 282 280 279 278 278 278 278 278 278 278 278 278 278 277 277 277 276 275 273
277 277 276 275 273 273 273 273 272 272 272 274 275 276 278 280 281 281 281 281 280 282 282 281 280 278 277 277 277 277 277 277 277 276 276 276 276 276 275 275 275 274 273
276 275 274 273 273 272 272 271 271 272 272 273 274 275 277 279 279 279 280 279 277 279 281 280 278 277 276 275 275 275 275 275 275 275 274 274 274 274 273 272 273 273 273
274 274 273 272 271 271 270 270 271 271 271 272 273 274 276 277 277 276 277 276 276 276 277 276 275 274 274 274 274 273 273 273 272 272 272 271 271 272 271 271 271 271 270
273 273 271 270 270 269 269 269 270 270 271 271 272 274 277 275 273 273 273 273 273 273 273 272 272 272 272 271 271 271 270 270 270 270 269 269 269 269 269 269 268 268 268
272 271 270 269 269 268 269 269 269 270 271 272 271 272 273 272 271 271 270 270 270 270 270 270 270 270 270 269 269 269 269 269 269 268 268 268 268 267 267 267 267 266 266
270 268 268 268 268 268 268 268 269 269 269 269 269 269 270 269 269 269 269 269 269 269 269 269 269 269 268 268 268 268 268 268 267 267 267 266 266 266 266 266 266 266 265
268 267 267 267 267 267 267 267 267 267 268 267 267 267 267 268 268 268 268 268 268 268 268 268 268 267 267 267 267 267 266 266 266 266 265 265 265 265 265 265 265 265 265
267 266 266 266 266 266 265 265 266 266 266 266 266 266 266 266 266 267 267 267 267 267 268 268 267 266 266 266 266 266 265 265 265 264 264 264 264 264 264 264 264 264 264
265 265 265 265 265 265 264 264 265 265 265 265 265 265 265 265 266 266 266 266 267 267 267 267 267 267 267 267 267 266 264 264 264 264 263 263 263 263 263 263 263 263 263

GFSGL_925_thetae_099.txt.gz
Theta_e
303 302 301 300 299 298 297 296 296 296 295 295 295 294 294 294 294 294 293 293 293 293 293 293 293 293 293 293 293 294 296 296 297 297 297 297 296 297 297 298 298 299 299
300 299 297 296 296 296 296 295 295 294 294 294 294 294 293 293 293 293 293 292 292 292 292 292 292 292 292 291 291 292 292 293 294 294 294 294 294 294 294 295 296 296 297
297 296 296 295 295 295 294 294 294 294 294 293 293 293 293 292 292 292 292 292 292 291 291 290 290 290 290 290 289 289 289 289 290 291 291 292 292 293 293 293 293 293 294
296 296 295 294 294 294 293 293 293 293 293 293 293 293 292 292 291 291 291 291 291 290 290 289 289 288 288 288 288 288 288 288 289 289 290 291 291 291 291 292 292 292 291
295 294 294 293 293 293 293 293 293 293 293 293 292 292 291 291 290 290 290 289 289 289 289 288 287 286 286 287 287 288 288 288 288 288 289 289 289 289 289 289 289 289 289
294 293 292 292 293 293 293 293 292 292 292 291 291 291 290 290 289 288 287 286 287 287 287 285 286 286 286 286 286 287 287 287 287 287 287 287 287 287 288 287 288 287 288
293 292 292 292 293 293 292 292 292 291 290 290 289 289 289 288 288 287 286 286 286 285 285 285 285 285 286 286 286 287 286 286 286 286 286 286 286 287 288 287 287 287 287
292 292 292 293 292 292 292 291 290 289 289 289 289 289 289 288 287 286 285 285 285 285 285 285 285 285 286 286 286 285 285 286 286 286 287 287 287 286 285 285 285 286 287
292 292 292 292 292 292 291 290 289 289 289 288 288 287 287 287 286 286 286 285 285 285 284 284 285 286 285 285 285 285 286 286 287 285 285 285 284 284 283 284 283 284 285
292 292 292 292 292 291 289 288 288 287 287 286 286 285 285 286 286 286 286 285 285 285 285 285 285 284 284 285 286 286 285 286 285 284 285 284 283 283 283 283 283 282 284
291 291 291 291 290 288 287 287 286 285 285 285 285 285 285 284 285 285 286 285 285 285 285 284 284 284 284 285 286 285 285 285 284 285 284 283 283 282 282 281 281 281 280
290 290 290 289 287 286 286 285 284 285 285 285 284 284 283 283 283 284 285 285 284 284 284 284 285 284 284 286 285 284 284 284 285 284 283 282 282 281 280 280 280 280 279
290 290 288 286 285 284 284 284 285 284 282 282 281 281 281 281 281 282 283 284 284 284 284 284 285 284 284 285 284 283 284 283 283 283 282 282 281 281 281 280 280 279 279
290 287 285 284 283 283 283 283 283 281 280 280 280 278 279 280 281 282 282 283 284 284 283 284 285 284 284 284 283 283 283 283 282 282 282 281 281 281 281 280 280 280 279
286 284 283 282 282 282 282 281 280 279 279 279 279 280 280 279 280 281 283 283 284 285 284 284 285 284 283 282 282 281 281 282 282 281 281 280 280 279 279 279 279 278 277
284 282 281 281 282 281 280 279 278 278 278 278 278 278 278 279 280 281 282 283 284 283 283 283 284 284 283 281 280 279 279 280 280 279 279 279 278 278 278 277 277 276 275
282 280 280 280 280 280 279 277 276 277 276 276 276 276 277 278 279 281 282 282 282 281 281 281 282 283 282 280 279 278 277 277 277 278 278 278 277 277 277 276 276 275 273
280 280 280 279 279 278 276 275 274 273 272 273 274 275 276 276 278 280 280 279 279 279 278 278 279 281 279 278 277 276 276 276 276 276 276 276 276 276 275 275 275 274 273
279 278 278 278 277 275 274 273 273 272 271 271 272 274 274 275 276 276 276 275 276 276 275 276 277 277 276 275 275 274 275 274 275 274 274 274 274 274 274 273 273 273 272
277 277 276 275 274 273 272 272 272 271 270 270 271 272 273 275 274 274 273 273 272 273 273 273 274 273 273 273 273 273 273 272 271 271 271 271 271 271 271 271 271 271 271
276 275 274 273 272 271 271 270 270 269 269 270 270 270 273 273 272 271 271 271 270 270 271 271 271 271 271 271 271 271 270 270 270 270 269 269 269 269 269 269 269 269 269
274 272 272 271 271 270 270 269 269 269 269 269 269 269 269 269 269 269 269 269 269 269 269 269 269 269 270 270 270 269 268 268 268 268 268 268 268 268 267 267 267 267 267
272 271 270 270 270 269 269 268 268 268 268 268 268 267 267 268 268 268 268 268 268 268 268 268 268 268 268 268 268 267 267 267 267 267 267 267 266 266 266 266 266 266 266
270 270 270 269 269 268 268 268 267 267 267 267 267 267 266 267 267 267 267 267 267 267 267 267 267 268 268 267 267 266 266 266 266 266 266 265 265 265 265 265 265 265 265
269 269 269 268 268 267 267 267 267 266 266 266 266 266 266 266 266 266 266 266 266 266 266 266 266 266 267 267 266 267 267 267 266 265 264 264 264 264 264 264 264 264 264
268 267 267 267 267 266 266 266 266 265 265 265 265 265 265 265 265 265 265 265 265 265 265 266 266 266 266 266 266 266 266 266 265 263 263 263 263 263 263 263 263 263 263

GFSGL_925_thetae_102.txt.gz
Theta_e
313 312 311 307 304 302 300 297 296 295 295 294 294 294 294 293 293 293 292 292 292 292 292 292 291 291 291 291 291 291 292 292 292 292 292 291 291 291 291 291 291 292 292
304 303 302 300 298 297 296 295 294 294 294 294 293 293 293 292 292 292 292 292 291 291 291 291 290 290 290 289 289 289 289 289 289 289 289 289 289 289 290 290 290 290 290
300 299 297 296 296 295 294 294 294 294 293 293 293 293 292 292 291 291 291 291 291 290 290 289 289 288 287 287 287 287 287 287 288 288 288 288 288 288 288 288 288 288 288
297 296 295 295 294 294 293 293 293 293 293 293 292 292 291 291 291 290 290 290 290 289 289 288 287 286 286 286 286 286 287 287 287 287 287 287 287 287 287 287 287 287 287
295 295 294 293 293 293 293 293 293 292 292 292 291 291 291 290 290 290 290 289 289 288 288 286 285 285 285 286 286 286 286 287 287 287 287 287 287 286 286 286 287 287 285
295 294 293 292 292 292 292 292 292 292 291 291 291 290 290 290 289 289 288 287 285 285 284 284 284 285 285 285 286 286 286 286 286 286 286 286 286 286 286 287 285 285 285
294 293 292 292 292 292 291 291 291 291 290 290 290 290 289 288 287 286 285 284 284 284 284 284 284 284 285 285 285 285 285 285 286 286 286 286 286 286 285 284 283 283 284
292 292 292 292 292 291 291 291 290 290 290 289 288 288 287 286 286 286 286 284 284 284 284 284 284 285 285 285 285 285 285 285 285 286 285 284 285 285 283 282 281 282 284
291 291 292 291 291 291 291 290 290 289 288 287 287 286 286 285 285 286 286 285 285 285 285 285 284 284 284 284 285 285 286 285 285 285 284 284 284 283 281 282 281 279 282
291 291 291 291 291 290 290 289 288 287 287 286 285 285 285 285 285 285 285 286 285 284 284 285 284 284 284 284 285 286 285 284 285 284 284 283 283 282 281 281 280 278 278
292 291 290 290 290 289 288 287 286 286 285 285 285 284 284 284 284 284 284 285 285 284 284 284 284 284 284 284 286 286 284 285 284 283 284 283 282 282 281 281 280 279 278
291 290 290 289 288 288 286 285 285 285 284 284 284 284 283 283 283 283 283 284 284 284 284 283 284 284 285 284 285 284 283 283 283 283 282 283 283 282 281 280 280 280 279
290 289 288 287 286 285 285 284 284 284 283 283 282 282 282 282 282 281 281 282 283 283 283 283 284 284 285 284 284 283 283 283 282 281 282 282 281 281 281 281 280 279 279
289 288 286 286 284 283 283 283 283 283 283 281 281 280 279 279 279 280 281 282 282 282 283 284 284 283 283 284 283 283 282 282 282 281 280 281 281 281 280 280 280 280 278
287 286 284 283 282 283 282 282 282 281 281 280 279 279 278 278 278 280 281 281 282 283 284 283 282 282 283 283 283 282 281 280 281 281 281 280 280 279 279 279 278 278 277
287 285 282 282 282 281 280 280 280 280 278 278 278 278 278 278 278 280 281 281 281 282 282 281 280 280 281 282 282 281 280 279 279 279 279 279 278 278 278 277 277 276 276
287 283 283 281 280 279 279 280 279 278 278 277 277 277 276 277 278 279 280 280 279 279 278 278 277 277 278 279 280 279 278 278 278 277 278 278 278 277 277 276 276 275 274
285 285 282 281 279 279 278 277 277 275 276 277 276 276 275 275 276 278 277 275 275 276 275 274 274 275 277 277 278 277 277 276 276 276 276 276 276 276 275 275 275 274 273
283 281 280 279 278 277 277 276 274 274 274 274 274 275 274 275 275 274 274 273 272 273 273 273 273 274 274 275 275 275 275 274 275 275 274 274 273 273 273 273 273 273 272
281 280 279 278 277 276 275 274 274 273 272 272 271 271 273 273 273 272 272 271 271 271 270 270 271 271 272 272 273 273 273 273 273 271 271 271 271 270 270 271 271 271 271
278 278 278 276 275 274 274 274 273 272 271 270 270 270 272 272 270 270 270 270 270 269 269 269 269 269 270 270 270 271 271 271 269 269 269 269 269 269 269 269 269 269 269
278 277 275 274 273 273 273 272 271 271 270 270 269 270 269 269 269 269 268 269 268 268 268 268 268 268 268 268 269 269 269 268 268 268 268 267 267 267 267 267 267 267 267
275 274 273 272 272 272 271 270 270 269 269 269 268 269 269 269 268 268 268 268 267 268 267 267 267 267 267 267 268 268 268 267 266 266 266 266 266 266 266 266 266 266 266
273 273 272 271 270 270 270 269 269 268 268 268 268 268 268 267 267 267 267 267 267 267 267 267 267 267 267 267 267 267 267 266 265 266 267 265 265 265 265 265 265 265 265
271 271 270 270 269 269 269 268 268 268 267 267 267 267 267 267 267 266 266 266 266 266 266 266 266 266 266 266 266 266 266 266 266 266 266 265 264 264 264 264 264 264 264
270 269 269 268 268 268 268 267 267 267 267 267 266 266 266 266 266 266 266 266 266 266 266 266 266 266 266 266 266 266 265 266 266 265 265 264 263 263 263 263 263 263 263

GFSGL_925_thetae_105.txt.gz
Theta_e
316 317 318 318 318 316 315 310 304 300 296 295 294 294 294 293 293 293 292 292 292 291 291 291 290 290 290 290 290 289 289 289 289 289 288 288 288 287 287 287 287 287 287
313 315 315 315 314 311 305 300 297 296 294 294 293 293 293 293 292 292 292 291 291 290 290 290 289 289 289 287 287 287 287 287 287 287 287 287 287 287 286 286 286 286 286
310 311 309 307 304 301 298 295 294 294 293 293 293 293 292 292 292 291 291 290 290 290 289 289 289 288 286 286 286 286 286 286 286 286 286 286 286 286 286 286 285 286 286
305 304 302 300 298 296 295 294 293 293 293 292 292 292 292 291 291 291 290 290 289 289 288 288 287 285 285 285 285 285 286 286 286 286 286 286 286 286 285 285 286 285 284
299 298 297 296 295 294 293 293 293 292 292 292 291 291 291 290 290 290 289 289 288 288 288 286 284 284 284 285 285 285 285 286 286 285 285 286 286 285 285 286 284 283 283
297 295 294 294 293 293 292 292 292 291 291 291 290 290 290 290 289 289 288 287 287 286 285 284 284 284 284 284 285 285 285 285 285 285 286 286 285 285 286 283 282 282 282
295 294 293 293 292 292 292 292 291 291 290 290 290 289 288 288 288 288 287 287 286 285 284 284 284 284 284 284 284 284 284 285 286 285 285 286 284 284 283 282 281 280 280
294 293 292 292 292 291 291 291 290 290 289 289 288 288 287 287 287 286 286 286 285 285 285 285 284 284 284 284 284 284 285 285 285 284 285 284 284 284 282 280 280 280 282
293 292 292 291 291 291 291 290 289 289 289 288 287 287 286 286 286 286 286 285 285 284 284 284 284 284 284 284 284 284 285 285 284 284 284 284 283 283 282 281 281 278 279
292 292 291 291 291 291 290 289 289 288 287 286 286 286 286 286 286 285 285 286 285 284 284 284 284 284 284 284 284 285 286 284 284 284 283 283 283 282 281 281 280 278 277
292 292 291 291 291 291 289 289 288 286 285 285 285 285 285 285 284 284 284 285 285 284 284 283 283 283 284 285 285 284 285 284 283 282 282 283 282 282 282 280 280 279 277
292 291 291 290 289 289 288 287 285 285 284 285 285 284 284 283 283 282 283 283 283 283 283 283 283 283 284 284 285 284 284 283 282 282 281 282 283 283 282 281 280 279 278
291 290 290 289 288 287 286 285 284 284 284 284 283 283 282 282 282 281 281 282 282 282 282 282 284 284 284 283 283 284 283 283 282 282 281 280 282 281 281 281 280 279 278
288 288 288 287 286 285 284 283 283 284 284 283 282 281 281 280 280 280 281 281 281 282 282 282 283 283 282 281 282 283 283 282 281 281 281 281 281 280 280 280 279 279 279
287 287 286 286 285 284 283 283 283 283 283 282 281 280 280 279 280 280 280 281 282 282 282 282 282 281 280 280 280 281 281 281 281 280 280 280 280 280 279 279 278 278 277
286 285 285 285 284 282 282 282 282 281 281 280 279 279 279 278 278 279 280 281 281 280 280 279 279 278 278 277 278 279 280 280 280 279 279 278 278 278 278 278 277 276 275
286 285 286 285 283 281 281 280 279 278 278 277 277 277 277 277 277 278 280 279 278 277 276 276 276 276 275 275 276 277 277 278 277 277 277 277 277 277 277 277 276 275 275
289 289 287 285 283 281 280 280 279 279 277 277 277 277 276 276 277 278 277 275 275 275 274 274 274 273 274 274 274 275 275 276 276 275 275 275 275 275 275 275 274 274 274
289 288 287 285 283 281 280 278 278 277 278 278 276 276 275 275 275 275 274 273 273 273 273 273 273 272 272 272 272 273 273 273 273 274 273 273 272 272 272 272 272 272 272
288 288 287 284 280 279 278 277 276 276 276 276 275 275 274 273 274 273 273 272 272 271 271 272 272 272 271 271 271 271 271 271 271 271 271 270 269 269 269 269 270 270 271
286 284 282 280 280 278 277 276 276 275 274 274 274 273 273 272 272 272 272 271 271 271 271 271 270 270 270 269 269 269 269 269 269 270 269 268 268 268 268 268 268 268 268
283 281 279 279 278 276 276 275 274 273 273 273 272 271 271 271 271 270 270 270 270 271 270 270 270 269 269 268 268 268 268 268 268 268 268 267 267 266 266 266 266 266 266
279 279 277 277 276 275 273 273 272 272 272 271 270 270 269 269 269 269 269 269 269 269 269 269 269 268 268 268 267 267 268 268 268 268 267 267 266 267 267 266 265 265 265
278 277 276 275 274 273 272 272 271 270 270 270 269 269 269 269 269 268 268 268 268 269 268 268 267 267 267 267 267 267 267 267 267 267 266 266 266 266 265 265 264 264 264
275 274 274 274 273 272 271 270 270 269 269 268 268 268 268 268 268 268 267 267 267 267 267 267 267 267 267 267 266 266 266 266 266 266 266 265 265 265 264 264 263 263 263
274 273 272 272 272 271 270 269 269 268 267 268 267 267 267 267 267 267 267 267 267 267 267 266 266 266 266 266 266 265 265 265 265 265 265 264 264 264 264 263 263 262 262

GFSGL_925_thetae_108.txt.gz
Theta_e
314 317 320 325 325 324 322 320 316 312 307 302 298 295 294 294 293 293 293 292 292 291 290 290 290 289 289 288 288 287 287 287 287 287 286 286 286 286 286 285 285 285 285
316 318 319 320 319 319 316 317 314 307 299 297 295 294 293 293 292 292 292 291 291 290 290 289 289 288 288 287 287 286 286 286 286 286 286 286 286 285 285 285 285 285 284
312 314 313 313 313 313 313 310 307 299 295 294 293 293 293 292 292 291 291 291 290 290 289 289 288 287 287 286 285 285 285 285 285 285 285 285 285 285 285 284 285 284 284
308 309 309 309 309 309 308 303 297 295 294 293 292 292 292 292 291 291 290 290 289 289 288 288 287 286 286 285 285 285 285 285 285 285 285 285 285 285 284 285 283 283 283
305 305 306 306 305 302 299 295 294 293 293 292 292 292 291 291 290 290 289 288 288 287 287 287 286 285 284 284 285 285 285 285 285 285 285 285 284 285 284 284 282 282 282
303 304 303 300 298 296 294 293 292 292 292 292 291 291 290 290 290 289 288 287 287 287 286 285 285 284 284 284 284 284 285 285 285 285 285 284 285 284 284 282 281 280 281
301 299 297 295 294 293 292 292 292 291 291 291 290 290 289 289 288 288 287 287 287 286 286 286 285 284 284 284 284 284 284 284 285 285 284 284 285 284 283 282 280 278 279
296 296 294 294 293 292 292 291 291 291 290 290 289 289 288 287 287 287 287 287 286 286 286 285 285 284 284 284 284 284 284 284 285 284 284 284 284 284 282 281 280 280 282
294 294 293 292 292 291 291 291 290 290 289 289 288 287 286 286 286 287 287 287 286 285 285 285 284 283 283 284 284 284 284 285 284 283 283 283 283 283 282 281 281 279 279
294 294 293 292 291 291 291 290 290 289 289 287 286 286 286 286 286 286 286 286 286 285 285 284 284 283 283 284 285 285 285 284 284 283 282 282 282 282 281 281 280 279 277
294 293 292 292 291 291 290 290 289 288 287 286 285 285 285 285 285 285 286 285 285 285 284 284 283 283 283 284 285 285 285 284 284 282 282 281 283 282 281 281 280 279 278
294 293 292 291 290 290 290 288 288 287 286 285 285 285 285 285 285 284 284 284 284 284 283 282 282 283 284 285 284 283 284 284 283 283 282 281 280 282 281 281 280 280 278
292 290 290 290 290 289 289 287 286 285 284 284 284 284 284 285 284 283 283 282 283 283 282 282 282 283 283 283 282 281 283 283 283 282 281 281 280 281 281 280 280 279 278
289 288 289 289 288 288 287 287 285 284 284 284 284 283 285 283 282 282 282 282 281 281 282 282 282 282 282 281 280 280 281 281 281 281 281 280 280 280 280 279 279 278 278
288 286 286 287 288 286 286 286 285 285 285 286 286 289 284 282 282 281 281 281 281 282 282 281 281 280 280 280 280 280 279 279 279 280 279 279 279 279 279 278 278 277 277
286 285 285 285 284 284 284 283 283 283 284 284 289 283 282 281 281 280 280 281 282 281 280 279 278 278 278 278 277 277 278 278 278 277 278 277 277 277 277 277 277 276 275
286 284 283 283 283 283 282 282 281 281 281 282 281 280 280 280 279 279 280 281 279 279 277 276 277 277 277 276 276 275 275 275 275 276 276 276 275 276 276 276 275 275 274
286 284 283 284 285 284 283 282 283 284 283 280 278 278 278 278 278 278 278 278 278 276 276 276 276 276 275 275 274 273 273 273 273 273 274 274 273 273 274 273 273 273 273
285 283 283 284 284 284 283 282 285 281 281 279 277 276 276 276 277 277 276 277 276 276 276 276 275 274 274 273 272 272 272 272 272 272 272 272 272 271 270 270 270 270 270
284 284 285 285 284 283 282 285 280 278 278 278 276 277 276 275 276 276 275 275 275 275 274 274 273 273 272 272 271 271 271 270 270 270 270 270 270 269 269 268 268 268 269
284 284 285 285 284 284 285 281 279 278 277 277 277 277 276 276 276 275 275 274 274 273 273 272 272 272 271 270 270 270 269 269 269 269 269 269 269 269 268 267 267 267 267
283 282 282 283 281 281 281 279 278 278 277 277 277 275 273 273 274 274 273 273 272 272 271 271 271 270 270 269 269 269 269 269 268 268 268 268 268 268 267 267 267 267 266
282 281 279 279 280 279 277 277 277 277 276 276 275 274 273 273 273 272 272 272 271 271 270 270 269 269 269 269 268 268 268 268 267 267 267 267 267 267 266 266 266 266 266
282 281 281 280 277 275 275 275 274 274 274 274 273 272 272 272 271 271 270 270 270 269 269 268 268 268 268 268 268 268 267 267 267 267 266 266 266 266 265 265 265 265 264
278 277 276 275 274 272 271 271 272 272 272 272 272 271 270 270 269 269 269 268 268 268 268 268 268 267 267 268 268 267 267 266 266 266 266 265 265 265 264 264 264 264 263
275 273 272 272 272 272 272 271 270 271 270 271 270 270 270 269 269 268 268 267 267 268 268 267 267 267 266 267 267 266 266 266 266 265 265 265 264 264 264 264 264 263 263

GFSGL_925_thetae_111.txt.gz
Theta_e
311 310 309 319 324 325 327 325 323 321 318 314 310 311 303 297 294 293 293 292 292 291 291 290 290 289 289 288 287 287 286 286 287 287 286 286 285 285 285 284 285 284 285
311 311 313 317 321 322 323 323 321 318 312 312 307 301 296 294 293 293 292 292 291 291 290 289 289 288 288 287 287 286 286 286 286 286 286 285 285 285 285 284 284 284 284
311 311 312 316 318 318 320 319 316 311 310 306 300 295 293 293 292 292 292 291 291 290 289 288 288 288 287 287 286 285 285 285 285 285 285 285 285 284 284 284 284 284 284
311 312 313 313 314 316 316 313 311 306 309 300 294 293 293 292 292 291 291 290 289 289 288 288 287 287 287 286 285 285 285 285 285 285 285 285 285 284 284 284 283 283 284
309 309 309 309 310 309 309 306 304 301 301 295 293 292 292 292 291 291 290 289 288 288 287 287 286 286 285 285 285 285 285 285 285 285 285 285 285 285 284 283 283 282 283
305 305 305 304 304 304 302 300 298 295 294 292 292 292 291 291 290 290 289 288 287 287 287 286 286 285 284 284 284 284 284 284 284 285 285 285 284 285 284 283 282 281 281
303 303 302 301 301 300 299 296 294 292 292 292 291 291 290 290 290 290 288 287 287 286 286 286 285 285 284 284 284 284 284 284 285 285 284 284 284 284 284 283 281 279 279
301 302 301 300 299 297 295 293 292 292 291 291 291 290 290 290 289 288 287 287 286 286 286 286 285 285 284 284 284 284 284 284 285 284 284 284 283 284 283 282 281 281 282
299 299 300 299 297 294 292 291 291 291 290 290 290 289 289 289 288 287 287 286 286 286 286 285 285 284 284 284 284 284 284 284 284 284 283 283 282 282 282 282 281 278 279
298 299 299 298 296 293 292 291 291 290 290 290 289 289 288 287 287 287 287 287 286 286 286 285 284 284 283 284 284 284 284 284 284 284 283 282 282 282 282 282 281 279 277
297 297 296 295 293 292 291 291 290 290 289 288 288 287 286 286 286 286 286 287 287 286 285 285 284 283 283 283 285 285 284 284 285 284 283 282 282 283 282 282 281 280 278
296 295 294 293 291 291 291 290 289 289 287 287 286 285 285 285 285 286 286 286 286 285 285 284 283 283 283 283 285 284 284 283 284 284 283 282 281 280 282 281 281 280 279
294 293 291 291 290 290 289 288 287 287 286 285 284 284 284 285 285 285 285 285 284 284 284 283 282 282 283 283 284 283 281 281 282 281 280 281 281 280 280 280 280 279 279
293 291 290 289 288 288 288 288 287 285 285 284 283 283 284 284 284 285 284 283 283 283 283 282 282 282 282 282 282 281 280 280 280 280 280 280 280 279 279 279 279 278 277
291 290 288 287 287 286 286 287 286 286 287 286 285 286 285 285 291 288 284 283 282 282 282 282 282 281 281 281 280 279 279 279 279 279 278 278 278 278 278 277 277 277 276
289 287 287 286 285 285 284 283 284 286 286 285 286 287 289 293 290 284 282 282 281 282 281 281 281 280 280 278 278 278 278 278 277 277 277 277 276 276 276 276 276 276 276
289 287 286 285 284 283 282 282 281 282 283 284 285 285 290 292 288 282 281 282 282 281 281 281 280 279 278 277 276 275 276 276 276 276 275 275 274 274 274 275 274 274 274
288 288 286 284 284 283 282 282 282 281 281 282 283 287 285 287 282 281 281 281 280 279 280 279 278 277 276 275 275 275 275 274 274 274 273 273 273 273 273 273 273 272 272
287 286 285 284 283 283 282 282 282 282 282 284 285 282 282 280 280 280 280 280 280 279 279 277 276 275 274 274 274 274 273 273 273 272 272 272 271 271 271 271 270 269 269
286 286 285 284 283 282 282 281 281 281 283 287 285 282 280 278 278 279 279 279 278 277 277 276 275 274 274 274 273 273 272 271 271 271 271 270 270 270 270 270 269 268 268
284 284 283 283 282 281 282 281 281 280 282 286 288 284 281 279 277 277 278 278 277 277 276 275 274 273 273 272 272 272 271 270 270 269 269 269 269 269 269 268 268 267 267
283 283 282 281 281 280 280 281 281 281 282 282 282 279 277 277 276 277 277 277 277 275 274 273 273 273 272 271 271 270 270 269 269 268 268 268 268 267 267 267 267 267 267
280 281 280 280 279 279 279 279 278 279 279 279 277 276 276 275 276 276 275 275 274 274 272 272 272 272 271 270 270 269 269 269 268 268 268 267 267 267 266 266 266 266 266
277 278 278 278 278 278 278 278 278 277 275 275 274 274 274 275 275 275 275 274 273 272 271 271 271 270 269 269 269 269 269 268 267 267 267 266 266 266 265 265 265 265 265
274 275 275 276 276 276 275 275 275 275 274 274 274 273 273 274 274 273 273 273 271 270 270 270 269 269 269 268 268 268 268 267 267 266 266 266 266 265 265 264 264 264 264
271 271 271 272 273 273 273 273 273 272 272 272 272 272 272 272 272 272 272 270 269 269 269 268 268 268 268 268 268 267 267 266 266 266 265 265 265 265 264 264 264 263 263

GFSGL_925_thetae_114.txt.gz
Theta_e
312 313 319 325 325 326 327 327 328 327 323 322 321 316 312 311 309 303 296 293 293 292 291 291 290 290 289 289 289 289 289 290 291 290 288 288 287 287 287 286 286 286 286
311 311 310 312 318 320 323 324 325 324 321 321 315 312 308 308 303 295 293 292 292 291 290 290 289 289 288 288 289 289 288 288 288 289 288 287 287 286 286 286 286 285 285
310 310 311 311 311 314 317 320 322 320 317 316 310 308 306 305 296 293 293 292 291 290 290 290 289 288 288 287 288 288 288 287 287 287 288 287 287 286 286 286 285 285 285
310 310 310 311 312 312 314 316 316 316 314 310 305 304 304 298 293 292 292 291 290 290 289 289 288 287 287 287 287 287 287 287 287 287 287 287 287 286 286 286 285 285 285
308 308 309 310 310 310 311 312 309 308 309 304 302 301 298 294 292 292 291 291 290 289 288 288 287 287 286 286 286 286 286 287 287 287 287 287 286 286 286 285 284 284 284
306 307 308 309 309 309 308 307 305 303 305 299 297 296 293 292 292 291 291 290 289 288 288 287 286 286 285 285 285 285 285 286 285 286 287 286 285 285 285 284 283 283 284
306 306 307 307 305 305 304 303 302 301 298 297 295 293 292 292 291 291 290 289 288 287 287 286 286 285 285 285 284 284 284 284 285 286 286 285 285 284 284 283 283 282 283
304 305 305 303 302 302 301 300 299 299 296 294 293 291 291 291 291 290 289 288 287 287 287 286 286 285 285 284 284 284 284 284 284 285 284 284 283 283 283 282 282 281 281
302 302 303 302 301 300 298 298 297 294 292 292 291 291 291 290 290 289 288 287 287 286 286 286 286 285 285 284 284 284 284 284 284 284 284 284 283 282 282 281 281 281 282
299 301 303 302 301 299 297 295 294 293 291 290 290 290 290 290 289 288 287 287 286 286 286 286 285 285 284 284 284 284 285 285 284 284 284 284 283 282 282 282 281 280 281
299 298 299 300 299 299 296 293 291 290 289 289 289 289 289 289 288 287 287 287 287 286 286 286 285 285 284 284 284 284 285 284 284 284 285 284 283 282 282 282 282 280 280
297 297 296 296 295 294 293 291 290 289 289 288 287 287 287 287 288 287 287 287 287 287 287 287 286 285 284 283 284 284 285 284 284 283 283 283 284 283 282 281 281 280 280
295 295 294 293 292 292 290 289 287 287 287 286 286 285 285 286 286 286 286 287 287 287 287 286 285 284 283 283 285 285 284 284 282 283 282 282 282 282 281 281 280 280 280
295 293 292 290 289 289 289 288 288 287 287 286 286 285 284 284 284 285 286 286 286 286 285 284 284 283 283 283 283 283 283 282 280 281 282 281 280 279 279 279 278 279 278
293 291 290 289 289 288 288 287 287 287 288 287 286 286 285 284 286 286 286 286 286 286 284 283 282 282 282 281 282 282 281 280 279 279 279 279 278 278 278 277 277 277 277
291 289 289 288 287 287 287 286 286 286 287 286 287 287 286 286 286 286 288 288 288 284 282 282 281 282 281 281 280 279 278 278 278 277 277 277 276 277 277 276 276 276 277
290 290 288 287 286 286 286 286 285 283 284 285 285 286 286 286 286 291 291 288 286 282 282 281 282 281 280 280 279 278 277 277 277 276 275 275 275 275 274 275 276 276 276
288 289 288 287 286 286 285 285 285 284 283 283 284 285 285 285 287 291 288 284 283 283 283 281 281 281 280 279 278 277 276 276 275 274 273 273 273 273 273 274 275 274 274
287 287 287 286 285 285 284 284 285 284 284 284 283 283 284 284 287 287 283 283 283 282 282 280 280 280 279 278 277 276 275 274 273 273 273 272 272 271 271 272 272 271 271
285 285 285 285 284 284 284 284 284 283 284 284 283 283 283 283 283 282 282 283 282 281 279 280 280 279 277 277 276 275 274 273 272 272 272 271 271 270 269 269 269 270 270
282 283 284 284 283 283 283 283 283 283 283 284 283 283 285 287 285 283 282 282 281 279 279 280 279 278 276 275 274 274 272 271 271 271 271 270 270 269 269 268 268 268 268
280 281 281 282 282 282 282 282 282 283 283 283 283 283 282 282 283 282 282 281 280 279 279 280 278 276 275 275 274 273 272 271 271 270 270 269 269 268 268 267 267 267 267
278 277 278 279 279 280 280 280 280 281 281 281 281 278 279 279 278 278 278 276 277 278 278 277 276 275 274 273 272 272 271 271 271 270 269 268 268 267 266 266 265 265 266
276 275 274 275 276 276 276 277 277 277 277 277 277 278 278 279 278 277 276 275 275 275 275 275 274 274 273 272 271 271 270 270 269 269 268 268 267 266 266 265 264 264 264
273 272 272 273 274 275 275 275 275 275 275 276 276 276 277 276 275 275 274 275 275 274 274 273 272 272 271 271 270 270 270 269 268 268 267 267 266 266 265 265 264 263 263
272 271 269 269 270 271 272 273 273 273 272 272 273 273 273 272 273 273 272 272 272 272 272 272 272 271 270 269 269 269 269 268 267 267 266 266 266 265 264 264 264 263 262

GFSGL_925_thetae_117.txt.gz
Theta_e
316 323 326 328 328 328 328 328 329 328 326 325 323 324 324 323 319 313 311 308 303 296 293 293 292 291 291 290 290 290 290 291 293 291 289 289 288 288 287 287 287 286 286
314 314 320 325 325 325 325 325 326 327 326 326 322 321 321 319 313 310 308 304 297 293 293 292 291 291 290 290 290 290 290 289 291 291 289 288 288 287 287 287 286 286 286
312 312 312 313 319 323 323 323 324 324 323 320 319 319 317 314 310 307 304 300 294 293 292 291 290 290 289 289 289 289 289 288 289 289 289 288 288 287 286 287 286 286 286
310 311 312 312 313 315 316 317 319 319 319 317 316 315 314 310 306 302 300 295 293 292 291 290 290 289 289 288 288 289 289 288 288 288 288 288 288 287 287 286 285 285 285
308 309 310 311 311 311 312 312 313 315 315 314 312 308 309 304 306 298 296 293 292 291 290 290 289 288 288 288 288 288 287 288 287 288 288 288 288 286 286 285 285 284 285
307 308 309 309 309 309 309 310 311 310 309 309 306 306 303 305 302 295 295 292 291 290 289 289 288 288 288 287 287 287 287 287 287 287 288 287 286 285 286 285 284 283 283
306 307 308 308 308 307 307 307 307 306 305 303 302 303 301 304 296 293 293 292 291 290 289 288 287 287 287 286 286 285 285 285 285 286 287 286 286 285 284 284 284 283 282
304 305 305 305 306 306 305 303 302 302 302 301 300 300 301 297 293 291 291 291 290 289 288 288 287 287 286 286 285 285 285 284 284 285 285 285 284 284 283 283 282 281 281
302 302 303 304 304 302 301 301 300 297 296 296 296 295 293 293 291 291 290 289 289 288 287 287 287 287 286 286 285 285 285 285 284 284 284 284 284 283 283 282 282 282 282
300 301 301 302 303 302 301 299 298 296 294 293 292 292 291 291 290 290 290 289 288 287 286 286 286 286 286 285 285 285 285 285 285 284 284 284 284 283 282 282 281 282 281
299 299 299 299 300 300 298 296 296 294 293 292 291 290 290 291 290 290 289 288 287 287 286 286 286 286 286 285 285 284 285 285 285 285 284 284 285 284 283 282 281 281 281
298 298 297 297 297 297 297 295 293 292 290 289 289 289 289 289 290 288 288 287 287 287 287 287 286 286 286 285 285 285 285 285 285 284 284 284 284 283 283 282 281 281 280
296 296 295 294 294 294 294 293 291 290 289 289 288 287 287 287 288 289 288 287 286 286 287 287 287 287 285 285 285 285 285 285 286 285 283 283 283 282 282 282 281 280 279
294 293 292 292 291 291 291 291 290 289 289 289 288 288 287 287 287 288 288 288 287 286 287 286 287 286 285 284 284 284 285 285 284 283 282 283 282 281 280 280 280 279 279
293 292 291 290 290 289 289 289 289 290 290 289 289 289 288 286 287 287 288 287 288 287 287 286 285 285 284 283 283 283 283 283 283 282 281 280 280 280 279 279 278 278 278
291 291 290 289 289 288 288 288 288 288 289 289 289 289 288 288 287 287 287 286 287 287 286 285 285 284 283 283 282 282 282 281 281 280 279 279 279 278 278 278 277 277 277
289 289 289 289 288 288 288 288 288 287 287 287 287 287 287 288 287 287 286 285 286 286 286 285 285 283 283 282 282 282 281 280 279 278 278 278 277 277 277 276 276 276 276
288 288 288 288 287 287 287 287 287 287 286 285 286 285 285 286 287 287 286 285 285 285 285 285 284 283 283 282 282 281 280 278 278 277 276 276 276 275 275 275 275 275 276
286 286 286 286 286 286 286 286 286 286 286 286 285 285 285 285 285 285 285 285 286 285 284 284 285 284 282 282 281 280 279 277 277 276 275 275 274 274 273 274 274 274 274
284 284 285 285 286 286 285 285 285 285 285 285 286 285 284 284 284 285 286 286 286 285 285 285 285 283 281 281 280 279 277 276 275 275 275 274 273 273 272 272 272 272 271
280 282 283 283 284 284 284 285 285 285 285 285 285 285 284 284 284 284 285 285 286 285 285 285 283 282 280 280 279 278 276 275 275 274 274 273 272 271 271 270 270 270 270
278 279 280 281 282 283 283 283 283 283 284 284 284 284 285 284 284 284 285 285 285 284 284 283 281 279 279 279 279 277 275 274 273 273 272 272 271 271 270 269 269 268 268
277 277 277 277 278 278 279 279 280 281 281 282 283 283 283 282 283 283 282 282 282 282 282 281 280 279 278 277 277 276 275 275 274 273 272 271 270 269 269 268 268 267 267
274 274 274 275 275 275 276 276 277 277 277 277 278 279 278 278 279 280 280 280 281 282 280 279 278 277 277 276 276 275 274 273 273 272 271 271 270 268 268 267 267 266 266
272 272 272 272 272 273 273 274 275 275 275 275 275 275 275 275 275 276 276 277 276 276 275 275 275 274 274 274 274 273 272 272 271 271 270 269 268 268 267 267 266 265 265
270 269 269 269 270 270 270 271 272 272 272 273 273 272 272 272 272 272 272 272 272 273 273 273 273 273 273 272 272 271 271 271 270 269 268 268 267 266 266 266 265 265 264

GFSGL_925_thetae_120.txt.gz
Theta_e
324 326 328 330 331 332 332 333 333 332 331 331 329 328 326 324 324 324 323 321 316 312 309 305 298 294 293 292 292 291 292 294 294 291 291 290 288 288 287 287 287 286 286
311 314 321 326 328 330 331 331 331 329 329 329 328 327 326 321 323 323 321 317 314 308 304 298 294 293 292 291 291 290 290 290 292 291 290 289 288 288 287 287 287 286 286
311 313 313 317 324 326 328 328 327 326 326 327 326 325 323 320 319 320 320 318 312 307 302 296 293 292 291 291 290 290 290 289 290 290 289 289 288 287 287 287 287 286 285
311 312 312 312 313 322 324 323 323 323 323 324 324 323 321 318 315 315 316 313 309 303 298 294 293 292 291 290 290 289 289 289 288 288 289 288 288 287 287 286 286 285 285
310 310 311 311 312 312 315 319 320 320 320 320 319 316 314 314 314 312 312 306 305 297 293 292 292 291 290 290 289 289 289 288 288 287 288 288 288 287 286 286 285 284 285
308 308 309 310 310 311 311 311 312 312 312 313 313 313 312 310 309 311 306 303 300 295 292 291 291 290 289 289 289 288 288 288 287 287 287 288 288 287 286 286 284 283 283
307 307 307 308 308 308 308 308 308 307 308 308 307 307 305 305 306 303 299 302 295 293 292 291 290 289 289 288 288 288 287 287 287 287 287 288 287 286 285 285 283 283 283
306 305 305 306 306 306 306 305 305 305 305 304 303 302 301 301 300 300 297 295 293 291 291 290 290 289 288 288 287 287 287 286 286 286 286 286 286 285 284 284 283 282 281
303 302 303 303 304 304 305 305 304 303 302 301 300 299 297 297 296 295 294 294 291 291 290 290 289 288 287 287 286 286 286 285 285 285 285 285 285 284 284 283 282 282 282
301 300 300 301 301 302 303 303 303 302 301 298 297 296 296 295 294 294 294 292 290 289 289 288 288 287 287 286 286 286 285 285 285 284 284 284 285 285 284 283 282 282 282
299 300 299 298 299 299 300 299 300 298 296 294 294 293 293 294 293 292 290 290 290 289 288 287 287 287 286 286 286 286 286 285 285 285 285 284 284 284 284 284 282 281 281
298 297 296 296 296 296 296 296 295 295 293 292 291 291 291 291 292 291 290 290 290 289 288 288 287 287 286 286 286 286 285 285 285 285 285 284 284 284 284 283 283 282 281
296 295 295 294 294 294 294 294 293 292 291 290 289 289 289 289 289 290 290 289 288 288 288 287 287 286 286 286 286 286 285 285 285 285 285 284 284 284 283 283 282 281 281
295 294 293 292 292 291 291 292 292 291 290 290 289 289 288 288 288 289 289 289 288 287 287 286 286 286 286 286 286 286 286 285 285 285 285 285 284 283 282 281 281 280 280
292 291 291 291 290 290 290 290 290 291 291 290 290 290 289 288 289 289 289 288 288 288 287 286 286 286 286 286 285 285 285 285 285 284 285 284 283 283 282 281 279 279 279
290 290 290 289 289 289 288 289 289 289 289 289 289 289 289 289 289 289 288 289 289 288 286 285 285 285 285 285 284 284 284 283 284 284 284 283 282 281 280 279 279 278 278
288 288 288 288 288 288 288 288 288 288 288 288 288 288 288 288 288 288 287 287 288 288 287 286 285 285 285 285 286 285 283 283 282 282 282 281 280 279 279 278 278 277 277
288 287 287 287 287 287 287 287 287 287 287 287 287 287 287 286 287 287 287 287 287 288 287 286 286 285 285 286 285 285 284 282 282 281 280 280 279 278 278 277 277 276 276
284 284 285 285 286 286 286 286 286 286 286 286 286 286 286 286 286 286 286 287 286 286 287 286 286 286 286 287 286 286 284 282 282 281 279 278 278 277 276 276 275 275 275
281 282 283 283 284 284 284 285 285 285 285 285 285 285 285 285 284 285 286 286 286 286 285 286 285 285 286 286 285 285 282 281 280 279 278 277 276 276 275 275 275 274 274
278 279 281 282 282 283 283 283 283 283 284 284 284 284 284 285 284 284 284 285 286 286 286 286 285 285 285 285 284 283 281 280 279 278 277 276 275 275 274 274 273 273 273
278 278 278 278 279 279 279 279 280 281 282 282 282 282 283 283 284 284 284 284 284 285 286 286 286 286 285 284 283 282 281 279 278 276 275 274 274 274 273 273 272 271 271
276 276 276 276 276 276 276 276 277 277 278 278 277 278 278 279 281 281 282 283 284 284 284 284 285 284 284 283 282 281 280 278 277 276 275 274 273 273 272 271 270 270 269
273 273 272 272 272 273 273 274 274 274 275 275 275 275 275 276 276 276 276 277 278 279 279 279 280 279 279 279 279 278 277 276 275 275 274 273 272 271 270 270 269 269 268
270 270 270 270 270 269 270 270 270 271 272 272 272 272 272 272 272 272 272 272 273 273 273 274 274 274 274 274 274 274 274 273 273 272 272 271 271 271 270 269 269 268 267
268 268 268 268 268 268 267 267 267 267 268 268 269 269 269 269 270 270 269 269 269 270 270 270 270 271 271 271 271 271 271 271 272 272 272 271 270 269 268 268 268 267 267

GFSGL_925_thetae_123.txt.gz
Theta_e
329 330 331 332 333 333 332 332 332 332 332 332 332 332 331 330 329 327 326 326 325 324 323 320 318 313 310 304 297 295 295 295 294 291 293 291 290 288 288 287 287 287 287
321 326 327 328 328 330 331 332 332 332 331 331 331 331 330 329 329 326 324 324 323 322 321 315 313 307 302 297 294 293 293 294 294 291 291 291 289 288 288 287 287 287 286
309 310 311 315 321 324 327 329 329 329 330 329 328 328 328 328 327 325 322 321 321 320 319 314 309 305 297 293 292 291 291 291 292 292 290 289 289 288 287 287 287 286 286
308 310 311 311 312 314 321 325 327 325 325 325 324 324 325 325 325 323 320 317 315 314 317 312 307 301 296 293 292 291 290 290 290 290 290 289 288 288 287 287 286 286 286
309 310 310 311 311 311 312 318 322 324 322 321 321 321 322 320 318 317 317 314 310 311 306 306 304 301 295 293 292 290 290 289 289 289 289 288 288 287 287 287 286 285 285
309 309 309 309 310 311 311 312 314 316 317 316 316 316 316 315 316 316 315 311 309 308 304 302 300 297 293 293 291 290 290 289 288 288 288 288 288 288 287 287 286 285 283
308 307 307 307 308 308 309 308 309 309 310 310 309 308 309 310 310 309 308 307 306 303 302 298 298 292 293 291 290 290 289 289 289 288 288 287 288 288 287 286 285 284 283
305 305 305 305 306 306 306 306 306 305 304 305 305 305 305 305 305 303 302 301 300 300 299 298 294 293 291 290 289 289 289 288 288 288 287 287 287 288 287 286 285 284 283
303 303 303 303 303 303 304 305 304 304 304 304 304 303 302 303 302 299 297 297 297 297 297 294 293 294 291 289 289 288 288 288 287 287 287 287 287 286 285 284 283 283 281
300 300 300 301 301 301 301 301 302 302 302 302 301 299 298 297 296 294 294 296 294 295 292 292 293 291 289 289 288 288 288 287 287 286 285 285 285 285 285 284 284 282 282
299 300 299 299 298 298 298 298 298 298 298 298 297 296 295 294 294 293 292 293 293 291 290 290 290 290 290 288 288 287 287 286 286 285 285 285 285 285 285 285 284 283 282
298 298 297 297 297 296 296 296 296 296 295 294 293 293 293 292 291 292 292 291 292 291 290 289 289 288 289 287 287 286 286 286 286 285 285 285 285 284 284 285 284 284 283
295 295 294 294 294 294 293 293 293 293 292 291 291 290 291 291 291 290 291 290 290 289 289 289 289 288 288 287 286 287 286 286 285 285 285 285 285 285 285 284 284 284 283
293 293 293 293 292 291 291 291 291 291 291 290 290 289 290 290 290 290 289 290 289 288 288 288 289 288 287 287 287 287 287 286 285 285 285 286 285 284 284 284 284 283 282
292 291 291 291 291 290 289 289 289 289 289 289 289 290 290 289 290 290 290 290 289 289 288 287 286 286 286 286 286 287 286 286 285 285 285 285 285 284 284 283 283 282 281
290 289 289 289 288 288 288 288 288 288 288 288 288 288 288 289 289 289 289 289 289 289 287 287 286 286 285 286 286 286 285 286 285 285 285 285 284 283 283 282 282 280 279
289 288 288 287 287 286 286 286 286 288 287 287 287 287 287 287 287 287 288 288 288 288 288 287 286 286 286 286 286 285 285 285 286 285 284 284 283 282 282 281 280 280 278
285 285 286 285 285 286 286 286 286 285 285 286 286 286 286 286 286 286 287 287 287 288 289 288 287 286 285 285 285 285 285 285 285 285 284 283 282 281 280 280 279 279 278
283 283 283 285 285 285 284 285 284 284 284 284 284 284 284 284 285 285 286 286 287 287 287 287 288 287 286 285 285 285 285 285 284 285 283 282 281 280 279 279 278 278 277
280 281 282 282 282 282 282 282 282 283 283 283 283 283 283 283 284 285 285 284 285 285 286 286 286 286 286 286 285 285 285 284 284 283 282 281 280 279 278 278 277 276 276
279 279 278 279 279 279 280 279 279 279 280 280 281 281 283 282 282 282 283 283 283 284 284 285 285 285 285 285 285 285 285 284 284 283 282 280 279 277 277 277 276 276 275
277 277 277 277 277 277 276 275 275 277 277 277 277 276 277 277 277 278 279 279 280 281 282 283 284 285 285 285 285 285 284 283 282 282 280 278 278 276 276 275 275 274 273
277 277 276 276 275 275 275 274 274 274 274 274 275 274 274 274 274 274 274 275 275 275 276 277 278 279 279 279 280 280 280 280 280 280 279 277 276 275 274 273 272 272 271
274 274 273 272 272 272 272 272 271 271 271 271 271 271 271 271 271 271 271 271 271 272 272 273 273 274 274 274 274 274 274 275 275 276 276 275 274 273 272 272 271 271 271
271 270 270 269 269 269 269 268 268 268 268 268 268 268 268 268 268 268 269 269 269 269 269 269 270 270 270 270 270 270 271 271 271 272 272 272 272 272 271 271 270 270 270
268 267 267 267 267 267 267 266 266 266 266 266 266 265 265 266 266 266 266 266 266 267 267 267 268 268 268 268 269 269 270 270 269 269 269 270 270 270 270 269 269 268 268

GFSGL_925_thetae_126.txt.gz
Theta_e
330 331 330 329 328 327 325 326 326 327 328 329 329 330 330 330 330 329 328 327 326 324 324 324 323 323 320 319 317 307 301 298 294 292 294 294 292 290 288 288 287 287 287
328 329 330 331 330 330 330 329 328 329 329 330 331 331 331 330 330 330 329 328 326 324 325 323 322 322 318 315 310 307 300 297 295 291 292 291 291 289 288 288 287 287 287
314 317 322 325 326 326 327 328 329 330 330 331 331 330 330 330 330 329 328 326 327 325 323 322 321 318 313 310 307 302 297 295 295 293 290 290 289 288 288 287 287 287 287
307 307 308 309 310 311 313 316 319 324 326 328 328 325 326 326 326 325 324 323 320 319 320 318 316 318 314 310 304 298 294 294 293 292 291 289 289 288 288 287 287 287 287
308 308 309 309 310 310 311 312 316 321 322 322 321 320 319 318 318 319 319 317 315 314 311 313 312 308 308 309 305 296 294 292 291 291 290 289 288 288 288 288 287 287 286
308 309 309 309 309 310 310 310 311 312 313 315 316 317 317 316 315 314 313 312 312 310 310 308 307 304 305 303 301 299 297 291 290 289 289 289 288 288 288 288 287 285 285
307 307 307 307 307 308 308 309 309 309 309 309 309 309 308 308 309 309 309 309 307 306 305 305 303 303 299 299 297 296 291 292 291 290 289 289 288 289 288 287 287 286 285
306 306 305 305 306 306 306 306 306 306 306 305 305 305 304 304 305 305 305 305 304 302 302 301 300 299 298 296 295 291 292 290 289 289 288 289 288 288 288 288 287 286 284
304 303 303 303 303 303 303 303 303 303 302 302 303 304 304 305 303 302 301 300 298 298 297 297 296 296 296 295 292 292 291 290 289 289 288 288 287 287 287 287 286 285 283
301 301 301 300 301 301 301 301 301 300 300 302 302 301 300 300 299 299 297 295 295 294 294 294 294 293 293 292 293 291 289 289 289 289 288 287 287 287 287 287 286 284 283
299 299 299 298 298 298 298 298 297 297 298 299 298 298 297 296 296 294 294 293 293 293 292 292 292 291 292 291 292 290 289 289 288 288 288 287 286 286 286 285 285 285 283
296 297 296 296 296 296 296 294 294 294 295 294 294 294 293 293 293 292 292 292 292 291 290 290 290 290 291 292 291 290 289 287 287 287 286 286 285 285 285 285 285 285 285
296 295 295 295 295 294 293 292 293 293 293 292 291 291 291 291 291 291 291 291 291 291 290 289 289 290 290 290 289 289 287 287 286 285 285 285 285 286 285 285 285 285 285
294 293 292 293 292 292 292 291 290 290 290 290 290 289 289 289 290 290 290 290 290 290 290 289 289 288 288 287 287 288 287 286 286 285 285 285 285 285 284 285 284 284 283
292 291 290 290 290 290 290 289 289 289 288 288 288 288 288 288 288 289 289 289 289 289 289 289 287 287 287 287 287 287 287 287 286 285 285 285 285 285 285 285 284 283 282
290 289 289 289 289 288 288 288 288 288 288 288 287 287 287 287 287 287 288 288 288 288 288 287 287 287 286 286 286 287 287 287 286 286 285 285 285 284 284 283 284 283 282
289 288 287 286 286 286 286 286 287 287 287 286 286 286 286 286 286 286 287 287 288 288 289 288 287 287 286 286 286 286 286 286 286 286 286 285 285 285 284 283 282 282 281
285 285 285 285 286 286 285 285 285 284 284 284 285 284 284 285 285 286 286 287 287 287 287 288 288 287 287 286 286 286 286 286 285 285 285 285 285 285 284 283 282 282 281
283 284 284 284 284 283 282 284 284 284 283 282 282 283 283 283 284 284 285 285 285 285 286 286 286 286 287 287 286 286 285 285 285 285 285 285 284 284 283 283 282 281 281
281 281 282 282 282 282 282 282 281 280 279 279 280 280 281 280 280 280 281 282 283 283 283 283 284 284 285 285 286 286 285 285 285 285 284 284 284 283 282 282 281 280 280
280 280 281 281 280 279 280 279 279 278 278 277 277 276 278 276 276 277 276 277 278 279 280 280 281 282 284 284 284 284 285 285 285 285 284 284 283 281 281 280 280 279 279
279 279 279 279 278 277 277 276 276 276 275 275 275 274 274 274 274 273 273 273 273 273 274 274 275 276 277 278 278 279 279 280 282 283 282 281 281 280 279 278 278 278 277
277 277 276 276 276 275 275 275 275 274 273 273 273 273 273 272 272 272 272 272 272 272 272 271 271 271 272 272 273 274 274 275 275 276 277 278 278 278 277 277 276 276 275
274 274 274 274 273 273 273 272 272 271 271 271 271 270 269 269 269 269 269 269 269 269 270 270 269 269 269 270 270 270 271 271 272 272 272 273 274 275 275 275 274 274 273
271 272 272 271 271 270 270 270 269 269 269 268 268 267 267 267 267 267 267 267 267 267 268 268 268 268 268 268 268 269 269 269 270 270 270 270 270 271 272 272 272 272 272
269 269 269 269 268 268 267 267 266 266 266 266 266 266 266 266 266 266 266 266 266 266 266 267 267 267 267 267 267 268 268 269 269 269 269 269 269 269 270 270 270 270 270

GFSGL_925_thetae_129.txt.gz
Theta_e
325 324 324 324 324 323 323 324 324 324 324 324 325 325 326 327 327 328 327 326 325 325 324 322 322 322 321 321 319 317 311 308 309 297 297 296 295 294 291 289 288 287 287
328 328 327 324 324 323 323 323 323 324 325 325 326 327 327 328 329 329 328 327 326 324 323 322 322 320 320 317 316 314 310 304 303 294 293 292 293 293 292 290 288 287 287
326 327 327 328 328 328 328 328 328 327 326 327 327 328 329 328 328 327 327 324 323 323 322 321 320 318 316 315 311 309 307 303 301 295 291 291 290 291 290 288 287 287 287
313 316 319 321 322 323 322 321 322 323 323 324 325 325 325 325 325 324 323 322 321 321 320 317 317 316 315 314 311 307 307 299 297 294 292 290 290 289 289 288 287 287 287
306 306 307 307 308 308 309 309 311 314 316 319 321 321 320 319 318 318 317 315 314 313 313 312 312 311 310 310 308 306 303 298 295 293 291 289 288 287 287 287 287 287 287
307 307 307 308 309 309 309 309 309 310 311 314 315 315 314 314 312 311 310 309 308 308 308 308 308 307 306 305 302 302 303 300 293 292 290 289 289 289 288 287 286 286 286
307 307 308 308 307 307 308 308 308 308 308 308 308 307 306 305 304 304 305 306 305 305 305 305 305 305 304 302 300 297 296 295 295 294 291 290 291 291 289 287 287 287 287
306 306 306 306 306 306 306 306 305 305 305 304 303 302 302 303 303 304 304 304 303 302 301 300 299 299 299 298 297 295 294 293 291 290 290 290 291 290 289 288 287 287 287
304 304 304 304 304 303 303 303 303 302 301 301 301 302 303 304 303 302 301 301 300 299 298 297 296 295 295 294 293 293 292 291 291 292 290 290 289 287 288 288 287 286 285
302 302 301 301 301 301 301 301 301 299 299 299 300 301 301 301 300 301 298 297 295 294 294 294 293 292 292 292 292 292 291 291 291 290 291 290 288 287 287 287 288 287 285
299 299 299 299 299 299 299 299 296 297 297 298 298 298 298 297 297 297 295 293 293 292 292 292 292 292 291 291 290 291 291 292 291 291 289 289 288 287 287 287 287 287 286
298 298 299 299 299 298 298 295 294 295 295 295 296 295 293 293 293 293 292 292 292 291 291 291 291 290 290 290 290 291 291 291 290 289 288 287 287 287 287 286 286 286 286
296 296 295 295 295 296 293 292 292 293 293 293 293 292 291 291 291 291 291 291 291 291 291 290 290 289 289 289 289 290 290 289 289 287 286 286 286 287 287 286 285 286 285
294 293 293 293 292 292 292 290 290 291 291 290 289 288 287 288 289 290 290 290 289 290 290 290 289 289 288 288 288 288 289 288 288 287 286 287 286 285 285 285 284 285 283
292 292 292 292 291 290 290 289 289 289 289 288 288 287 287 287 287 288 288 288 288 288 288 288 288 288 287 287 287 287 287 288 287 287 286 285 285 285 285 284 284 283 282
290 289 289 289 289 289 289 287 287 287 287 287 287 287 286 286 287 287 288 288 288 288 289 288 287 287 286 286 286 286 286 286 286 286 286 285 285 284 284 284 283 283 283
288 288 288 288 287 287 287 287 286 286 286 286 286 286 286 286 286 286 287 287 288 287 288 288 288 287 287 287 286 286 286 287 287 286 286 286 286 285 285 284 284 283 283
287 285 286 285 285 286 286 286 286 285 284 284 284 283 284 284 285 285 285 286 286 286 286 286 286 286 287 286 286 286 286 286 285 285 285 285 286 286 285 285 285 284 283
286 285 285 285 283 284 285 284 283 282 282 282 281 282 282 282 283 283 284 284 283 283 283 284 284 284 284 284 284 285 285 285 285 285 285 285 285 285 285 285 285 284 284
283 283 282 283 282 282 283 282 281 280 279 279 279 279 279 280 280 279 278 279 280 280 280 280 280 280 280 281 281 282 284 284 284 284 284 284 284 284 284 284 284 283 283
280 281 282 282 282 281 281 281 280 279 278 277 277 277 276 276 276 275 275 275 275 275 275 275 275 276 276 276 276 277 278 278 279 280 282 284 284 284 284 283 282 281 281
280 280 280 279 279 279 279 279 278 278 277 276 275 275 274 274 274 274 273 273 273 272 272 271 272 272 271 271 272 272 272 273 273 274 275 276 277 278 278 279 279 279 279
277 277 277 277 277 277 277 276 276 275 275 275 274 274 274 273 273 272 272 271 271 271 270 270 269 270 270 270 270 269 269 270 270 270 271 271 272 274 275 276 276 276 276
274 275 275 274 274 274 274 273 273 273 273 273 272 271 271 270 270 269 269 269 269 269 269 269 268 268 268 268 268 268 268 268 269 269 269 269 269 270 271 272 274 274 274
273 273 273 272 272 272 271 271 271 270 270 269 269 269 269 268 268 268 268 267 267 267 267 267 267 267 267 267 267 267 267 268 268 268 268 268 268 268 269 270 271 271 272
271 270 270 270 270 269 269 269 268 268 268 268 267 267 267 267 267 267 267 267 267 267 267 267 267 267 266 266 267 267 267 267 267 267 268 268 268 268 268 268 269 269 270